[[{"header":{"parameterUnit":"m.s-1","parameterCategory":1,"la1":30.6,"la2":29.2853,"lo1":-89.7004,"lo2":-87.6739,"dy":0.0162,"dx":0.0183,"nx":112,"ny":82,"refTime":"2023-10-04T06:00:00:Z","depth":0,"parameterNumber":2,"parameterNumberName":"U-component_of_WINDS"},"data":[0.0,0.0,0.0,0.0,0.0,0.0,0.0,0.0,0.0,0.0,0.0,0.0,0.0,0.0,0.0,0.0,0.0,0.0,0.0,0.0,0.0,0.0,0.0,0.0,0.0,0.0,0.0,0.0,0.0,0.0,0.0,0.0,0.0,0.0,0.0,0.0,0.0,0.0,0.0,0.0,0.0,0.0,0.0,0.0,0.0,0.0,0.0,0.0,0.0,0.0,0.0,0.0,0.0,0.0,0.0,0.0,0.0,0.0,0.0,0.0,0.0,0.0,0.0,0.0,0.0,0.0,0.0,0.0,0.0,0.0,0.0,0.0,0.0,0.0,0.0,0.0,0.0,0.0,0.0,0.0,0.0,0.0,0.0,0.0,0.0,0.0,0.0,0.0,0.0,0.0,4.0442,4.1551,4.3133,4.3994,4.3723,4.3468,4.2332,4.0044,0.0,0.0,0.0,0.0,0.0,0.0,0.0,0.0,0.0,0.0,0.0,0.0,0.0,0.0,0.0,0.0,0.0,0.0,0.0,0.0,0.0,0.0,0.0,0.0,0.0,0.0,0.0,0.0,0.0,0.0,0.0,0.0,0.0,0.0,0.0,0.0,0.0,0.0,0.0,0.0,0.0,0.0,0.0,0.0,0.0,0.0,0.0,0.0,0.0,0.0,0.0,0.0,0.0,0.0,0.0,0.0,0.0,0.0,0.0,0.0,0.0,0.0,0.0,0.0,0.0,0.0,0.0,0.0,0.0,0.0,0.0,0.0,0.0,0.0,0.0,0.0,0.0,0.0,0.0,0.0,0.0,0.0,0.0,0.0,0.0,0.0,0.0,0.0,0.0,0.0,0.0,0.0,0.0,0.0,0.0,0.0,0.0,0.0,0.0,0.0,0.0,0.0,0.0,0.0,4.0919,4.3104,4.4819,4.5242,4.3818,4.2408,4.1104,3.9965,0.0,0.0,0.0,0.0,0.0,0.0,0.0,0.0,0.0,0.0,0.0,0.0,0.0,0.0,0.0,0.0,0.0,0.0,0.0,0.0,0.0,0.0,0.0,0.0,0.0,0.0,0.0,0.0,0.0,0.0,0.0,0.0,0.0,0.0,0.0,0.0,0.0,0.0,0.0,0.0,0.0,0.0,0.0,0.0,0.0,0.0,0.0,0.0,0.0,0.0,0.0,0.0,0.0,0.0,0.0,0.0,0.0,0.0,0.0,0.0,0.0,0.0,0.0,0.0,0.0,0.0,0.0,0.0,0.0,0.0,0.0,0.0,0.0,0.0,0.0,0.0,0.0,0.0,0.0,0.0,0.0,0.0,0.0,0.0,0.0,0.0,0.0,0.0,0.0,0.0,0.0,0.0,0.0,0.0,0.0,0.0,0.0,0.0,0.0,0.0,0.0,0.0,0.0,4.0978,4.2473,4.3599,4.4775,4.5388,4.5085,4.2688,4.1222,4.1261,4.0796,0.0,0.0,0.0,0.0,0.0,0.0,0.0,0.0,0.0,0.0,0.0,0.0,0.0,0.0,0.0,0.0,0.0,0.0,0.0,0.0,0.0,0.0,0.0,0.0,0.0,0.0,0.0,0.0,0.0,0.0,0.0,0.0,0.0,0.0,0.0,0.0,0.0,0.0,0.0,0.0,0.0,0.0,0.0,0.0,0.0,0.0,0.0,0.0,0.0,0.0,0.0,0.0,0.0,0.0,0.0,0.0,0.0,0.0,0.0,0.0,0.0,0.0,0.0,0.0,0.0,0.0,0.0,0.0,0.0,0.0,0.0,0.0,0.0,0.0,0.0,0.0,0.0,0.0,0.0,0.0,0.0,0.0,0.0,0.0,0.0,0.0,0.0,0.0,0.0,0.0,0.0,0.0,0.0,0.0,0.0,0.0,0.0,0.0,0.0,0.0,0.0,0.0,4.2164,4.3715,4.3694,4.4605,4.5229,4.5309,4.2777,4.1288,4.1493,4.034,0.0,0.0,0.0,0.0,0.0,0.0,0.0,0.0,0.0,0.0,0.0,0.0,0.0,0.0,0.0,0.0,0.0,0.0,0.0,0.0,0.0,0.0,0.0,0.0,0.0,0.0,0.0,0.0,0.0,0.0,0.0,0.0,0.0,0.0,0.0,0.0,0.0,0.0,0.0,0.0,0.0,0.0,0.0,0.0,0.0,0.0,0.0,0.0,0.0,0.0,0.0,0.0,0.0,0.0,0.0,0.0,0.0,0.0,0.0,0.0,0.0,0.0,0.0,0.0,0.0,0.0,0.0,0.0,0.0,0.0,0.0,0.0,0.0,0.0,0.0,0.0,0.0,0.0,0.0,0.0,0.0,0.0,0.0,0.0,0.0,0.0,0.0,0.0,0.0,0.0,0.0,0.0,0.0,0.0,0.0,0.0,0.0,0.0,0.0,0.0,0.0,0.0,4.2183,4.3715,4.3694,4.5141,4.5167,4.2867,4.1775,4.0566,3.9053,3.8861,0.0,0.0,0.0,0.0,0.0,0.0,0.0,0.0,0.0,0.0,0.0,0.0,0.0,0.0,0.0,0.0,0.0,0.0,0.0,0.0,0.0,0.0,0.0,0.0,0.0,0.0,0.0,0.0,0.0,0.0,0.0,0.0,0.0,0.0,0.0,0.0,0.0,0.0,0.0,0.0,0.0,0.0,0.0,0.0,0.0,0.0,0.0,0.0,0.0,0.0,0.0,0.0,0.0,0.0,0.0,0.0,0.0,0.0,0.0,0.0,0.0,0.0,0.0,0.0,0.0,0.0,0.0,0.0,0.0,0.0,0.0,0.0,0.0,0.0,0.0,0.0,0.0,0.0,0.0,0.0,0.0,0.0,0.0,0.0,0.0,0.0,0.0,0.0,0.0,0.0,0.0,0.0,0.0,0.0,0.0,0.0,0.0,0.0,0.0,0.0,0.0,0.0,4.1724,4.2898,4.2901,4.3448,4.3441,4.2479,4.1168,4.0127,3.9488,0.0,0.0,0.0,0.0,0.0,0.0,0.0,0.0,0.0,0.0,0.0,0.0,0.0,0.0,0.0,0.0,0.0,0.0,0.0,0.0,0.0,0.0,0.0,0.0,0.0,0.0,0.0,0.0,0.0,0.0,0.0,0.0,0.0,0.0,0.0,0.0,0.0,0.0,0.0,0.0,0.0,0.0,0.0,0.0,0.0,0.0,0.0,0.0,0.0,0.0,0.0,0.0,0.0,0.0,0.0,0.0,0.0,0.0,0.0,0.0,0.0,0.0,0.0,0.0,0.0,0.0,0.0,0.0,0.0,0.0,0.0,0.0,0.0,0.0,0.0,0.0,0.0,0.0,0.0,0.0,0.0,0.0,0.0,0.0,0.0,0.0,0.0,0.0,0.0,0.0,0.0,0.0,0.0,0.0,0.0,0.0,0.0,0.0,0.0,0.0,0.0,0.0,4.0103,4.1228,4.2025,4.2021,4.2016,4.1903,4.1614,4.0551,3.9794,3.9548,0.0,0.0,0.0,0.0,0.0,0.0,0.0,0.0,0.0,0.0,0.0,0.0,0.0,0.0,0.0,0.0,0.0,0.0,0.0,0.0,0.0,0.0,0.0,0.0,0.0,0.0,0.0,0.0,0.0,0.0,0.0,0.0,0.0,0.0,0.0,0.0,0.0,0.0,0.0,0.0,0.0,0.0,0.0,0.0,0.0,0.0,0.0,0.0,0.0,0.0,0.0,0.0,0.0,0.0,0.0,0.0,0.0,0.0,0.0,0.0,0.0,0.0,0.0,0.0,0.0,0.0,0.0,0.0,0.0,0.0,0.0,0.0,0.0,0.0,0.0,0.0,0.0,0.0,0.0,0.0,0.0,0.0,0.0,0.0,0.0,0.0,0.0,0.0,0.0,0.0,0.0,0.0,0.0,0.0,0.0,0.0,0.0,0.0,0.0,0.0,0.0,0.0,4.0103,4.0751,4.119,4.119,4.119,4.0827,3.9968,3.9888,3.9565,0.0,0.0,0.0,0.0,0.0,0.0,0.0,0.0,0.0,0.0,0.0,0.0,0.0,0.0,0.0,0.0,0.0,0.0,0.0,0.0,0.0,0.0,0.0,0.0,0.0,0.0,0.0,0.0,0.0,0.0,0.0,0.0,0.0,0.0,0.0,0.0,0.0,0.0,0.0,0.0,0.0,0.0,0.0,0.0,0.0,0.0,0.0,0.0,0.0,0.0,0.0,0.0,0.0,0.0,0.0,0.0,0.0,0.0,0.0,0.0,0.0,0.0,0.0,0.0,0.0,0.0,0.0,0.0,0.0,0.0,0.0,0.0,0.0,0.0,0.0,0.0,0.0,0.0,0.0,0.0,0.0,0.0,0.0,0.0,0.0,0.0,0.0,0.0,0.0,0.0,0.0,0.0,0.0,0.0,0.0,0.0,0.0,0.0,0.0,0.0,0.0,0.0,0.0,4.0103,4.0195,4.0271,4.0271,3.9775,3.9345,3.9088,3.9066,3.8944,3.8707,0.0,0.0,0.0,0.0,0.0,0.0,0.0,0.0,0.0,0.0,0.0,0.0,0.0,0.0,0.0,0.0,0.0,0.0,0.0,0.0,0.0,0.0,0.0,0.0,0.0,0.0,0.0,0.0,0.0,0.0,0.0,0.0,0.0,0.0,0.0,0.0,0.0,0.0,0.0,0.0,0.0,0.0,0.0,0.0,0.0,0.0,0.0,0.0,0.0,0.0,0.0,0.0,0.0,0.0,0.0,0.0,0.0,0.0,0.0,0.0,0.0,0.0,0.0,0.0,0.0,0.0,0.0,0.0,0.0,0.0,0.0,0.0,0.0,0.0,0.0,0.0,0.0,0.0,0.0,0.0,0.0,0.0,0.0,0.0,0.0,0.0,0.0,0.0,0.0,0.0,0.0,0.0,0.0,0.0,0.0,0.0,0.0,0.0,0.0,0.0,0.0,0.0,4.0103,3.9987,3.9889,3.9889,3.888,3.845,3.9128,3.8567,3.8458,3.9126,0.0,0.0,0.0,0.0,0.0,0.0,0.0,0.0,0.0,0.0,0.0,0.0,0.0,0.0,0.0,0.0,0.0,0.0,0.0,0.0,0.0,0.0,0.0,0.0,0.0,0.0,0.0,0.0,0.0,0.0,0.0,0.0,0.0,0.0,0.0,0.0,0.0,0.0,0.0,0.0,0.0,0.0,0.0,0.0,0.0,0.0,0.0,0.0,0.0,0.0,0.0,0.0,0.0,0.0,0.0,0.0,0.0,0.0,0.0,0.0,0.0,0.0,0.0,0.0,0.0,0.0,0.0,0.0,0.0,0.0,0.0,0.0,0.0,0.0,0.0,0.0,0.0,0.0,0.0,0.0,0.0,0.0,0.0,0.0,0.0,0.0,0.0,0.0,0.0,0.0,0.0,0.0,0.0,0.0,0.0,0.0,0.0,0.0,0.0,0.0,0.0,0.0,4.0103,3.9908,3.9794,3.9794,3.8288,3.7974,3.9643,3.8321,3.8115,3.9794,0.0,0.0,0.0,0.0,0.0,0.0,0.0,0.0,0.0,0.0,0.0,0.0,0.0,0.0,0.0,0.0,0.0,0.0,0.0,0.0,0.0,0.0,0.0,0.0,0.0,0.0,0.0,0.0,0.0,0.0,0.0,0.0,0.0,0.0,0.0,0.0,0.0,0.0,0.0,0.0,0.0,0.0,0.0,0.0,0.0,0.0,0.0,0.0,0.0,0.0,0.0,0.0,0.0,0.0,0.0,0.0,0.0,0.0,0.0,0.0,4.2845,4.3157,0.0,0.0,0.0,0.0,0.0,0.0,0.0,0.0,0.0,0.0,0.0,0.0,0.0,0.0,0.0,0.0,0.0,0.0,0.0,0.0,0.0,0.0,0.0,0.0,0.0,0.0,0.0,0.0,0.0,0.0,0.0,0.0,0.0,0.0,0.0,0.0,0.0,0.0,0.0,0.0,4.0103,3.9432,3.8956,3.8956,3.7448,3.7116,3.8804,3.7997,3.8115,3.9794,3.9889,0.0,0.0,0.0,0.0,0.0,0.0,0.0,0.0,0.0,0.0,0.0,0.0,0.0,0.0,0.0,0.0,0.0,0.0,0.0,0.0,0.0,0.0,0.0,0.0,0.0,0.0,0.0,0.0,0.0,0.0,0.0,0.0,0.0,0.0,0.0,0.0,0.0,0.0,0.0,0.0,0.0,0.0,0.0,0.0,0.0,0.0,0.0,0.0,0.0,0.0,0.0,0.0,0.0,0.0,0.0,0.0,0.0,0.0,0.0,4.3957,4.3079,0.0,0.0,0.0,0.0,0.0,0.0,0.0,0.0,0.0,0.0,0.0,0.0,0.0,0.0,0.0,0.0,0.0,0.0,0.0,0.0,0.0,0.0,0.0,0.0,0.0,0.0,0.0,0.0,0.0,0.0,0.0,0.0,0.0,0.0,0.0,0.0,0.0,0.0,0.0,0.0,4.0103,3.9624,3.9131,3.8741,3.7561,3.7126,3.7985,3.7673,3.7945,3.9242,3.97,0.0,0.0,0.0,0.0,0.0,0.0,0.0,0.0,0.0,0.0,0.0,0.0,0.0,0.0,0.0,0.0,0.0,0.0,0.0,0.0,0.0,0.0,0.0,0.0,0.0,0.0,0.0,0.0,0.0,0.0,0.0,0.0,0.0,0.0,0.0,0.0,0.0,0.0,0.0,0.0,0.0,0.0,0.0,0.0,0.0,0.0,0.0,0.0,0.0,0.0,0.0,0.0,0.0,4.9556,4.9907,5.0575,5.1293,5.1078,4.9868,4.5594,4.3665,4.3489,4.3193,0.0,0.0,0.0,0.0,0.0,0.0,0.0,0.0,0.0,0.0,0.0,0.0,0.0,0.0,0.0,0.0,0.0,0.0,0.0,0.0,0.0,0.0,4.0368,4.0501,4.0425,4.0062,3.9185,0.0,0.0,0.0,0.0,0.0,0.0,0.0,0.0,0.0,0.0,0.0,4.0295,4.0081,3.9593,3.8784,3.7928,3.7338,3.7205,3.7313,3.7759,3.8631,3.9451,3.9889,0.0,0.0,0.0,0.0,0.0,0.0,0.0,0.0,0.0,0.0,0.0,0.0,0.0,0.0,0.0,0.0,0.0,0.0,0.0,0.0,0.0,0.0,0.0,0.0,0.0,0.0,0.0,0.0,0.0,0.0,0.0,0.0,4.5018,4.6009,0.0,0.0,0.0,0.0,0.0,0.0,0.0,0.0,0.0,0.0,0.0,0.0,0.0,4.9254,5.0702,5.0739,5.1226,5.2198,5.2198,5.2253,5.2351,5.2487,5.1648,5.0063,4.938,0.0,4.7842,4.639,0.0,0.0,0.0,0.0,0.0,0.0,0.0,0.0,0.0,0.0,0.0,0.0,0.0,0.0,0.0,0.0,0.0,0.0,0.0,0.0,0.0,0.0,4.0635,4.1342,4.0883,4.0062,3.9185,3.9085,3.9138,3.9013,3.909,3.9166,0.0,0.0,0.0,0.0,0.0,0.0,4.106,4.0407,3.9586,3.8788,3.7906,3.711,3.6426,3.6996,3.7773,3.8631,3.9451,3.9889,3.9889,3.9889,0.0,0.0,0.0,0.0,0.0,0.0,0.0,0.0,0.0,0.0,0.0,0.0,0.0,0.0,0.0,0.0,0.0,0.0,0.0,0.0,0.0,0.0,0.0,0.0,0.0,0.0,0.0,0.0,0.0,4.5047,4.6593,4.6993,4.6688,4.6616,0.0,0.0,0.0,0.0,0.0,0.0,0.0,0.0,0.0,5.0986,5.1049,5.1611,5.2846,5.2865,5.3297,5.4175,5.4657,5.514,5.5628,5.5628,5.5196,5.4373,5.3424,5.2522,5.1433,4.7799,4.6078,4.5648,0.0,0.0,0.0,0.0,4.5845,4.5908,4.6365,4.5891,4.5059,4.5053,0.0,0.0,0.0,0.0,0.0,0.0,0.0,4.2199,4.2548,4.2265,4.1983,4.235,4.2068,4.1609,4.1227,4.0404,3.9599,3.9084,3.8988,3.9162,3.9661,3.9643,0.0,0.0,0.0,4.1131,4.1939,4.1635,4.1028,4.0207,3.8911,3.7776,3.6958,3.7205,3.7546,3.7967,3.9164,3.9889,3.9889,3.9889,3.9832,0.0,0.0,0.0,0.0,0.0,0.0,0.0,0.0,0.0,0.0,0.0,0.0,0.0,0.0,0.0,0.0,0.0,0.0,0.0,0.0,0.0,0.0,0.0,0.0,0.0,0.0,0.0,0.0,4.6267,4.7744,4.7315,4.765,4.774,0.0,0.0,0.0,0.0,0.0,0.0,4.9829,5.0699,5.1948,5.365,5.3705,5.4214,5.5319,5.5325,5.576,5.6601,5.7049,5.7594,5.8237,5.8003,5.7864,5.774,5.6259,5.5142,5.399,4.9712,4.7815,4.7537,4.6889,4.6865,4.7284,4.7922,4.8028,4.7938,4.8574,4.7944,4.6839,4.6605,4.5358,4.387,4.3546,0.0,0.0,0.0,0.0,4.3358,4.3572,4.3344,4.3101,4.3342,4.3082,4.2795,4.2795,4.182,4.0616,3.954,3.9327,3.9538,4.0193,4.0119,0.0,4.1647,4.1781,4.2009,4.2821,4.2848,4.2421,4.1329,4.0079,3.8725,3.7205,3.7281,3.7394,3.7395,3.8764,3.97,3.9889,3.9889,3.9832,3.97,0.0,0.0,0.0,0.0,0.0,0.0,0.0,0.0,0.0,0.0,0.0,0.0,0.0,0.0,0.0,0.0,0.0,0.0,0.0,0.0,0.0,0.0,0.0,0.0,0.0,0.0,0.0,0.0,0.0,4.6554,4.7774,0.0,0.0,0.0,0.0,4.872,5.0278,5.159,5.2468,5.3346,5.4607,5.6341,5.6393,5.7218,5.8926,5.8945,5.9336,6.0137,5.9414,5.9082,5.9101,5.8281,5.7909,5.784,5.6926,5.604,5.5083,5.3162,5.1893,5.1141,5.1108,5.0596,4.9908,4.9951,4.9445,4.873,4.8768,4.874,4.8526,4.7703,4.6254,4.4669,4.3851,4.3598,0.0,0.0,4.3578,4.3773,4.4591,4.4007,4.3403,4.423,4.3592,4.2787,4.2787,4.273,4.2198,4.054,4.0234,4.0252,4.0296,0.0,4.2642,4.2718,4.2678,4.2883,4.3649,4.3757,4.3069,4.1386,4.1122,3.9758,3.6521,3.6958,3.7394,3.7395,3.8269,3.9088,3.987,3.9889,3.9832,3.97,3.9832,0.0,0.0,0.0,0.0,0.0,0.0,0.0,0.0,0.0,0.0,0.0,0.0,0.0,0.0,0.0,0.0,0.0,0.0,0.0,0.0,0.0,0.0,0.0,0.0,0.0,0.0,0.0,0.0,5.0488,5.1945,0.0,5.1363,5.1538,5.1613,5.1351,5.2936,5.4283,5.5162,5.604,5.7282,5.8997,5.9059,5.9592,6.0733,6.0792,6.0644,6.0332,6.0664,6.0527,5.9941,5.9101,5.873,5.865,5.7223,5.643,5.6098,5.547,5.3689,5.1347,5.0772,5.0728,5.099,5.1518,5.1161,5.0491,5.1055,5.0521,4.9333,4.7956,4.708,4.6527,4.6189,4.5721,4.5397,4.5942,4.5709,4.5338,4.567,4.5377,4.5055,4.5227,4.4894,4.455,4.455,4.4128,4.3592,4.2983,4.1896,4.1246,4.182,4.1933,4.2314,4.3405,4.3555,4.3821,4.4607,4.4657,4.4378,4.3723,4.2196,4.0495,3.8738,3.8365,3.7985,3.7431,3.8717,3.9605,3.9889,3.9889,3.9832,3.97,3.975,3.9637,0.0,0.0,0.0,0.0,0.0,0.0,0.0,0.0,0.0,0.0,0.0,0.0,0.0,0.0,0.0,0.0,0.0,0.0,0.0,0.0,0.0,0.0,0.0,0.0,0.0,5.0961,5.3147,5.3142,5.4669,5.5279,5.4108,5.4264,5.4307,5.401,5.5575,5.6927,5.7772,5.8655,5.98,6.1201,6.0975,6.1241,6.2063,6.1818,6.1397,6.0781,6.1094,6.0957,6.0351,5.9258,5.8926,5.9101,5.7354,5.6754,5.6957,5.6391,5.4962,5.3103,5.2513,5.245,5.2752,5.328,5.2935,5.2226,5.2497,5.1456,4.982,4.8697,4.8171,4.7937,4.793,4.754,4.7189,4.7781,4.7528,4.7002,4.6709,4.6514,4.6297,4.5892,4.5668,4.5566,4.5566,4.515,4.4784,4.4784,4.35,4.2622,4.3113,4.2959,4.317,4.4262,4.4433,4.4626,4.5125,4.5148,4.4972,4.463,4.281,4.1143,3.9984,3.9163,3.8461,3.7888,3.8869,3.9624,3.9889,3.9851,3.9794,3.97,3.9624,3.9498,3.9373,0.0,0.0,0.0,0.0,0.0,0.0,0.0,0.0,0.0,0.0,0.0,0.0,0.0,0.0,0.0,0.0,0.0,0.0,0.0,0.0,0.0,0.0,0.0,5.1562,5.303,5.4201,5.4201,5.5747,5.6138,5.4439,5.5029,5.5826,5.6621,5.8201,5.9478,6.0274,6.1152,6.2029,6.2903,6.2166,6.2148,6.3027,6.2172,6.1732,6.1738,6.082,6.041,6.0371,5.8672,5.8379,5.9101,5.7383,5.7085,5.768,5.604,5.5884,5.6626,5.6586,5.6011,5.524,5.5243,5.4677,5.3779,5.2906,5.1476,5.0034,5.0014,4.9469,4.8845,4.884,4.8814,4.8806,4.884,4.8821,4.8607,4.7762,4.7372,4.7021,4.6254,4.5891,4.5722,4.5741,4.5725,4.5709,4.5709,4.4979,4.4303,4.409,4.4741,4.5297,4.5297,4.5297,0.0,4.5201,4.5144,4.477,4.3942,4.2994,4.1747,4.0079,3.922,3.8745,3.871,3.8726,3.9088,3.987,3.9775,3.9719,3.9697,3.9451,3.9354,3.9482,0.0,0.0,0.0,0.0,0.0,0.0,0.0,0.0,0.0,0.0,0.0,0.0,0.0,0.0,0.0,0.0,0.0,0.0,0.0,0.0,0.0,5.1664,5.262,5.2386,5.5981,5.8636,5.8636,6.0178,6.103,6.0505,6.0095,6.0175,6.0939,6.1461,6.2114,6.2902,6.2597,6.2803,6.3673,6.2966,6.2935,6.3721,6.3015,6.2625,6.2549,6.11,6.0723,6.1269,5.8945,5.8379,5.914,5.8027,5.7673,5.7835,5.7317,5.725,5.7348,5.6138,5.5884,5.6207,5.616,5.5197,5.3783,5.2898,5.1865,5.0833,5.0209,4.9859,4.9664,4.9664,4.9255,4.8923,4.9508,4.9255,4.874,4.8507,4.793,4.7469,4.7742,4.6833,4.6083,4.6646,4.6327,4.5923,4.5923,4.5706,4.5428,4.5131,4.5201,4.5297,4.5297,4.5297,4.5277,4.5258,4.5163,4.502,4.4787,4.3918,4.2669,4.0997,4.0642,3.9973,3.8764,3.9261,3.9681,3.9889,3.9851,3.9788,3.9687,3.9519,3.9411,0.0,0.0,0.0,0.0,0.0,0.0,0.0,0.0,0.0,0.0,0.0,0.0,0.0,0.0,0.0,0.0,0.0,0.0,0.0,0.0,0.0,0.0,5.3576,5.5083,5.5825,5.8519,6.0792,6.1863,6.2898,6.3473,6.341,6.2967,6.2842,6.3226,6.3279,6.3472,6.3881,6.3462,6.3579,6.443,6.3741,6.3739,6.4536,6.3433,6.2883,6.2872,6.1541,6.0996,6.1113,5.9629,5.9043,5.918,5.8651,5.8432,5.8348,5.761,5.7504,5.766,0.0,0.0,0.0,0.0,5.5087,5.3791,5.2894,5.2029,5.1222,5.0716,5.0541,5.0541,5.0541,5.0229,4.9937,5.0404,5.0202,4.9753,4.9403,4.8935,4.856,4.8607,4.7878,4.7306,4.7762,4.7508,4.7177,4.7177,4.6807,0.0,4.6167,4.5724,4.5239,4.4817,4.476,4.4626,4.43,4.4414,4.456,4.4554,4.4051,4.318,4.1821,4.1374,0.0,0.0,0.0,3.987,3.9813,3.9757,0.0,0.0,0.0,3.9327,3.9314,3.9157,0.0,0.0,3.8869,3.885,0.0,0.0,0.0,0.0,0.0,0.0,0.0,0.0,0.0,0.0,0.0,0.0,0.0,0.0,0.0,0.0,5.5981,5.8777,6.0694,6.0987,6.1802,6.4082,6.4335,6.4348,6.4384,6.4262,6.4193,6.4256,6.4274,6.4228,6.4086,6.4154,0.0,0.0,0.0,6.4554,6.5411,6.3709,6.2906,6.3,6.1952,6.1133,6.0527,6.0351,5.9922,5.9336,5.9331,5.9305,5.9129,5.7547,5.7187,5.7582,5.6879,5.6606,5.6484,5.5655,5.4794,5.3923,5.3045,0.0,0.0,5.1339,5.13,5.13,5.13,5.13,5.13,5.13,5.13,5.1125,5.0357,5.0065,4.9831,4.9223,4.8943,4.8818,4.8911,4.886,4.8801,4.8801,4.8034,4.7333,4.7177,4.622,4.5182,4.4281,4.4052,4.3746,4.3039,4.3363,4.3662,4.3653,4.3686,0.0,4.2478,4.1844,4.1114,4.0233,4.01,3.9968,3.9738,3.9624,3.9523,3.9498,3.9369,3.9352,3.9407,3.9389,3.9352,3.9259,3.9138,3.9101,0.0,0.0,0.0,0.0,0.0,0.0,0.0,0.0,0.0,0.0,0.0,0.0,0.0,0.0,0.0,5.6348,5.8558,6.0971,6.4079,6.451,6.4706,6.5195,6.5205,6.5418,6.6048,6.4859,6.4578,6.5829,6.5941,6.5895,6.5818,6.5838,6.5877,6.5993,6.5276,6.5316,6.6185,6.4558,6.3757,6.3755,6.1579,0.0,6.1328,6.0019,5.9707,6.0176,6.017,6.0166,6.0066,5.9035,5.7914,5.6821,5.6665,5.6577,5.6489,5.6313,5.5705,5.4819,5.3942,5.307,5.2236,5.1534,5.13,5.13,5.13,5.13,0.0,5.13,5.13,5.1261,5.1086,5.0533,5.0143,5.0696,4.9773,4.8974,4.9617,4.9266,4.8799,4.8799,4.8624,4.839,4.8093,4.6622,4.5392,4.5086,4.444,4.3925,4.379,4.3216,4.2829,4.281,4.334,4.334,4.2478,4.2895,4.2835,4.1974,4.1304,4.0615,3.9889,3.9832,3.9708,3.9496,4.0132,4.0365,4.0198,4.0812,4.0793,4.0142,3.9426,3.9101,0.0,0.0,0.0,0.0,0.0,0.0,0.0,0.0,0.0,0.0,0.0,5.1327,0.0,0.0,5.6231,5.9256,6.0822,6.2553,6.5136,6.5433,6.5565,6.5995,6.6414,6.6624,6.6555,6.6182,6.6256,6.7037,6.6728,6.6655,6.6995,6.6591,6.6322,6.6245,6.5857,6.5857,6.6301,6.5102,6.4309,6.3884,6.2277,6.1088,6.0293,6.039,6.0215,5.9844,6.0698,6.1045,6.0945,5.964,5.8343,5.7153,5.6762,5.6582,5.6499,5.607,5.5606,5.5087,5.419,5.333,5.2528,5.2099,5.1671,5.13,5.13,5.13,5.13,5.13,5.13,5.13,5.13,5.0989,5.0755,5.1203,5.065,5.0163,5.0552,4.9987,4.9403,4.9403,4.8713,4.8187,4.828,4.7156,4.6037,4.5392,4.4573,4.3694,4.2871,4.2699,4.2468,4.1996,4.264,4.2901,4.244,4.2782,4.2872,4.2431,4.2025,4.1611,4.1171,4.1016,4.0908,4.0766,4.1041,4.1129,4.0993,4.1423,4.1375,4.0974,4.0132,3.95,0.0,0.0,0.0,0.0,0.0,0.0,0.0,0.0,5.1156,5.2183,5.296,5.4151,5.639,5.7754,5.9276,6.1548,6.2751,6.3945,6.5502,6.5621,6.5826,6.6505,6.7206,6.7334,6.6582,6.7185,6.7606,6.7553,6.7107,6.701,6.7432,6.6935,6.6551,6.6303,6.6245,6.6225,6.6205,6.5218,6.4426,6.3768,6.2858,6.1298,5.9272,6.0937,6.0879,5.953,6.1047,6.159,6.1333,5.9933,5.8831,5.7972,5.7153,5.6821,5.6723,5.5864,5.5519,5.5334,5.4456,5.3696,5.3073,5.2918,5.2372,5.1768,5.1593,5.1554,5.1515,5.1359,5.13,5.13,5.13,5.13,5.13,5.13,5.1164,5.1086,5.1261,5.0611,5.0007,4.9995,4.8916,4.8051,4.8312,4.759,4.6714,4.5908,4.5048,4.3996,4.2642,4.2738,4.2661,4.1886,4.2379,4.2784,4.2886,4.2899,4.2824,4.2648,4.264,4.2579,4.2427,4.2196,4.2056,4.1997,4.1946,4.189,4.1822,4.2001,4.2001,4.1822,4.1181,4.0309,5.1398,5.133,5.1237,5.1137,5.1698,5.2453,0.0,0.0,5.4002,5.5604,5.6044,5.6451,5.7405,5.9546,6.1502,6.2517,6.4096,6.55,6.6358,6.6525,6.6541,6.6509,6.6597,6.6621,6.6508,6.6582,6.664,6.6644,6.7281,6.7344,6.6581,6.7202,6.717,6.6322,6.6283,6.6264,6.6205,6.4619,6.3787,6.369,6.224,6.0992,6.0024,6.116,6.1188,6.0319,6.1274,6.1252,6.0534,6.0334,5.9749,5.887,5.7992,5.766,5.7562,5.6743,5.6411,5.6231,5.5354,5.4995,5.4788,5.4009,5.3697,5.3463,5.2684,5.245,5.2294,5.1515,5.13,5.13,5.13,5.13,5.13,5.13,5.0716,5.0357,5.1125,5.0611,4.9995,5.001,4.9854,4.9464,4.8619,4.7645,4.7118,4.7484,4.6774,4.6141,4.5971,4.471,4.379,4.3618,4.3651,4.3916,4.4573,4.4605,4.434,4.361,4.3534,4.3213,4.2427,4.237,4.2239,4.2006,4.2662,4.2903,4.2674,4.3386,4.3367,4.2674,4.2576,4.169,5.1506,5.1406,5.1622,0.0,5.3132,5.3744,5.506,5.6165,5.7249,5.8456,5.9112,6.0012,6.1837,6.2666,6.3494,0.0,6.5672,6.6252,6.6566,6.6146,6.5438,6.4406,6.4294,6.4877,6.6353,6.6955,6.7266,6.7266,6.7111,6.7091,6.7196,6.7044,6.6758,6.6375,6.6321,6.6051,6.5509,6.4812,6.3942,6.2936,6.2375,6.1403,6.0126,6.0649,6.0717,6.0447,6.1319,6.1202,6.0354,5.9846,5.9124,5.8265,5.7426,5.7094,5.7055,5.6723,5.6567,5.6446,5.6075,5.5619,5.5139,5.4788,5.432,5.3833,5.3463,5.3366,5.3288,5.2918,5.282,5.2703,5.2197,5.206,5.1924,5.1417,5.063,5.0248,5.1121,4.9859,4.8694,4.9196,4.8483,4.7781,4.7742,4.7395,4.7461,4.8507,4.7016,4.5799,4.5799,4.5192,4.4543,4.3964,4.3817,4.3876,4.4164,4.4202,4.4259,4.4397,4.4397,4.4221,4.3856,4.378,4.3662,4.3463,4.3711,4.3732,4.3478,4.3825,4.3825,4.3478,4.3021,4.2205,5.181,0.0,0.0,5.3818,5.4578,5.535,5.7065,5.8621,6.0001,6.1095,6.1426,6.2075,6.3955,6.3982,6.4145,6.5398,6.5961,6.6312,6.6552,6.5401,6.4084,6.2837,6.206,6.2449,6.4527,6.5732,6.6586,6.7052,6.6508,6.6528,6.7383,6.6807,6.6422,6.6406,6.6124,6.5663,6.5005,6.4774,6.3884,6.2394,6.253,6.1608,5.976,5.9927,6.0147,6.044,6.1076,6.0978,6.0315,5.9202,5.8363,5.7719,5.6918,5.6606,5.6606,5.6606,5.6553,5.6511,5.6504,5.6094,5.5556,5.5567,5.5139,5.4574,5.434,5.4262,5.4203,5.397,5.3911,5.3755,5.3112,5.2964,5.2809,5.2158,5.1359,5.095,5.183,5.0373,4.9091,4.9722,4.8833,4.7976,4.7976,4.7898,4.8136,4.8894,4.7275,4.6149,4.658,4.642,4.5908,4.4997,4.46,4.4283,4.4047,4.4018,4.4183,4.4549,4.4781,4.4895,4.4895,4.4819,4.4662,4.4492,4.4391,4.424,4.4005,4.4005,4.4005,4.3986,4.3404,4.2569,5.2355,5.2526,5.2889,5.4625,5.6279,5.7944,5.9698,6.0788,6.1882,6.3546,6.2609,6.1511,6.1525,6.2246,6.2854,6.2821,6.4251,6.5609,6.6383,6.4414,6.2833,6.2716,6.0468,5.9283,6.0196,6.1847,6.3537,6.5168,6.5246,6.5615,6.6489,6.6508,6.6474,6.6406,6.558,6.5099,6.4986,6.4174,6.3284,6.2394,6.2549,6.1311,5.8932,5.9129,5.966,6.0398,6.0421,6.0412,6.0276,5.8558,5.7816,5.7719,5.6918,5.6606,5.6606,5.6606,5.6558,5.6503,5.6511,5.6471,5.6449,5.6453,5.6444,5.6249,5.5431,5.5158,5.4983,5.4145,5.3911,5.3892,5.3872,5.3861,5.3841,5.3822,5.3159,5.275,5.363,5.3097,5.2438,5.248,5.2441,5.1876,5.0192,4.9705,4.925,4.8456,4.7976,4.8289,4.9848,4.9258,4.8357,4.7462,4.6639,4.5775,4.4941,4.4858,4.453,4.378,4.4473,4.4895,4.4895,4.4895,4.4781,4.4511,4.4485,4.4333,4.4005,4.4005,4.4005,4.4005,4.3968,4.3095,5.3174,5.3797,5.4893,5.7721,5.8842,5.9872,6.2186,6.3359,6.3643,6.251,6.1834,6.0912,5.918,5.9128,5.9717,6.0812,6.2432,6.3865,6.4717,6.457,6.3126,5.9724,5.9516,5.8894,5.6913,5.9302,6.1691,6.342,6.408,6.476,6.5596,6.6198,6.6221,6.5623,6.5319,6.4588,6.3424,6.3068,6.2488,6.1654,6.1221,6.0565,5.9776,5.9921,5.9823,5.9562,6.0143,5.9749,5.8597,5.7465,5.6665,5.6059,5.5201,5.4869,5.4947,5.5465,5.5655,5.5728,5.6296,5.6503,5.6492,5.6511,5.6503,5.6444,5.6152,5.6054,5.5996,5.5704,5.5626,5.5489,5.4905,5.4768,5.4613,5.4028,5.3229,5.2831,5.3705,5.2762,5.1916,5.2489,5.2138,5.1546,5.0961,5.0677,5.0345,4.9843,4.8658,4.7986,4.8479,4.8732,4.8522,4.7613,4.7197,4.6424,4.5029,4.4905,4.4558,4.3742,4.4454,4.4895,4.4895,4.4819,4.4662,4.4492,4.441,4.4259,4.4005,4.4005,4.4005,4.3986,4.3441,4.2637,5.4838,5.6219,5.7929,6.0409,6.1478,6.2293,6.3673,6.4391,6.4042,6.1478,6.0215,5.8972,5.7029,5.6408,5.6758,5.8467,5.9943,6.1497,6.3284,6.2934,6.1614,5.9244,5.8836,5.8001,5.6117,5.7923,6.004,6.208,6.3323,6.4352,6.5168,6.6023,6.6237,6.5693,6.5355,6.4504,6.3088,6.3003,6.2543,6.1724,6.0689,6.0192,6.0206,6.0331,5.9917,5.9124,5.969,5.9124,5.768,5.6255,5.5337,5.4771,5.4225,5.401,5.4147,5.5245,5.5664,5.5736,5.6303,5.6496,5.6492,5.6511,5.6503,5.6503,5.6503,5.6503,5.6503,5.6503,5.6503,5.6366,5.5801,5.5665,5.5528,5.4963,5.439,5.4156,5.4702,5.3942,5.3318,5.3883,5.3552,5.3057,5.2745,5.2224,5.1727,5.1362,4.9582,4.8353,4.8542,4.8979,4.9034,4.8416,4.8048,4.7178,4.5521,4.5076,4.4414,4.3326,4.4013,4.4473,4.4473,4.4643,4.4682,4.4493,4.4434,4.4259,4.4005,4.4005,4.4005,4.3986,4.315,4.2372,5.7352,5.9651,6.1808,6.2682,6.4061,6.4974,6.4119,6.3867,6.3051,6.039,5.7845,5.5825,0.0,0.0,5.4096,5.5942,5.7029,5.8855,6.2293,6.004,5.8894,0.0,0.0,0.0,0.0,0.0,5.8855,6.1283,6.2993,6.4294,6.5149,6.6023,6.6489,6.6431,6.5604,6.4718,6.3845,6.3735,6.3255,6.2422,6.0919,6.0223,6.0275,6.0303,5.9881,5.9104,5.9046,5.8538,5.7543,5.5083,5.4068,5.4068,5.4029,5.401,5.4181,5.5826,5.6439,5.6439,5.6476,5.6488,5.6508,5.6492,5.6503,5.6503,5.6503,5.6503,5.6503,5.6503,5.6503,5.6503,5.6483,5.6483,5.6483,5.6483,5.6483,5.6483,5.6483,5.6483,5.6483,5.6483,5.6503,5.623,5.5392,5.4301,5.3372,5.2946,5.0803,4.9423,4.9982,4.9939,4.986,4.9792,4.917,4.8067,4.6391,4.5504,4.4319,4.2616,4.3307,4.3767,4.3761,4.4492,4.478,4.4507,4.4495,4.4333,4.4005,4.4005,4.3986,4.3931,4.3095,4.2296,5.9951,6.2288,6.445,6.5304,6.5362,6.4819,6.3362,6.2022,6.0176,5.6952,5.4757,5.2931,0.0,0.0,0.0,5.4854,5.7107,0.0,6.3187,6.3983,0.0,6.2527,0.0,6.1361,5.9632,6.0642,0.0,6.2313,6.2779,6.3673,6.5129,6.6023,6.6198,6.5557,6.4726,6.3891,6.3017,6.2342,6.188,6.1597,6.0701,6.0592,6.1124,5.9954,5.9319,5.9065,5.8402,5.768,5.6801,5.5493,5.4943,5.4836,5.4231,5.3967,5.4053,5.5133,5.5528,5.5619,5.6266,5.6492,5.6492,5.6511,5.6503,5.6503,5.6503,5.6503,5.6503,5.6503,5.6503,5.6474,5.6378,5.6339,5.6347,5.6288,5.6269,5.6269,5.6269,5.6308,5.6347,5.6347,5.6425,5.6386,5.6015,5.5574,5.4976,5.4129,5.2266,5.055,4.9366,4.8612,4.8185,4.8048,4.8954,4.8916,4.7238,4.6898,4.605,4.4357,4.4475,4.4577,4.4586,4.4681,4.4669,4.4497,4.4408,4.424,4.4005,4.4005,4.3695,4.3095,4.2292,4.1464,6.321,6.5537,6.7422,6.7189,6.647,6.5173,6.2682,6.0506,5.7923,5.4116,5.2251,5.0891,4.9571,4.9027,4.9765,0.0,0.0,0.0,6.1186,6.2857,6.3711,0.0,6.3925,0.0,6.1944,6.2701,6.342,6.377,6.3809,6.4216,6.5149,6.6023,6.6275,6.579,6.4955,6.3945,6.2701,6.1847,6.1386,6.1352,6.0988,6.1056,6.1451,6.0229,5.9456,5.9046,5.8187,5.7348,5.6528,5.5669,5.5255,5.5182,5.5123,5.4839,5.4626,5.5879,5.6106,5.5845,5.6336,5.6503,5.6503,5.6503,5.6503,5.6503,5.6503,5.6455,5.6417,5.6417,5.6398,5.6358,5.6278,5.6269,5.625,5.6212,5.62,5.62,5.6239,5.6278,5.6314,5.6368,5.6444,5.6425,5.6191,5.6005,5.5537,5.4511,5.2469,5.052,4.9121,4.849,4.8117,4.7972,4.9132,4.9378,4.8067,4.7617,4.667,4.5,4.4886,4.4744,4.4397,4.4624,4.4724,4.4586,4.4448,4.4296,4.4116,4.3695,4.3256,4.2767,4.1612,4.0828,6.6478,6.8708,7.0129,6.8319,6.6977,6.5155,6.1686,5.8661,5.5514,5.1785,5.0231,4.9357,4.8716,4.7978,4.8327,5.095,0.0,5.4116,5.8525,5.9904,6.1672,6.4993,6.476,6.4333,6.4333,6.4333,6.4624,6.5324,6.5382,6.5382,6.5382,6.6101,6.6392,6.6178,6.544,6.4236,6.2546,6.1788,6.14,6.14,6.1463,6.1447,6.1315,6.0561,5.9749,5.889,5.8011,5.7231,5.6547,5.5786,5.5426,5.5449,5.6191,5.6101,5.5698,5.7108,5.7217,5.6644,5.653,5.6503,5.6503,5.6503,5.6503,5.6503,5.6483,5.6388,5.6308,5.6278,5.6244,5.6207,5.6193,5.62,5.6174,5.6178,5.6167,5.6186,5.6244,5.6259,5.6325,5.6475,5.6503,5.6425,5.6191,5.592,5.5411,5.447,5.2005,4.9954,4.9097,4.8846,4.8688,4.8537,4.9359,4.9633,4.8916,4.8067,4.6895,4.5325,4.5122,4.47,4.3875,4.453,4.4838,4.4662,4.4552,4.437,4.4098,4.3237,4.2706,4.2446,4.1053,4.0328,6.8389,7.0001,7.0833,6.8423,6.5586,6.2482,5.903,5.4621,0.0,0.0,4.8852,4.792,4.8502,4.8483,4.9202,5.1785,5.2912,5.5223,6.0234,6.1711,6.3245,0.0,6.6159,6.6062,6.6062,6.6062,0.0,6.6256,6.6275,6.6275,6.6275,6.6431,6.5868,6.4469,6.4294,6.3381,6.1652,6.1478,6.14,6.14,6.1463,6.1154,6.0471,5.9682,5.8851,5.7972,5.7153,5.6723,5.6586,5.645,5.6338,5.629,5.6446,5.6822,5.7221,5.6862,5.7057,5.7407,5.6725,5.6503,5.6503,5.6503,5.6503,5.6483,5.6378,5.6319,5.6278,5.6232,5.6207,5.6181,5.6126,5.6116,5.6096,5.6046,5.6031,5.6051,5.6051,5.6149,5.6271,5.6464,5.6503,5.6483,5.6444,5.5488,5.4668,5.4498,5.1992,4.9824,4.8943,4.8228,4.7802,4.7708,4.901,4.9841,4.9709,4.8935,4.8037,4.7046,4.6335,4.5607,4.4743,4.4838,4.4781,4.453,4.4512,4.4008,4.3058,4.2878,4.2106,4.0803,4.0533,4.0002,6.9974,7.1038,7.1038,6.8492,6.4947,6.1162,5.7703,0.0,0.0,0.0,4.7881,4.7434,4.7842,4.755,0.0,5.0076,5.1532,5.3727,5.7535,6.0351,0.0,6.4955,6.5965,6.6508,6.6508,6.6508,6.6508,6.6508,6.6508,6.6508,6.6508,6.6508,6.5732,6.4042,6.4003,6.3168,6.1419,6.14,6.1194,6.0783,6.0834,6.044,5.9659,5.8819,5.8207,5.7758,5.6957,5.6606,5.6606,5.6558,5.6523,5.6543,5.6998,5.7139,5.7068,5.7107,5.7107,5.7009,5.6619,5.6503,5.6503,5.6503,5.6446,5.6388,5.6319,5.6244,5.6181,5.6174,5.6132,5.6087,5.6059,5.6052,5.6033,5.601,5.6031,5.607,5.6109,5.6188,5.6288,5.6464,5.6503,5.6483,5.6405,5.5364,5.4378,5.3913,5.1732,4.967,4.8362,4.78,4.7511,4.7462,4.8916,4.9898,4.9898,4.9557,4.8764,4.7492,4.7043,4.6239,4.4952,4.4895,4.4819,4.4605,4.4135,4.3538,4.2909,4.1987,4.1165,4.0384,3.9928,3.9482,7.0742,7.1534,7.1009,6.8267,6.437,6.0293,5.6809,5.2562,0.0,4.7589,4.7143,4.7026,4.7026,4.6463,4.6502,0.0,4.9473,5.1319,5.4058,5.7826,6.1089,0.0,6.5091,0.0,6.6489,6.6508,6.6508,6.6508,6.6508,6.6508,6.6508,6.6508,6.5732,6.4042,6.4003,6.3168,6.1419,6.1206,6.0903,6.0477,6.0165,5.969,5.9043,5.8186,5.7699,5.748,5.6855,5.6582,5.6577,5.6528,5.6491,5.6576,5.7244,5.7209,5.6814,5.7262,5.7145,5.6717,5.6561,5.6366,5.6202,5.6202,5.6135,5.6075,5.6239,5.6078,5.5889,5.6013,5.6043,5.6012,5.6012,5.6012,5.6012,5.6012,5.6051,5.6109,5.6167,5.6226,5.6308,5.6425,5.6464,5.6464,5.6308,5.5333,5.433,5.3555,5.1882,5.0134,4.8567,4.8327,4.8188,4.7958,4.8962,4.9709,4.9879,4.9898,4.9189,4.7511,4.741,4.6643,4.4971,4.4895,4.4819,4.4643,4.3932,4.3287,4.2693,4.1324,4.0486,4.0095,3.9407,3.9101,6.9962,7.1012,7.0817,6.7456,6.3396,5.9335,5.5903,0.0,4.7492,4.7337,4.6676,4.6113,4.6113,4.6055,4.6307,4.7259,4.755,4.8813,5.2173,5.5009,5.7981,6.1245,0.0,0.0,6.6431,6.6508,6.6508,6.6508,6.6508,6.6508,6.6508,6.6508,6.5732,6.4042,6.4003,6.3168,6.1419,6.0604,6.0611,6.1354,5.9833,5.9084,5.8984,5.8167,5.7363,5.6626,5.6548,5.6503,5.6504,5.6504,5.6491,5.6515,5.6593,5.7026,5.7516,5.6853,5.7029,5.7496,5.6756,5.593,5.5229,5.5229,5.5229,5.5344,5.6006,5.565,5.5157,5.5813,5.5993,5.6012,5.6012,5.6012,5.6012,5.6012,5.6012,5.6031,5.6089,5.6168,5.621,5.623,5.6386,5.6464,5.6308,5.5295,5.4451,5.4306,5.3143,5.195,5.1003,5.085,5.055,4.9777,4.9162,4.9113,4.9841,4.9898,4.9189,4.7511,4.741,4.6643,4.4971,4.4895,4.4781,4.4511,4.4429,4.3502,4.1736,4.1577,4.0691,3.9212,3.9138,3.9101,6.7266,6.9034,6.9267,6.5848,6.1769,5.769,5.4213,0.0,4.6521,4.6521,4.623,4.5997,4.5997,4.5997,4.6288,4.7162,4.7298,4.8133,5.0561,5.2659,5.5417,5.938,6.1672,0.0,0.0,6.6508,6.6508,6.6508,6.6508,6.6275,6.5751,6.5732,6.5188,6.4042,6.3498,6.2624,6.1419,6.0545,6.0063,5.9983,5.8797,5.7979,5.7547,5.7219,5.687,5.6509,5.6509,5.6497,5.6504,5.6491,5.6503,5.6496,5.65,5.6706,5.6931,5.6619,5.6641,5.6729,5.593,5.5394,5.4961,5.4436,5.4225,5.4343,5.517,5.5501,5.5617,5.5915,5.6012,5.6012,5.6012,5.6012,5.6012,5.6012,5.6012,5.6031,5.6089,5.6126,5.6149,5.6193,5.6267,5.6304,5.6251,5.5333,5.4556,5.4373,5.3373,5.2115,5.061,4.9977,4.9568,4.9219,4.9318,4.9557,4.986,4.9898,4.9189,4.7511,4.789,4.72,4.499,4.5393,4.5355,4.4624,4.3567,4.2557,4.1728,4.0626,3.9751,3.9101,3.9101,3.9101,6.3842,6.6077,6.6839,6.3634,6.0001,5.6311,0.0,0.0,4.6307,4.6055,4.5997,4.5997,4.5997,4.5997,4.6113,4.6502,4.6754,4.7337,4.8561,5.0425,5.297,0.0,0.0,6.0856,6.4275,6.5518,6.612,6.612,6.6353,6.612,6.5246,6.4741,6.4197,6.3634,6.2779,6.1905,6.1031,5.9924,5.924,5.8983,5.7851,5.7184,5.6957,5.6699,5.6533,5.6497,5.6497,5.6504,5.6503,5.6488,5.6508,5.6508,5.6492,5.6503,5.6503,5.6455,5.6388,5.6211,5.5625,5.5065,5.4479,5.3877,5.3643,5.3669,5.4308,5.5036,5.5702,5.5935,5.6012,5.6012,5.6012,5.6012,5.6012,5.6012,5.6012,5.6012,5.607,5.6089,5.6098,5.6146,5.617,5.6191,5.6166,5.5567,5.4982,5.4713,5.4036,5.3021,5.1571,5.0684,5.0185,5.0168,5.0236,5.0172,4.9917,4.969,4.9029,4.7859,4.8371,4.7656,4.5395,4.5867,4.574,4.4724,4.3221,4.2244,4.1865,4.029,3.9407,3.9157,3.912,3.9101,5.9794,6.2121,6.342,6.0798,5.8214,5.5417,0.0,4.9182,4.7045,4.6171,4.5997,4.5997,4.5997,4.5997,4.5744,4.4948,4.5491,4.6016,4.6035,4.8269,5.0561,0.0,0.0,5.6408,5.9827,6.3226,6.5207,6.5207,6.6003,6.612,6.5246,6.3634,6.2721,6.2701,6.1866,6.1011,6.0118,5.8447,5.8091,5.8987,5.725,5.6891,5.7758,5.6885,5.6497,5.6504,5.6503,5.65,5.6503,5.6503,5.6503,5.6503,5.6503,5.6503,5.6483,5.6349,5.6289,5.6278,5.6219,5.5067,5.3615,5.3596,5.3557,5.3498,5.3498,5.4116,5.4987,5.578,5.6012,5.6012,5.6012,5.6012,5.6012,5.6012,5.6012,5.6012,5.6012,5.6051,5.6089,5.6012,5.6109,5.6186,5.6109,5.6031,5.5896,5.5627,5.5408,5.5148,5.4882,5.4145,5.3644,5.3651,5.217,5.0825,4.9982,4.917,4.8708,4.8708,4.8675,4.7954,4.624,4.6196,4.574,4.4724,4.3894,4.2982,4.1997,4.1036,4.016,3.9296,3.9157,3.9101,5.5356,5.7283,5.8323,5.6299,5.4294,5.223,4.9994,4.7466,4.5511,4.5239,4.5181,4.5181,4.5181,4.5627,4.6113,4.6443,4.621,4.621,0.0,0.0,0.0,5.3766,5.8292,6.1788,6.3439,6.4061,6.4605,6.5168,6.4955,6.4158,6.2682,6.2099,6.1808,6.1808,6.039,5.9517,5.9268,5.8169,5.779,5.8178,5.7028,5.6659,5.6977,5.665,5.6497,5.6504,5.6503,5.65,5.6503,5.6503,5.6503,5.6503,5.6503,5.6503,5.6483,5.6349,5.6267,5.6142,5.5533,5.4924,5.432,5.3739,5.3936,5.4387,5.4387,5.4967,5.5664,5.5935,5.6012,5.6012,5.6012,5.6012,5.6012,5.6012,5.6012,5.6012,5.6012,5.6031,5.6031,5.6012,5.6031,5.607,5.6051,5.6012,5.5954,5.5743,5.5566,5.5129,5.4322,5.3394,5.2817,5.2817,5.0289,4.9192,5.066,4.9997,4.9284,4.8726,4.8704,4.7931,4.6259,4.6196,4.5778,4.4857,4.3359,4.2446,4.2111,4.0505,3.9508,3.9157,3.912,3.9101,0.0,5.3163,5.4147,5.2726,5.1297,0.0,4.8117,4.6445,4.5064,4.4443,4.4812,4.5161,4.4851,4.5453,4.6074,4.6327,4.5899,4.5744,0.0,0.0,0.0,5.3553,0.0,0.0,6.2274,6.3051,6.3711,6.4216,6.3789,6.2896,6.1478,6.0778,6.0268,5.9969,5.8912,5.8382,5.8403,5.756,5.7202,5.7305,5.6758,5.6518,5.6558,5.6523,5.6511,5.6491,5.6496,5.65,0.0,5.6503,5.6503,5.6503,5.6503,5.6474,5.6417,5.6297,5.6219,5.6082,5.5505,5.5094,5.4716,5.4175,5.4368,5.4851,5.5161,5.5606,5.6012,5.6012,5.6012,5.6012,5.6012,5.6012,5.6012,5.6012,5.6012,5.6012,5.6012,5.6012,5.6012,5.6012,5.6012,5.6012,5.6012,5.6031,5.5973,5.5705,5.5605,5.5236,5.4371,5.3743,5.324,5.2927,5.0719,4.9816,5.1084,4.9815,4.8991,4.9151,4.8859,4.8083,4.6713,4.636,4.5797,4.4914,4.3472,4.2574,4.2183,4.0245,3.9233,3.9101,3.9101,3.9101,0.0,4.9763,5.0747,4.9937,4.9125,0.0,4.6463,4.5998,0.0,4.3918,4.4773,4.5589,4.4851,4.5375,4.5666,4.4928,4.4792,4.4812,0.0,4.654,0.0,0.0,5.5747,5.7858,5.78,6.0656,6.256,6.2604,6.2502,6.2055,6.1181,5.9588,5.8348,5.7535,5.7524,5.7513,5.7513,5.6782,5.6432,5.6504,5.6504,5.6495,5.6509,5.6491,5.6491,5.6496,5.6492,5.6503,5.6503,5.6503,5.6503,5.6503,5.6483,5.6417,5.6278,5.6219,5.6141,5.6087,5.6026,5.547,5.4793,5.4793,5.4832,5.5026,5.578,5.6012,5.6012,5.6012,5.6012,5.6012,5.6012,5.6012,5.6012,5.6012,5.6012,5.6012,5.6012,5.6012,5.6012,5.6012,5.6012,5.6012,5.6012,5.6051,5.5954,5.5565,5.5552,5.5416,5.4981,5.4863,5.453,5.3781,5.2813,5.1945,5.1274,4.8965,4.8245,4.9803,4.9094,4.8249,4.7428,4.6567,4.574,4.4914,4.4051,4.309,4.2025,4.0188,3.9259,3.9101,3.9101,3.9101,4.6757,0.0,4.7411,4.7156,4.693,4.666,0.0,4.557,4.4967,4.4579,0.0,4.4035,4.384,4.4501,4.5025,4.4831,4.4792,4.5006,4.5627,0.0,0.0,5.5127,5.8415,6.0268,5.9639,6.0308,6.1036,6.1652,6.0519,5.9406,5.8549,5.8101,5.7505,5.6698,5.6738,5.6769,5.6769,5.6579,5.6503,5.6582,5.6582,5.6552,5.6509,5.6491,5.6491,5.6496,5.6492,5.6503,5.6503,5.6503,5.6503,5.6483,5.6388,5.6319,5.6297,5.6174,5.6117,5.6087,5.6026,5.547,5.4793,5.4793,5.5219,5.576,5.5935,5.6012,5.6012,5.6012,5.6012,5.6012,5.6012,5.6012,5.6012,5.6012,5.6012,5.6012,5.6012,5.6012,5.6012,5.6012,5.6012,5.6012,5.6012,5.6012,5.5959,5.5761,5.5615,5.5426,5.5158,5.4454,5.3913,5.3724,5.1755,5.0684,5.1152,5.0047,4.9473,4.9879,4.851,4.7591,4.7409,4.6011,4.5103,4.4895,4.3453,4.1902,4.0293,3.9713,3.9389,3.9259,3.9138,3.9101,4.6296,4.63,4.6277,4.6216,4.6203,4.6072,4.5604,0.0,0.0,0.0,0.0,4.3976,4.3569,4.3899,4.419,4.419,4.421,0.0,0.0,0.0,5.3485,5.6008,5.8315,5.9679,5.9607,5.9591,5.9786,6.0213,5.9053,5.7941,5.7089,5.705,5.6494,5.5284,5.6054,5.6503,5.6503,5.6497,5.652,5.6548,5.6548,5.6542,5.6504,5.6491,5.6496,5.648,5.6082,5.5899,5.586,5.547,5.5314,5.5295,5.5181,5.513,5.5097,5.4982,5.5195,5.5439,5.5004,5.4561,5.4271,5.4677,5.5084,5.5528,5.5896,5.6012,5.6012,5.6012,5.6012,5.6012,5.6012,5.6012,5.6012,5.6012,5.6012,5.6012,5.6012,5.6012,5.6012,5.6012,5.6012,5.6012,5.6012,5.6031,5.5962,5.5696,5.5596,5.5424,5.5091,5.4587,5.3962,5.3186,5.1868,5.0947,5.0635,5.0172,4.9898,4.9898,4.834,4.7401,4.739,4.5797,4.4743,4.4378,4.3014,4.1628,4.0297,3.9758,3.9444,3.9314,3.9212,3.9157,4.63,4.63,4.6277,4.6216,4.6203,4.5955,4.5012,0.0,0.0,0.0,0.0,0.0,0.0,4.3432,0.0,0.0,0.0,0.0,4.8545,5.0509,5.2715,5.5755,5.7161,5.805,5.8476,5.8635,5.8716,5.8697,5.7784,5.6944,5.6256,5.608,5.5368,5.3941,5.5325,5.6107,5.6105,5.6372,5.6439,5.6309,5.6446,5.6432,5.632,5.6437,5.6422,5.6249,5.5528,5.5119,5.4944,5.4203,5.3883,5.3875,5.3808,5.3736,5.3676,5.3596,5.4103,5.4697,5.3942,5.3691,5.3826,5.4561,5.4871,5.5103,5.5799,5.6012,5.6012,5.6012,5.6012,5.6012,5.6012,5.6012,5.6012,5.6012,5.6012,5.6012,5.6012,5.6012,5.6012,5.6012,5.6012,5.6012,5.6012,5.6051,5.5954,5.555,5.5547,5.5367,5.4806,5.4587,5.3916,5.237,5.2094,5.1448,5.0039,4.9898,4.9898,4.9898,4.834,4.7288,4.7048,4.5664,4.4511,4.3723,4.2724,4.1819,4.0997,4.0006,3.9439,3.9293,3.9286,3.9194,4.63,4.63,4.6277,4.6216,4.6203,4.5955,4.5012,0.0,0.0,0.0,0.0,0.0,0.0,4.3034,4.3491,0.0,0.0,4.7762,0.0,0.0,5.3865,5.5132,5.7313,5.8209,5.6913,5.7441,5.7851,5.7804,5.6406,5.5504,5.5388,5.4685,5.4169,5.3913,5.4162,5.4293,5.43,5.5763,5.6134,5.5412,5.6153,5.6101,5.5424,5.6164,5.609,5.5392,5.5256,5.4788,5.4087,5.397,5.3866,5.3808,5.3736,5.3663,5.3615,5.3542,5.4056,5.4774,5.4658,5.46,5.4619,5.4755,5.5258,5.5838,5.5973,5.6012,5.6012,5.6012,5.6012,5.6012,5.6012,5.6012,5.6012,5.6012,5.6012,5.6012,5.6012,5.6012,5.6012,5.6012,5.6012,5.6012,5.6012,5.6012,5.5915,5.555,5.5509,5.511,5.4008,5.3259,5.2405,5.1469,5.0714,5.0172,4.9917,4.9898,4.9898,4.9898,4.834,4.6743,4.5355,4.5028,4.4511,4.3723,4.2822,4.1936,4.0997,4.0006,3.9448,3.9301,3.9186,3.912,4.63,4.63,4.63,4.6269,4.6231,4.6079,4.5655,0.0,0.0,0.0,0.0,0.0,0.0,0.0,4.3364,4.4738,0.0,4.8844,5.0947,5.2359,5.3652,5.4998,5.6189,5.6595,5.5833,5.6114,5.6133,5.5642,5.4918,5.4284,5.3826,5.3865,5.3459,5.2513,5.341,5.3676,5.3206,5.4461,5.4897,5.4507,5.489,5.489,5.4512,5.4921,5.4874,5.4476,5.4009,5.358,5.3171,5.2684,5.2464,5.2387,5.2313,5.2253,5.2288,5.3182,5.3459,5.3536,5.4465,5.4484,5.4175,5.4658,5.5045,5.5432,5.5877,5.6012,5.6012,5.6012,5.6012,5.6012,5.6012,5.6012,5.6012,5.6012,5.6012,5.6012,5.6012,5.6012,5.6012,5.6012,5.6012,5.6012,5.6051,5.5993,5.5857,5.5589,5.547,5.4977,5.3857,5.3347,5.2618,5.1339,5.0827,5.0399,4.9936,4.9898,4.9508,4.8612,4.7846,4.6639,4.4971,4.4895,4.4297,4.3013,4.2612,4.1749,4.0407,3.9943,3.9608,3.9414,3.9349,3.9259,4.6046,4.6144,4.6202,4.5792,4.5952,4.6142,4.5943,0.0,0.0,0.0,0.0,0.0,0.0,4.269,0.0,4.6122,4.8084,4.9902,5.1581,5.2632,5.3698,5.5033,5.5387,5.534,5.4929,5.5085,5.4843,5.397,5.3716,5.3296,5.2648,5.3038,5.2687,5.1342,5.259,5.2972,5.2294,5.2948,5.3377,5.3599,5.3794,5.3794,5.3599,5.3814,5.3794,5.356,5.2898,5.2489,5.2236,5.1573,5.1248,5.1171,5.1117,5.1056,5.1155,5.2659,5.2763,5.2453,5.4194,5.4368,5.3942,5.4793,5.5084,5.52,5.5818,5.6012,5.6012,5.6012,5.6012,5.6012,5.6012,5.6012,5.6012,5.6012,5.6012,5.6012,5.6012,5.6012,5.6012,5.6012,5.6012,5.6012,5.6051,5.5962,5.5827,5.5576,5.5409,5.4882,5.36,5.3433,5.2775,5.1098,5.0882,5.0635,4.9955,4.9898,4.9193,4.7504,4.7029,4.6239,4.4952,4.4895,4.4297,4.3013,4.2815,4.1949,4.0444,4.0265,3.9922,3.9504,3.9508,3.937,4.5304,4.5675,4.5909,4.4289,4.5055,0.0,4.5172,4.4955,0.0,4.3858,0.0,0.0,0.0,4.3661,4.5304,4.7108,4.949,5.1717,5.3462,5.4463,5.506,5.5194,5.5907,5.5771,5.4145,5.473,5.4846,5.397,5.3151,5.2664,5.2606,5.1885,5.1437,5.13,5.1417,5.1456,5.1398,5.1394,5.1823,5.2703,5.3522,5.3483,5.2723,5.3541,5.3463,5.2684,5.2625,5.2138,5.1398,5.1339,5.123,5.1105,5.1105,5.1017,5.1022,5.195,5.224,5.2453,5.4194,5.4755,5.4832,5.5644,5.5915,5.5915,5.5993,5.6012,5.6012,5.6012,5.6012,5.6012,5.6012,5.6012,5.6012,5.6012,5.6012,5.6012,5.6012,5.6012,5.6012,5.6012,5.6012,5.5993,5.5935,5.5903,5.5786,5.5466,5.5398,5.475,5.2908,5.2599,5.195,5.0266,5.0039,4.9982,4.9898,4.9898,4.9193,4.7504,4.593,4.5028,4.4895,4.4895,4.4838,4.4724,4.3988,4.3102,4.2031,4.1282,4.0438,3.9501,3.95,3.9407,4.509,4.4836,4.4524,4.386,4.4188,0.0,0.0,4.5347,4.5026,4.5241,4.5242,0.0,0.0,0.0,4.6727,4.7386,5.0094,5.2344,5.2992,5.3841,5.4387,5.4398,5.4691,5.4418,5.321,5.3385,5.3229,5.2353,5.1938,5.1725,5.1725,5.1386,5.119,5.119,5.119,5.119,5.119,5.115,5.1325,5.1677,5.2038,5.2038,5.1677,5.2094,5.2065,5.1677,5.1707,5.1512,5.119,5.119,5.1117,5.103,5.099,5.0932,5.1022,5.1873,5.2202,5.2453,5.4194,5.4793,5.4929,5.5741,5.6012,5.6012,5.6012,5.6012,5.6012,5.6012,5.6012,5.6012,5.6012,5.6012,5.6012,5.6012,5.6012,5.6012,5.6012,5.6012,5.6012,5.6012,5.6012,5.5993,5.5915,5.5788,5.5651,5.5415,5.5279,5.4588,5.2824,5.252,5.1859,5.0255,5.002,4.9936,4.9898,4.9435,4.8659,4.7484,4.6822,4.6011,4.4933,4.4895,4.4643,4.4164,4.3317,4.2461,4.1581,4.0722,4.0044,3.9488,3.95,3.9387,4.4328,4.3938,4.3567,0.0,0.0,0.0,4.589,4.5831,4.5656,4.6534,4.6237,4.5721,4.5366,0.0,0.0,4.7455,5.0381,5.2606,5.2606,5.3346,5.3794,5.3522,5.3736,5.3435,5.2269,5.2405,5.2211,5.1297,5.1181,5.1161,5.1161,5.1128,5.1105,5.1105,5.1105,5.1105,5.1105,5.1081,5.1069,5.1069,5.1117,5.1128,5.1105,5.1201,5.1201,5.1105,5.115,5.1139,5.1105,5.1105,5.1069,5.099,5.0937,5.0906,5.0983,5.1563,5.195,5.2414,5.3884,5.4561,5.4929,5.5741,5.6012,5.6012,5.6012,5.6012,5.6012,5.6012,5.6012,5.6012,5.6012,5.6012,5.6012,5.6012,5.6012,5.6012,5.6012,5.6012,5.6012,5.6012,5.6012,5.5973,5.5838,5.5689,5.5443,5.4977,5.4809,5.4129,5.245,5.215,5.1601,5.019,4.999,4.9936,4.9898,4.9397,4.8586,4.7473,4.741,4.6643,4.4971,4.4895,4.4624,4.4089,4.3472,4.2791,4.1978,4.1124,4.0463,4.0044,3.9754,3.9472,4.2864,4.3021,0.0,0.0,0.0,0.0,4.589,4.63,4.6554,4.7432,4.6241,4.528,4.609,4.6239,4.6524,4.7377,5.0374,5.2586,5.2586,5.3327,5.356,5.2684,5.3346,5.3174,5.1366,5.1989,5.2105,5.1163,5.1105,5.1105,5.1105,5.1105,5.1105,5.1105,5.1086,5.1086,5.1105,5.1011,5.1004,5.1004,5.1004,5.103,5.1105,5.1105,5.1105,5.1105,5.1105,5.1105,5.1105,5.1105,5.1056,5.099,5.0937,5.0906,5.0906,5.0925,5.1447,5.2298,5.3188,5.4078,5.4909,5.5722,5.5993,5.6012,5.5993,5.5993,5.6012,5.6012,5.6012,5.6012,5.6012,5.6012,5.6012,5.6012,5.6012,5.6012,5.6012,5.5993,5.5993,5.5993,5.5993,5.5935,5.5664,5.561,5.5215,5.4065,5.3905,5.3296,5.1618,5.1343,5.0937,4.9992,4.9905,4.9898,4.9898,4.9898,4.9189,4.7511,4.741,4.6643,4.4971,4.4895,4.4895,4.4895,4.4895,4.4512,4.3697,4.2816,4.1993,4.1168,4.0308,3.9779,4.2533,4.2142,0.0,4.1986,0.0,0.0,0.0,4.6276,0.0,0.0,4.8453,4.7754,4.7981,4.8496,4.8763,4.8464,5.0256,5.169,5.169,5.188,5.1891,5.1638,5.1804,5.1714,5.1167,5.1361,5.14,5.1125,5.1056,5.103,5.103,5.0976,5.0947,5.0947,5.0419,5.04,5.0947,5.039,5.0085,5.0085,5.0085,5.039,5.0961,5.1056,5.1056,5.0961,5.1004,5.1004,5.0947,5.0947,5.0952,5.0937,5.0906,5.0906,5.0983,5.1583,5.1235,5.0828,5.3498,5.3768,5.3207,5.4677,5.5548,5.5896,5.5335,5.5548,5.6012,5.6012,5.6012,5.6012,5.6012,5.6012,5.6012,5.6012,5.6012,5.6012,5.6012,5.6044,5.6083,5.6083,5.6112,5.6084,5.5918,5.5765,5.5329,5.4341,5.4059,5.3351,5.1608,5.0855,5.0323,4.9955,4.9933,4.9936,4.9898,4.9898,4.9189,4.7511,4.741,4.6643,4.4971,4.4895,4.4895,4.4895,4.4359,4.3942,4.3706,4.2267,4.1382,4.1035,4.0155,3.9665,4.1978,4.1492,0.0,4.2182,4.291,4.4062,4.666,0.0,0.0,0.0,4.9622,4.8903,4.9211,4.9406,4.9471,4.9294,5.0388,5.1256,5.1256,5.1191,5.1161,5.1161,5.1128,5.1093,5.1069,5.1069,5.1056,5.1017,5.0976,5.0811,5.0448,5.0732,5.0584,4.9888,4.9734,4.9734,4.9869,4.9386,4.9135,4.9138,4.9135,4.9386,4.9885,5.0336,5.0666,5.0887,5.0603,5.0468,5.0403,5.0055,4.9919,4.9919,4.9919,4.9919,4.9977,5.05,5.0055,4.9533,5.195,5.2298,5.1912,5.3304,5.4329,5.4929,5.4426,5.4619,5.5006,5.5006,5.5009,5.5009,5.5009,5.526,5.5589,5.5935,5.6012,5.6012,5.6012,5.6052,5.6093,5.6093,5.6142,5.6132,5.5913,5.548,5.4823,5.3774,5.2962,5.2075,5.1022,5.0399,5.0077,5.0001,5.0039,5.002,4.9936,4.9936,4.9208,4.7511,4.741,4.6643,4.4971,4.4895,4.4895,4.4895,4.4416,4.4183,4.4164,4.2497,4.1638,4.1535,4.0331,3.9719,4.1323,0.0,0.0,4.23,4.3896,0.0,4.8267,4.9536,5.039,5.105,0.0,4.9247,4.9971,4.9523,4.9262,4.9995,5.0713,5.1211,5.1181,5.107,5.0977,5.0977,5.0977,5.094,5.0893,5.0874,5.0865,5.079,5.0716,5.0314,4.9528,5.0243,4.9953,4.835,4.8987,4.9026,4.8311,4.8214,4.8179,4.8169,4.8179,4.8176,4.8214,4.915,4.9977,5.0635,4.99,4.9591,4.9513,4.874,4.8392,4.8392,4.8392,4.8392,4.8411,4.8488,4.8411,4.843,4.9455,5.019,5.0828,5.1679,5.2608,5.3362,5.3285,5.3362,5.3498,5.3517,5.3503,5.3505,5.3505,5.4083,5.4873,5.5606,5.5838,5.5877,5.5913,5.5896,5.5909,5.5996,5.5997,5.5913,5.5667,5.4885,5.3899,5.2704,5.1152,5.0092,5.0092,5.0104,5.0104,5.0104,5.0104,5.0085,5.0009,4.9944,4.9189,4.7511,4.7327,4.6567,4.4971,4.4895,4.4895,4.4895,4.4895,4.4895,4.4895,4.3302,4.2479,4.2357,4.077,3.9908,4.1142,4.1597,0.0,0.0,4.5701,4.8118,4.8671,4.9932,5.086,5.0444,5.0575,5.0823,5.0989,5.0879,5.0794,5.0918,5.1103,5.1171,5.1128,5.0525,5.008,5.008,5.0026,5.0003,4.9988,4.9939,4.9888,4.9872,4.9241,4.8781,4.8591,4.8764,4.8687,4.8301,4.7819,4.78,4.8301,4.7607,4.7279,4.7282,4.7279,4.7279,4.7298,4.8245,4.8778,4.8933,4.8759,4.8682,4.8662,4.8488,4.8392,4.8392,4.8392,4.8392,4.8488,4.9165,4.8546,4.7695,4.9881,4.99,4.9088,4.9958,5.1254,5.2337,5.1679,5.2414,5.3498,5.3498,5.3498,5.35,5.35,5.3633,5.3807,5.4,5.4559,5.5087,5.519,5.4696,5.4422,5.5169,5.481,5.4547,5.4994,5.4257,5.3221,5.2007,5.0875,5.0183,5.0193,5.0111,5.0092,5.0092,5.0092,5.0073,5.0073,4.9454,4.8632,4.7548,4.6828,4.6011,4.4933,4.4895,4.4895,4.4895,4.4895,4.4895,4.4895,4.3918,4.3052,4.2376,4.138,4.0539,4.1092,0.0,0.0,4.3852,0.0,4.8295,4.8697,4.9453,4.9932,4.9515,5.0065,5.0635,5.0636,5.0304,5.0168,5.0519,5.0195,4.9901,4.9865,4.9453,4.9127,4.9127,4.9098,4.9053,4.9019,4.9003,4.8987,4.8974,4.8552,4.8092,4.7651,4.8037,4.7882,4.7092,4.6979,4.6979,4.7053,4.661,4.6362,4.6345,4.6362,4.6378,4.6414,4.7754,4.8346,4.8323,4.7936,4.7777,4.7753,4.7328,4.7154,4.7154,4.7154,4.7154,4.7212,4.7676,4.725,4.667,4.8005,4.8159,4.785,4.8314,4.961,5.0925,5.0461,5.1235,5.226,5.226,5.226,5.226,5.226,5.255,5.2891,5.2913,5.3562,5.4211,5.4255,5.398,5.3836,5.4283,5.412,5.3942,5.4117,5.3256,5.2193,5.1147,5.055,5.0245,5.0245,5.0225,5.0206,5.0206,5.0206,5.0187,5.0149,4.9371,4.8504,4.7586,4.6727,4.5854,4.4971,4.4914,4.4895,4.4895,4.4895,4.4895,4.4895,4.3667,4.2834,4.2375,4.1567,4.0732,0.0,0.0,4.1863,4.4114,4.5988,0.0,4.8183,4.8585,4.8725,4.8506,4.9129,4.9693,4.9679,4.9128,4.8905,4.9551,4.9006,4.8503,4.847,4.8319,4.8179,4.8179,4.8179,4.8164,4.8099,4.8063,4.8067,4.8053,4.7921,4.748,4.6714,4.7369,4.7118,4.5731,4.6331,4.6273,4.5481,4.5461,4.5368,4.5163,4.5233,4.5247,4.5298,4.6744,4.7491,4.7616,4.6785,4.651,4.6598,4.5863,4.5664,4.58,4.58,4.5877,4.6013,4.5858,4.5896,4.5993,4.5838,4.6264,4.6883,4.6883,4.8043,4.9475,4.9475,5.0152,5.0906,5.0906,5.0906,5.0906,5.0906,5.1444,5.1993,5.2052,5.2576,5.3126,5.3286,5.3294,5.3285,5.3404,5.3516,5.3435,5.2948,5.2037,5.1128,5.0397,5.0302,5.0302,5.0302,5.0302,5.0302,5.0302,5.0187,5.0049,4.9992,4.9129,4.8238,4.7443,4.6578,4.577,4.5047,4.4952,4.4933,4.4933,4.4914,4.4895,4.4895,4.3515,4.2748,4.2583,4.1791,4.0937,0.0,0.0,4.2471,0.0,4.5092,4.6391,0.0,0.0,4.8477,0.0,4.8224,4.8847,4.8777,4.8699,4.8619,4.8677,4.8574,4.849,4.8421,4.7768,4.727,4.727,4.726,4.7283,4.7249,4.7166,4.7077,4.7097,4.6388,4.5911,4.5776,4.5873,4.5834,4.5622,4.5719,4.5372,4.4506,4.4487,4.4124,4.3431,4.3431,4.3448,4.3448,4.3679,4.4229,4.4963,4.4094,4.4152,4.4843,4.4718,4.5119,4.5795,4.5786,4.6264,4.6825,4.6071,4.6283,4.6825,4.6051,4.5877,4.5974,4.5974,4.7154,4.8566,4.8566,4.9668,5.0906,5.0906,5.0906,5.0906,5.0906,5.1029,5.115,5.1106,5.1261,5.1638,5.2466,5.2012,5.1701,5.2573,5.2531,5.2083,5.1273,5.0764,5.0417,5.0321,5.0302,5.0302,5.0302,5.0302,5.0302,5.0302,4.9686,4.9262,4.9243,4.7762,4.6771,4.6655,4.5772,4.5205,4.509,4.5066,4.5066,4.5066,4.4952,4.4895,4.4895,4.4662,4.4223,4.352,4.2642,4.181,4.05,4.0642,4.1144,0.0,4.3117,4.415,4.4637,4.5694,4.645,4.5998,4.6581,4.73,4.7682,4.7384,4.7229,4.7649,4.7307,4.6828,4.6341,4.5935,4.5529,4.5026,4.5385,4.563,4.5596,4.5976,4.6213,4.6159,4.5353,4.4874,4.4874,4.4432,4.4201,4.4201,4.4165,4.3955,4.3571,4.3534,4.3344,4.2998,4.3069,4.3069,4.3032,4.2569,4.2848,4.3682,4.3316,4.3385,4.3815,4.4293,4.4752,4.5172,4.5626,4.6032,4.6322,4.5935,4.6032,4.6322,4.5916,4.58,4.5814,4.5835,4.67,4.7727,4.7766,4.8639,4.9705,5.0162,5.0273,5.0273,5.0268,5.0308,5.0331,5.0287,4.9988,4.9947,5.0841,5.1097,5.1302,5.1782,5.1663,5.1337,5.0887,5.0623,5.0417,5.0321,4.9916,4.9629,4.9629,4.9205,4.8895,4.8895,4.859,4.8384,4.8356,4.7226,4.6498,4.6485,4.5642,4.5159,4.5144,4.5087,4.5049,4.5049,4.4986,4.4952,4.4952,4.4473,4.4061,4.3691,4.3308,4.2678,0.0,0.0,3.9637,4.029,4.1061,4.189,0.0,0.0,4.4272,4.4431,4.4958,4.5517,4.604,4.5822,4.577,4.6375,4.5722,4.4949,4.4349,4.4272,4.402,4.3349,4.3791,4.4148,4.4083,4.4669,4.5021,4.497,4.4355,4.3989,4.3989,4.3431,4.3104,4.3104,4.3032,4.29,4.267,4.2406,4.2256,4.2275,4.2381,4.2398,4.2343,4.1742,4.1813,4.2441,4.2441,4.2603,4.2946,4.3815,4.4327,4.4664,4.549,4.5935,4.609,4.5877,4.5935,4.609,4.5877,4.5814,4.5822,4.5873,4.6499,4.7241,4.7287,4.7908,4.8724,4.9341,4.9509,4.9497,4.9509,4.9666,4.9763,4.9548,4.9213,4.9129,4.9761,5.0412,5.0977,5.1245,5.1145,5.0917,5.0567,5.0363,5.0147,4.9729,4.9148,4.8785,4.877,4.8193,4.7812,4.7812,4.7598,4.7471,4.7465,4.6698,4.6199,4.6199,4.5585,4.522,4.522,4.5125,4.5084,4.5077,4.5048,4.5028,4.4971,4.434,4.4013,4.4013,4.3799,4.3336,0.0,3.8576,0.0,3.8624,3.9296,0.0,0.0,0.0,4.2649,4.3413,4.3607,4.3585,4.3505,4.4136,4.4678,4.4717,4.4001,4.3421,4.3363,4.3363,4.333,4.3225,4.3241,4.3235,4.3185,4.3214,4.322,4.322,4.3181,4.3162,4.3162,4.3124,4.3104,4.3104,4.3032,4.2612,4.1769,4.0931,4.053,4.053,4.06,4.0636,4.0636,4.0588,4.0585,4.0639,4.0639,4.1135,4.2048,4.2922,4.3762,4.4583,4.5457,4.6303,4.6922,4.609,4.6322,4.6902,4.609,4.5835,4.5905,4.5905,4.6535,4.7287,4.7298,4.7908,4.8608,4.8646,4.8666,4.8666,4.8654,4.9293,4.9703,4.8866,4.9303,4.9909,4.989,4.9987,5.0318,5.1145,5.1183,5.0792,4.9838,4.9512,4.9029,4.8092,4.7884,4.7865,4.7867,4.7831,4.7811,4.7811,4.7061,4.6562,4.6583,4.5814,4.5354,4.5354,4.5316,4.5277,4.5277,4.5277,4.5287,4.5285,4.5223,4.5085,4.4914,4.4857,4.4838,4.4819,4.407,4.3686,0.0,0.0,0.0,3.7542,3.7903,3.8361,3.9232,4.0084,4.0792,4.1077,4.1954,4.248,4.1867,4.2853,4.3769,4.3769,4.3498,4.3092,4.2531,4.2466,4.2259,4.1666,4.2054,4.2356,4.2322,4.281,4.3104,4.3104,4.2585,4.2242,4.2206,4.1703,4.1415,4.1368,4.1351,4.1163,4.0785,4.0497,4.0326,4.0346,4.0452,4.0485,4.0432,4.0476,4.0489,4.0489,4.0489,4.0727,4.1191,4.2613,4.341,4.3858,4.5258,4.5993,4.6225,4.5916,4.5993,4.6225,4.5896,4.5827,4.5854,4.5941,4.6199,4.6473,4.656,4.6811,4.7181,4.7726,4.7882,4.7882,4.7882,4.8132,4.814,4.7276,4.7747,4.8385,4.8358,4.8826,4.9313,4.9632,4.9545,4.9282,4.8836,4.9073,4.8952,4.7958,4.7815,4.7605,4.7035,4.6502,4.6199,4.6199,4.5931,4.5719,4.5719,4.547,4.5297,4.5297,4.5297,4.5297,4.5297,4.5258,4.5235,4.5246,4.5167,4.5099,4.5028,4.499,4.4933,4.4895,4.4586,4.4473,3.71,0.0,0.0,0.0,0.0,3.703,3.7878,3.8511,3.9006,3.9267,4.0171,4.0742,4.0131,4.0893,4.1705,4.197,4.1777,4.139,4.0817,4.0965,4.0803,3.994,4.054,4.0915,4.0631,4.1062,4.1508,4.1797,4.1296,4.105,4.1303,4.0784,4.0463,4.0379,4.0362,4.0345,4.031,4.0309,4.029,4.0291,4.0398,4.0432,4.0415,4.0479,4.0492,4.0492,4.0508,4.0534,4.0709,4.217,4.2811,4.3001,4.4407,4.4949,4.5007,4.5297,4.5394,4.5394,4.5394,4.5582,4.5796,4.5611,4.5753,4.6017,4.6138,4.6181,4.6298,4.6897,4.706,4.7053,4.706,4.706,4.6995,4.6702,4.6865,4.7053,4.7003,4.7657,4.8346,4.8639,4.8554,4.829,4.7863,4.8407,4.8568,4.7515,4.736,4.715,4.6574,4.5812,4.5297,4.5297,4.5297,4.5297,4.5297,4.5297,4.5297,4.5297,4.5297,4.5297,4.5297,4.5258,4.522,4.522,4.5182,4.5175,4.5133,4.5076,4.5009,4.4971,4.4933,4.4914,0.0,0.0,0.0,0.0,0.0,0.0,3.6986,3.7157,3.7375,3.8162,3.835,3.8319,3.8249,3.8248,3.8498,3.9267,3.8721,3.8206,3.8201,3.8865,3.9052,3.8207,3.8777,3.8936,3.8123,3.8046,3.8392,3.9258,3.9335,3.9681,4.045,4.0499,4.0432,4.0288,4.0307,4.029,4.031,4.031,4.0291,4.0307,4.0307,4.0325,4.0415,4.0466,4.0502,4.0502,4.0492,4.0539,4.0665,4.1538,4.1947,4.2091,4.2963,4.3305,4.3401,4.4253,4.4562,4.4562,4.4562,4.5118,4.5692,4.4916,4.5235,4.5939,4.6046,4.6063,4.6052,4.6169,4.6157,4.6118,4.6118,4.6157,4.641,4.7228,4.68,4.6154,4.6027,4.6599,4.7414,4.825,4.8309,4.7917,4.6966,4.7508,4.7722,4.6658,4.6502,4.6485,4.6487,4.5776,4.5297,4.5297,4.5297,4.5297,4.5297,4.5297,4.5297,4.5297,4.5297,4.5297,4.5297,4.5297,4.5297,4.5297,4.5297,4.5258,4.5201,4.5152,4.5109,4.5109,4.5028,4.4971,3.6247,0.0,0.0,0.0,0.0,0.0,3.6286,3.6294,3.6314,3.6557,3.7053,3.7292,3.6666,3.6996,3.723,3.6813,3.7564,3.8187,3.8206,3.8395,3.8428,3.8138,3.8252,3.8513,3.8892,3.8931,3.9277,4.0104,4.0162,4.0277,4.0479,4.0413,4.0342,4.0307,4.0309,4.0291,4.031,4.0309,4.0289,4.0307,4.0362,4.0415,4.0466,4.0502,4.0499,4.0492,4.0508,4.0504,4.0596,4.1513,4.1938,4.2091,4.2916,4.3258,4.3324,4.3576,4.3653,4.3653,4.3653,4.3847,4.4064,4.3896,4.4006,4.4325,4.5017,4.4798,4.4565,4.5845,4.5299,4.4325,4.4325,4.5241,4.6098,4.5709,4.5923,4.6189,4.6154,4.6133,4.6197,4.6429,4.6409,4.6455,4.681,4.6992,4.6992,4.6683,4.6653,4.6415,4.5795,4.5509,4.5354,4.5354,4.5354,4.5335,4.5297,4.5297,4.5297,4.5297,4.5297,4.5297,4.5297,4.5297,4.5297,4.5297,4.5297,4.5277,4.5258,4.5213,4.5154,4.5094,4.5086,4.5047,0.0,0.0,0.0,0.0,0.0,0.0,3.5997,3.5966,3.5934,3.5904,3.6267,3.6456,3.5983,3.625,3.6356,3.5795,3.6512,3.7157,3.7123,3.7429,3.7501,3.7064,3.7307,3.7569,3.77,3.8027,3.8565,3.9392,3.9777,4.0146,4.0482,4.0432,4.0379,4.0325,4.0345,4.0346,4.0346,4.0344,4.0362,4.0379,4.0379,4.0432,4.0502,4.0502,4.0499,4.0511,4.0508,4.0523,4.0577,4.1131,4.1384,4.1479,4.1989,4.2228,4.2299,4.2628,4.2776,4.2802,4.2802,4.3071,4.34,4.3063,4.319,4.3596,4.4153,4.3966,4.3778,4.4825,4.4384,4.3598,4.3598,4.4618,4.5533,4.5027,4.5572,4.6162,4.6027,4.584,4.5703,4.5703,4.5574,4.5648,4.6185,4.6493,4.6684,4.6704,4.6696,4.6517,4.6007,4.5629,4.54,4.54,4.5397,4.5373,4.5335,4.5335,4.5335,4.5335,4.5335,4.5335,4.5335,4.5335,4.5335,4.5335,4.5335,4.5335,4.5335,4.5258,4.5201,4.5144,4.5148,4.5137,0.0,0.0,0.0,0.0,3.5991,0.0,3.5994,3.6005,3.5981,3.5919,3.5914,3.5908,3.5898,3.5905,3.5864,3.5736,3.5718,3.5689,3.5623,3.6288,3.6458,3.5605,3.6209,3.6394,3.5713,3.6372,3.7199,3.8065,3.8931,3.9742,4.0463,4.0502,4.0485,4.0415,4.0398,4.0398,4.0398,4.0415,4.0432,4.0502,4.0432,4.0449,4.0499,4.0502,4.0502,4.0499,4.0508,4.0539,4.0607,4.0622,4.0598,4.0621,4.0746,4.079,4.0887,4.1603,4.1892,4.197,4.197,4.2507,4.3102,4.2325,4.2597,4.3248,4.3333,4.3292,4.3241,4.3318,4.3461,4.3559,4.3364,4.4033,4.4754,4.4754,4.5409,4.5985,4.5783,4.5703,4.5689,4.5689,4.5491,4.5356,4.5513,4.6049,4.6509,4.6685,4.6626,4.6568,4.6568,4.5898,4.5413,4.5413,4.5419,4.5415,4.5413,4.5415,4.5395,4.5395,4.5395,4.5395,4.5395,4.5395,4.5395,4.5395,4.5395,4.5415,4.5392,4.5316,4.5258,4.5201,4.5201,4.5182,0.0,0.0,0.0,3.5991,3.5991,0.0,3.6007,3.6001,3.5997,3.5974,3.5986,3.5953,3.5899,3.5897,3.5892,3.5864,3.5826,3.5756,3.5695,3.5828,3.5855,3.5608,3.5743,3.6009,3.6492,3.7275,3.8108,3.8975,3.9792,4.0319,4.0482,4.0502,4.0485,4.0415,4.0398,4.0398,4.0398,4.0449,4.0485,4.0502,4.0485,4.0499,4.0508,4.0499,4.0499,4.0508,4.0558,4.0588,4.0588,4.066,4.0687,4.0668,4.07,4.0746,4.081,4.0984,4.1052,4.1059,4.1059,4.1238,4.1466,4.1291,4.1393,4.1687,4.2344,4.2071,4.1565,4.1572,4.2572,4.3286,4.1948,4.2728,4.3858,4.3858,4.4448,4.5162,4.58,4.5742,4.5558,4.561,4.5475,4.5589,4.6259,4.5955,4.5879,4.6666,4.6185,4.5742,4.58,4.5664,4.5528,4.549,4.5473,4.5457,4.5394,4.54,4.5398,4.5398,4.5398,4.5398,4.5398,4.5398,4.5398,4.5398,4.5398,4.54,4.5392,4.5316,4.5277,4.5277,4.5277,4.5258,3.6345,3.5991,3.5991,3.5991,3.5991,0.0,0.0,3.6336,3.6528,3.6091,3.6321,3.6473,3.6036,3.5924,3.5903,3.5898,3.583,3.5801,3.5757,3.5728,3.5687,3.5612,3.5601,3.5763,3.6151,3.6935,3.7924,3.9201,4.0057,4.0508,4.0495,4.0495,4.0495,4.0444,4.0444,4.0444,4.0444,4.0479,4.0495,4.0495,4.0495,4.0492,4.0489,4.0492,4.0527,4.0539,4.0592,4.0622,4.0646,4.0687,4.0733,4.0746,4.0746,4.0778,4.079,4.079,4.0812,4.0849,4.0849,4.0935,4.1045,4.1045,4.1078,4.1188,4.1578,4.1422,4.111,4.111,4.1714,4.2163,4.1325,4.2026,4.3045,4.3416,4.4141,4.4937,4.5654,4.5688,4.558,4.551,4.5457,4.5553,4.5975,4.5707,4.5611,4.6127,4.5818,4.5547,4.5586,4.5586,4.5586,4.5547,4.5547,4.5531,4.5496,4.5494,4.549,4.549,4.549,4.549,4.549,4.549,4.549,4.549,4.547,4.5454,4.5438,4.5381,4.5341,4.5335,4.5335,4.5335,3.6462,3.5991,3.5991,3.5991,3.5991,3.5991,0.0,0.0,0.0,3.615,3.6657,3.7028,3.638,3.6333,3.6299,3.5961,3.5995,3.5939,3.5621,3.5666,3.5708,3.5615,3.5913,3.5968,3.5654,3.6511,3.77,3.9215,4.0057,4.0523,4.0523,4.0523,4.0489,4.0489,4.0489,4.0489,4.0489,4.0489,4.0489,4.0489,4.0489,4.0523,4.0523,4.0523,4.0539,4.0603,4.0603,4.0646,4.07,4.07,4.0733,4.0746,4.079,4.079,4.079,4.0803,4.0846,4.0907,4.0917,4.0996,4.111,4.111,4.111,4.111,4.111,4.111,4.111,4.1091,4.1097,4.1097,4.1097,4.1584,4.2292,4.3236,4.4006,4.4722,4.5491,4.5645,4.5599,4.5457,4.5419,4.5438,4.5457,4.5495,4.5495,4.5568,4.5568,4.5605,4.5586,4.5586,4.5586,4.5586,4.5586,4.5586,4.5586,4.5586,4.5586,4.5586,4.5586,4.5586,4.5586,4.5586,4.5586,4.5586,4.5547,4.5509,4.5509,4.5451,4.5437,4.5397,4.5397,4.5397,3.6462,3.5991,3.5991,3.5991,3.5991,3.5991,3.5991,0.0,3.6127,3.603,0.0,3.7259,3.7172,0.0,0.0,3.6235,3.6572,3.6498,3.4944,3.5392,3.5842,3.5708,3.7003,3.7317,3.5828,3.7119,3.8415,3.932,4.014,4.0588,4.0588,4.0539,4.0489,4.0489,4.0489,4.0489,4.0489,4.0489,4.0489,4.0489,4.0489,4.0539,4.0588,4.0588,4.0583,4.0607,4.0654,4.0687,4.07,4.0759,4.07,4.0559,4.0733,4.079,4.0803,4.0804,4.0839,4.0917,4.0971,4.1038,4.111,4.111,4.111,4.111,4.111,4.111,4.1091,4.1109,4.1095,4.1095,4.1106,4.1169,4.1652,4.3284,4.3566,4.3877,4.5434,4.5587,4.5438,4.5495,4.5495,4.5457,4.5419,4.5419,4.5438,4.5495,4.5514,4.5533,4.5586,4.5586,4.5586,4.5586,4.5586,4.5586,4.5586,4.5586,4.5586,4.5586,4.5586,4.5586,4.5586,4.5586,4.5586,4.5586,4.5586,4.5586,4.5586,4.5566,4.5528,4.5396,4.5396,4.5396,3.6345,3.5991,3.5991,3.5991,3.5991,3.5991,3.5991,3.6384,3.6618,3.6111,0.0,0.0,0.0,0.0,0.0,0.0,3.625,3.6192,3.5515,3.6093,3.6386,3.5812,3.6833,3.7472,3.7228,3.78,3.8524,3.9341,3.9706,4.0116,4.0579,4.0579,4.0564,4.0564,4.0564,4.0564,4.0564,4.0564,4.0564,4.0564,4.0564,4.0579,4.0598,4.0598,4.0626,4.0654,4.0612,4.0579,4.0574,4.0564,4.0519,4.045,4.0583,4.0654,4.0688,4.0738,4.0839,4.0952,4.0988,4.1038,4.1091,4.1103,4.1103,4.1109,4.1095,4.1095,4.1095,4.1106,4.1106,4.1106,4.1091,4.1091,4.1504,4.3089,4.3373,4.3717,4.5287,4.5563,4.5513,4.555,4.5568,4.555,4.5513,4.5513,4.5532,4.5568,4.555,4.5569,4.5605,4.5586,4.5586,4.5586,4.5586,4.5586,4.5586,4.5586,4.5586,4.5586,4.5586,4.5586,4.5586,4.5586,4.5586,4.5586,4.5586,4.5586,4.5586,4.5547,4.5528,4.5509,4.5509,4.547,3.6247,3.5991,3.5991,3.5991,3.5991,3.5991,3.5991,3.6482,3.6755,3.613,3.6696,0.0,0.0,0.0,3.6551,3.6082,0.0,3.6129,3.5693,3.6317,3.6559,3.5908,3.637,3.7063,3.789,3.7926,3.8133,3.8709,3.9174,3.9669,4.0235,4.0486,4.0588,4.0588,4.0588,4.0588,4.0588,4.0588,4.0588,4.0588,4.0559,4.0545,4.0559,4.053,4.0549,4.0612,4.0519,4.0485,4.0515,4.0454,4.0406,4.0372,4.0441,4.05,4.0568,4.0642,4.0796,4.0935,4.0926,4.096,4.1052,4.1052,4.107,4.11,4.1091,4.1091,4.1096,4.1096,4.11,4.11,4.1105,4.1105,4.1496,4.3033,4.3373,4.3742,4.5272,4.5599,4.5586,4.5586,4.5586,4.5586,4.5586,4.5586,4.5586,4.5586,4.5586,4.5586,4.5586,4.5586,4.5603,4.562,4.5622,4.5622,4.562,4.5635,4.5714,4.5951,4.574,4.5738,4.595,4.5736,4.564,4.5624,4.5624,4.5605,4.5586,4.5547,4.5547,4.5586,4.5566,4.5509,3.6247,3.5991,3.5991,3.5991,3.5991,3.5991,3.5991,3.601,3.603,3.601,3.6696,3.7282,3.7262,3.7946,3.7965,3.6264,3.6707,0.0,0.0,3.5483,3.6007,3.5911,3.5857,3.6187,3.7061,3.713,3.7113,3.7075,3.8573,3.9487,3.9445,4.0191,4.0588,4.0588,4.0588,4.0588,4.0588,4.0588,4.0588,4.0588,4.0469,4.0438,4.0489,4.0358,4.0341,4.0406,4.0406,4.0438,4.0504,4.0489,4.0425,4.0325,4.0377,4.0392,4.0422,4.0559,4.0681,4.0807,4.073,4.0809,4.0913,4.091,4.0987,4.1091,4.1091,4.1091,4.1096,4.1109,4.1094,4.1094,4.1104,4.1108,4.1537,4.3271,4.3532,4.385,4.5539,4.5747,4.5586,4.5586,4.5586,4.5586,4.5586,4.5586,4.5586,4.5586,4.5586,4.5586,4.5586,4.5586,4.562,4.57,4.5712,4.5714,4.57,4.5699,4.6036,4.6818,4.6144,4.6046,4.6814,4.6111,4.5706,4.5699,4.5699,4.5643,4.5586,4.5586,4.5586,4.5586,4.5528,4.549,3.6239,3.5999,3.5991,3.5991,3.5999,3.6003,3.5994,3.5991,3.5991,3.5991,3.6228,3.6443,3.6443,3.6677,3.6696,3.6111,3.6245,3.6222,0.0,3.5812,3.5997,3.5973,3.6423,3.7053,3.7883,3.7444,3.7303,3.7831,3.7899,3.8394,3.948,3.9799,4.0184,4.073,4.0784,4.0792,4.0726,4.0725,4.0668,4.0526,4.0481,4.0434,4.037,4.0372,4.0372,4.0406,4.0339,4.0341,4.0358,4.0307,4.0272,4.0234,4.0309,4.0327,4.0344,4.0473,4.0615,4.073,4.0711,4.0789,4.0913,4.0945,4.1025,4.1109,4.1097,4.1097,4.1101,4.1104,4.1104,4.1104,4.1108,4.1108,4.1371,4.2403,4.2626,4.3014,4.451,4.4873,4.5017,4.5558,4.5654,4.5668,4.5668,4.5668,4.5671,4.5657,4.5676,4.5673,4.5671,4.5668,4.5668,4.5687,4.5706,4.5687,4.57,4.5708,4.5808,4.6095,4.5849,4.5811,4.6092,4.5835,4.5692,4.5708,4.5693,4.5699,4.568,4.5665,4.5677,4.5668,4.5645,4.5594,3.6248,3.5991,3.6003,3.5994,3.5999,3.6005,3.6005,3.6003,3.6001,3.6001,3.5996,3.5991,3.5991,3.5991,3.5991,3.5991,3.5991,3.5994,0.0,3.5996,3.5991,3.6007,3.645,3.6971,3.7455,3.7014,3.691,3.7417,3.7222,3.7708,3.9062,3.9431,3.9976,4.0819,4.0869,4.0878,4.0843,4.0804,4.0706,4.0568,4.0466,4.0386,4.0302,4.0286,4.0306,4.0323,4.0289,4.029,4.029,4.0253,4.0234,4.0234,4.0291,4.0309,4.0346,4.0396,4.0473,4.0574,4.0668,4.0746,4.0801,4.0894,4.0948,4.1017,4.1078,4.1081,4.1129,4.1475,4.1342,4.1166,4.1479,4.1322,4.1293,4.2032,4.219,4.2606,4.4111,4.4446,4.4713,4.5549,4.5703,4.57,4.57,4.57,4.57,4.5706,4.5706,4.5687,4.57,4.57,4.57,4.5738,4.5738,4.5735,4.5746,4.5742,4.5858,4.6186,4.5908,4.5857,4.6185,4.5901,4.5873,4.6192,4.5889,4.5863,4.6155,4.5838,4.5694,4.5688,4.5708,4.5661]},{"header":{"parameterUnit":"m.s-1","parameterCategory":1,"la1":30.6,"la2":29.2853,"lo1":-89.7004,"lo2":-87.6739,"dy":0.0162,"dx":0.0183,"nx":112,"ny":82,"refTime":"2023-10-04T06:00:00:Z","depth":0,"parameterNumber":3,"parameterNumberName":"V-component_of_WINDS"},"data":[0.0,0.0,0.0,0.0,0.0,0.0,0.0,0.0,0.0,0.0,0.0,0.0,0.0,0.0,0.0,0.0,0.0,0.0,0.0,0.0,0.0,0.0,0.0,0.0,0.0,0.0,0.0,0.0,0.0,0.0,0.0,0.0,0.0,0.0,0.0,0.0,0.0,0.0,0.0,0.0,0.0,0.0,0.0,0.0,0.0,0.0,0.0,0.0,0.0,0.0,0.0,0.0,0.0,0.0,0.0,0.0,0.0,0.0,0.0,0.0,0.0,0.0,0.0,0.0,0.0,0.0,0.0,0.0,0.0,0.0,0.0,0.0,0.0,0.0,0.0,0.0,0.0,0.0,0.0,0.0,0.0,0.0,0.0,0.0,0.0,0.0,0.0,0.0,0.0,0.0,-0.9151,-1.0071,-1.0754,-1.1173,-1.1206,-1.0536,-1.0163,-0.9984,0.0,0.0,0.0,0.0,0.0,0.0,0.0,0.0,0.0,0.0,0.0,0.0,0.0,0.0,0.0,0.0,0.0,0.0,0.0,0.0,0.0,0.0,0.0,0.0,0.0,0.0,0.0,0.0,0.0,0.0,0.0,0.0,0.0,0.0,0.0,0.0,0.0,0.0,0.0,0.0,0.0,0.0,0.0,0.0,0.0,0.0,0.0,0.0,0.0,0.0,0.0,0.0,0.0,0.0,0.0,0.0,0.0,0.0,0.0,0.0,0.0,0.0,0.0,0.0,0.0,0.0,0.0,0.0,0.0,0.0,0.0,0.0,0.0,0.0,0.0,0.0,0.0,0.0,0.0,0.0,0.0,0.0,0.0,0.0,0.0,0.0,0.0,0.0,0.0,0.0,0.0,0.0,0.0,0.0,0.0,0.0,0.0,0.0,0.0,0.0,0.0,0.0,0.0,0.0,-1.0107,-1.0947,-1.1175,-1.1175,-1.123,-1.1066,-1.0726,-1.0057,0.0,0.0,0.0,0.0,0.0,0.0,0.0,0.0,0.0,0.0,0.0,0.0,0.0,0.0,0.0,0.0,0.0,0.0,0.0,0.0,0.0,0.0,0.0,0.0,0.0,0.0,0.0,0.0,0.0,0.0,0.0,0.0,0.0,0.0,0.0,0.0,0.0,0.0,0.0,0.0,0.0,0.0,0.0,0.0,0.0,0.0,0.0,0.0,0.0,0.0,0.0,0.0,0.0,0.0,0.0,0.0,0.0,0.0,0.0,0.0,0.0,0.0,0.0,0.0,0.0,0.0,0.0,0.0,0.0,0.0,0.0,0.0,0.0,0.0,0.0,0.0,0.0,0.0,0.0,0.0,0.0,0.0,0.0,0.0,0.0,0.0,0.0,0.0,0.0,0.0,0.0,0.0,0.0,0.0,0.0,0.0,0.0,0.0,0.0,0.0,0.0,0.0,0.0,-1.0027,-1.0491,-1.1682,-1.1893,-1.1633,-1.1241,-1.0841,-1.0182,-0.9337,-0.97,0.0,0.0,0.0,0.0,0.0,0.0,0.0,0.0,0.0,0.0,0.0,0.0,0.0,0.0,0.0,0.0,0.0,0.0,0.0,0.0,0.0,0.0,0.0,0.0,0.0,0.0,0.0,0.0,0.0,0.0,0.0,0.0,0.0,0.0,0.0,0.0,0.0,0.0,0.0,0.0,0.0,0.0,0.0,0.0,0.0,0.0,0.0,0.0,0.0,0.0,0.0,0.0,0.0,0.0,0.0,0.0,0.0,0.0,0.0,0.0,0.0,0.0,0.0,0.0,0.0,0.0,0.0,0.0,0.0,0.0,0.0,0.0,0.0,0.0,0.0,0.0,0.0,0.0,0.0,0.0,0.0,0.0,0.0,0.0,0.0,0.0,0.0,0.0,0.0,0.0,0.0,0.0,0.0,0.0,0.0,0.0,0.0,0.0,0.0,0.0,0.0,0.0,-1.0025,-1.0596,-1.222,-1.237,-1.2013,-1.0982,-1.0566,-0.9912,-0.9104,-0.9592,0.0,0.0,0.0,0.0,0.0,0.0,0.0,0.0,0.0,0.0,0.0,0.0,0.0,0.0,0.0,0.0,0.0,0.0,0.0,0.0,0.0,0.0,0.0,0.0,0.0,0.0,0.0,0.0,0.0,0.0,0.0,0.0,0.0,0.0,0.0,0.0,0.0,0.0,0.0,0.0,0.0,0.0,0.0,0.0,0.0,0.0,0.0,0.0,0.0,0.0,0.0,0.0,0.0,0.0,0.0,0.0,0.0,0.0,0.0,0.0,0.0,0.0,0.0,0.0,0.0,0.0,0.0,0.0,0.0,0.0,0.0,0.0,0.0,0.0,0.0,0.0,0.0,0.0,0.0,0.0,0.0,0.0,0.0,0.0,0.0,0.0,0.0,0.0,0.0,0.0,0.0,0.0,0.0,0.0,0.0,0.0,0.0,0.0,0.0,0.0,0.0,0.0,-1.003,-1.0596,-1.222,-1.2413,-1.1786,-1.0193,-1.0706,-1.0775,-0.9918,-0.996,0.0,0.0,0.0,0.0,0.0,0.0,0.0,0.0,0.0,0.0,0.0,0.0,0.0,0.0,0.0,0.0,0.0,0.0,0.0,0.0,0.0,0.0,0.0,0.0,0.0,0.0,0.0,0.0,0.0,0.0,0.0,0.0,0.0,0.0,0.0,0.0,0.0,0.0,0.0,0.0,0.0,0.0,0.0,0.0,0.0,0.0,0.0,0.0,0.0,0.0,0.0,0.0,0.0,0.0,0.0,0.0,0.0,0.0,0.0,0.0,0.0,0.0,0.0,0.0,0.0,0.0,0.0,0.0,0.0,0.0,0.0,0.0,0.0,0.0,0.0,0.0,0.0,0.0,0.0,0.0,0.0,0.0,0.0,0.0,0.0,0.0,0.0,0.0,0.0,0.0,0.0,0.0,0.0,0.0,0.0,0.0,0.0,0.0,0.0,0.0,0.0,0.0,-1.0017,-1.0398,-1.1495,-1.1642,-1.1437,-1.0788,-1.0074,-0.9726,-1.0029,0.0,0.0,0.0,0.0,0.0,0.0,0.0,0.0,0.0,0.0,0.0,0.0,0.0,0.0,0.0,0.0,0.0,0.0,0.0,0.0,0.0,0.0,0.0,0.0,0.0,0.0,0.0,0.0,0.0,0.0,0.0,0.0,0.0,0.0,0.0,0.0,0.0,0.0,0.0,0.0,0.0,0.0,0.0,0.0,0.0,0.0,0.0,0.0,0.0,0.0,0.0,0.0,0.0,0.0,0.0,0.0,0.0,0.0,0.0,0.0,0.0,0.0,0.0,0.0,0.0,0.0,0.0,0.0,0.0,0.0,0.0,0.0,0.0,0.0,0.0,0.0,0.0,0.0,0.0,0.0,0.0,0.0,0.0,0.0,0.0,0.0,0.0,0.0,0.0,0.0,0.0,0.0,0.0,0.0,0.0,0.0,0.0,0.0,0.0,0.0,0.0,0.0,-0.9906,-0.9993,-1.0186,-1.077,-1.0866,-1.0837,-1.0859,-0.9549,-0.9096,-0.9952,0.0,0.0,0.0,0.0,0.0,0.0,0.0,0.0,0.0,0.0,0.0,0.0,0.0,0.0,0.0,0.0,0.0,0.0,0.0,0.0,0.0,0.0,0.0,0.0,0.0,0.0,0.0,0.0,0.0,0.0,0.0,0.0,0.0,0.0,0.0,0.0,0.0,0.0,0.0,0.0,0.0,0.0,0.0,0.0,0.0,0.0,0.0,0.0,0.0,0.0,0.0,0.0,0.0,0.0,0.0,0.0,0.0,0.0,0.0,0.0,0.0,0.0,0.0,0.0,0.0,0.0,0.0,0.0,0.0,0.0,0.0,0.0,0.0,0.0,0.0,0.0,0.0,0.0,0.0,0.0,0.0,0.0,0.0,0.0,0.0,0.0,0.0,0.0,0.0,0.0,0.0,0.0,0.0,0.0,0.0,0.0,0.0,0.0,0.0,0.0,0.0,0.0,-0.9906,-0.9972,-0.9984,-0.9984,-0.9984,-0.999,-0.9965,-0.9209,-0.9044,0.0,0.0,0.0,0.0,0.0,0.0,0.0,0.0,0.0,0.0,0.0,0.0,0.0,0.0,0.0,0.0,0.0,0.0,0.0,0.0,0.0,0.0,0.0,0.0,0.0,0.0,0.0,0.0,0.0,0.0,0.0,0.0,0.0,0.0,0.0,0.0,0.0,0.0,0.0,0.0,0.0,0.0,0.0,0.0,0.0,0.0,0.0,0.0,0.0,0.0,0.0,0.0,0.0,0.0,0.0,0.0,0.0,0.0,0.0,0.0,0.0,0.0,0.0,0.0,0.0,0.0,0.0,0.0,0.0,0.0,0.0,0.0,0.0,0.0,0.0,0.0,0.0,0.0,0.0,0.0,0.0,0.0,0.0,0.0,0.0,0.0,0.0,0.0,0.0,0.0,0.0,0.0,0.0,0.0,0.0,0.0,0.0,0.0,0.0,0.0,0.0,0.0,0.0,-0.9906,-1.0022,-1.0041,-1.0041,-1.0009,-0.9719,-0.9114,-0.9379,-0.971,-1.001,0.0,0.0,0.0,0.0,0.0,0.0,0.0,0.0,0.0,0.0,0.0,0.0,0.0,0.0,0.0,0.0,0.0,0.0,0.0,0.0,0.0,0.0,0.0,0.0,0.0,0.0,0.0,0.0,0.0,0.0,0.0,0.0,0.0,0.0,0.0,0.0,0.0,0.0,0.0,0.0,0.0,0.0,0.0,0.0,0.0,0.0,0.0,0.0,0.0,0.0,0.0,0.0,0.0,0.0,0.0,0.0,0.0,0.0,0.0,0.0,0.0,0.0,0.0,0.0,0.0,0.0,0.0,0.0,0.0,0.0,0.0,0.0,0.0,0.0,0.0,0.0,0.0,0.0,0.0,0.0,0.0,0.0,0.0,0.0,0.0,0.0,0.0,0.0,0.0,0.0,0.0,0.0,0.0,0.0,0.0,0.0,0.0,0.0,0.0,0.0,0.0,0.0,-0.9906,-0.997,-1.0038,-1.0038,-0.9965,-0.9676,-0.8764,-0.9527,-1.0036,-1.0028,0.0,0.0,0.0,0.0,0.0,0.0,0.0,0.0,0.0,0.0,0.0,0.0,0.0,0.0,0.0,0.0,0.0,0.0,0.0,0.0,0.0,0.0,0.0,0.0,0.0,0.0,0.0,0.0,0.0,0.0,0.0,0.0,0.0,0.0,0.0,0.0,0.0,0.0,0.0,0.0,0.0,0.0,0.0,0.0,0.0,0.0,0.0,0.0,0.0,0.0,0.0,0.0,0.0,0.0,0.0,0.0,0.0,0.0,0.0,0.0,0.0,0.0,0.0,0.0,0.0,0.0,0.0,0.0,0.0,0.0,0.0,0.0,0.0,0.0,0.0,0.0,0.0,0.0,0.0,0.0,0.0,0.0,0.0,0.0,0.0,0.0,0.0,0.0,0.0,0.0,0.0,0.0,0.0,0.0,0.0,0.0,0.0,0.0,0.0,0.0,0.0,0.0,-0.9906,-1.0043,-1.0014,-1.0014,-0.9991,-0.9644,-0.8789,-0.9466,-1.0035,-1.0014,0.0,0.0,0.0,0.0,0.0,0.0,0.0,0.0,0.0,0.0,0.0,0.0,0.0,0.0,0.0,0.0,0.0,0.0,0.0,0.0,0.0,0.0,0.0,0.0,0.0,0.0,0.0,0.0,0.0,0.0,0.0,0.0,0.0,0.0,0.0,0.0,0.0,0.0,0.0,0.0,0.0,0.0,0.0,0.0,0.0,0.0,0.0,0.0,0.0,0.0,0.0,0.0,0.0,0.0,0.0,0.0,0.0,0.0,0.0,0.0,-0.1496,-0.1507,0.0,0.0,0.0,0.0,0.0,0.0,0.0,0.0,0.0,0.0,0.0,0.0,0.0,0.0,0.0,0.0,0.0,0.0,0.0,0.0,0.0,0.0,0.0,0.0,0.0,0.0,0.0,0.0,0.0,0.0,0.0,0.0,0.0,0.0,0.0,0.0,0.0,0.0,0.0,0.0,-0.9906,-1.0014,-0.9984,-0.9984,-1.0034,-0.9685,-0.878,-0.9474,-1.0035,-1.0014,-1.0038,0.0,0.0,0.0,0.0,0.0,0.0,0.0,0.0,0.0,0.0,0.0,0.0,0.0,0.0,0.0,0.0,0.0,0.0,0.0,0.0,0.0,0.0,0.0,0.0,0.0,0.0,0.0,0.0,0.0,0.0,0.0,0.0,0.0,0.0,0.0,0.0,0.0,0.0,0.0,0.0,0.0,0.0,0.0,0.0,0.0,0.0,0.0,0.0,0.0,0.0,0.0,0.0,0.0,0.0,0.0,0.0,0.0,0.0,0.0,-0.1535,-0.1504,0.0,0.0,0.0,0.0,0.0,0.0,0.0,0.0,0.0,0.0,0.0,0.0,0.0,0.0,0.0,0.0,0.0,0.0,0.0,0.0,0.0,0.0,0.0,0.0,0.0,0.0,0.0,0.0,0.0,0.0,0.0,0.0,0.0,0.0,0.0,0.0,0.0,0.0,0.0,0.0,-0.9906,-0.9971,-0.9847,-0.939,-0.9365,-0.9171,-0.877,-0.948,-0.999,-0.9966,-0.999,0.0,0.0,0.0,0.0,0.0,0.0,0.0,0.0,0.0,0.0,0.0,0.0,0.0,0.0,0.0,0.0,0.0,0.0,0.0,0.0,0.0,0.0,0.0,0.0,0.0,0.0,0.0,0.0,0.0,0.0,0.0,0.0,0.0,0.0,0.0,0.0,0.0,0.0,0.0,0.0,0.0,0.0,0.0,0.0,0.0,0.0,0.0,0.0,0.0,0.0,0.0,0.0,0.0,-0.1839,-0.1852,-0.1766,-0.1903,-0.1895,-0.185,-0.1692,-0.1525,-0.1519,-0.1603,0.0,0.0,0.0,0.0,0.0,0.0,0.0,0.0,0.0,0.0,0.0,0.0,0.0,0.0,0.0,0.0,0.0,0.0,0.0,0.0,0.0,0.0,-0.858,-0.8609,-0.8593,-0.8607,-0.8597,0.0,0.0,0.0,0.0,0.0,0.0,0.0,0.0,0.0,0.0,0.0,-0.986,-0.9993,-0.9688,-0.9043,-0.8756,-0.8706,-0.8675,-0.939,-0.9853,-0.9991,-1.0019,-1.0038,0.0,0.0,0.0,0.0,0.0,0.0,0.0,0.0,0.0,0.0,0.0,0.0,0.0,0.0,0.0,0.0,0.0,0.0,0.0,0.0,0.0,0.0,0.0,0.0,0.0,0.0,0.0,0.0,0.0,0.0,0.0,0.0,-0.1375,-0.0803,0.0,0.0,0.0,0.0,0.0,0.0,0.0,0.0,0.0,0.0,0.0,0.0,0.0,-0.1505,-0.1438,-0.0553,-0.0671,-0.1709,-0.1709,-0.1825,-0.1828,-0.1833,-0.1804,-0.1858,-0.1832,0.0,-0.1671,-0.1823,0.0,0.0,0.0,0.0,0.0,0.0,0.0,0.0,0.0,0.0,0.0,0.0,0.0,0.0,0.0,0.0,0.0,0.0,0.0,0.0,0.0,0.0,-0.8637,-0.8599,-0.8597,-0.8607,-0.8597,-0.813,-0.7874,-0.8471,-0.8577,-0.8593,0.0,0.0,0.0,0.0,0.0,0.0,-0.9858,-0.9981,-0.9962,-0.9851,-0.9188,-0.8738,-0.8661,-0.8797,-0.9156,-0.9991,-1.0019,-1.0038,-1.0038,-1.0038,0.0,0.0,0.0,0.0,0.0,0.0,0.0,0.0,0.0,0.0,0.0,0.0,0.0,0.0,0.0,0.0,0.0,0.0,0.0,0.0,0.0,0.0,0.0,0.0,0.0,0.0,0.0,0.0,0.0,-0.1671,-0.1627,-0.1333,-0.1019,-0.0712,0.0,0.0,0.0,0.0,0.0,0.0,0.0,0.0,0.0,-0.1001,-0.078,-0.1014,-0.1615,-0.0807,-0.0581,-0.0709,-0.1073,-0.1324,-0.1335,-0.1335,-0.1445,-0.1543,-0.1866,-0.1949,-0.1796,-0.1774,-0.181,-0.1794,0.0,0.0,0.0,0.0,-0.2202,-0.2506,-0.2734,-0.2807,-0.2953,-0.3052,0.0,0.0,0.0,0.0,0.0,0.0,0.0,-0.5368,-0.5413,-0.547,-0.6087,-0.8136,-0.8559,-0.856,-0.8575,-0.8312,-0.8056,-0.8041,-0.8021,-0.8146,-0.8521,-0.8607,0.0,0.0,0.0,-0.8931,-0.9875,-1.0381,-1.0706,-1.068,-0.9521,-0.8721,-0.8702,-0.8675,-0.9101,-0.9907,-1.0037,-1.0038,-1.0038,-1.0038,-1.0024,0.0,0.0,0.0,0.0,0.0,0.0,0.0,0.0,0.0,0.0,0.0,0.0,0.0,0.0,0.0,0.0,0.0,0.0,0.0,0.0,0.0,0.0,0.0,0.0,0.0,0.0,0.0,0.0,-0.1414,-0.1667,-0.1652,-0.156,-0.1146,0.0,0.0,0.0,0.0,0.0,0.0,-0.1196,-0.1549,-0.1587,-0.1522,-0.082,-0.071,-0.1207,-0.0845,-0.0365,-0.0,-0.0373,-0.0628,-0.0762,-0.0759,-0.0884,-0.126,-0.1842,-0.1926,-0.1885,-0.1845,-0.1879,-0.1972,-0.2047,-0.2149,-0.2375,-0.2512,-0.2727,-0.2932,-0.3077,-0.3142,-0.3275,-0.3259,-0.3172,-0.3164,-0.3045,0.0,0.0,0.0,0.0,-0.2937,-0.2951,-0.3126,-0.415,-0.7935,-0.8863,-0.8901,-0.8901,-0.8889,-0.8633,-0.7955,-0.7823,-0.7865,-0.8269,-0.8436,0.0,-0.8568,-0.8786,-0.9121,-0.9788,-1.0683,-1.1169,-1.1171,-1.0086,-0.9208,-0.8761,-0.8693,-0.9064,-0.9932,-1.0025,-0.999,-1.0038,-1.0038,-1.0024,-0.999,0.0,0.0,0.0,0.0,0.0,0.0,0.0,0.0,0.0,0.0,0.0,0.0,0.0,0.0,0.0,0.0,0.0,0.0,0.0,0.0,0.0,0.0,0.0,0.0,0.0,0.0,0.0,0.0,0.0,-0.1626,-0.1355,0.0,0.0,0.0,0.0,-0.1701,-0.1866,-0.1802,-0.1832,-0.1863,-0.1549,-0.086,-0.123,-0.0999,-0.0129,-0.0,-0.0,-0.0,-0.0,-0.0,-0.0,-0.0,-0.0379,-0.1136,-0.1739,-0.1957,-0.1924,-0.2089,-0.2039,-0.1786,-0.212,-0.2209,-0.2288,-0.2618,-0.2916,-0.3087,-0.341,-0.3515,-0.35,-0.3231,-0.3234,-0.3222,-0.3163,-0.3144,0.0,0.0,-0.3143,-0.3157,-0.3216,-0.3174,-0.4275,-0.8497,-0.9564,-0.9584,-0.9584,-0.9571,-0.9355,-0.8709,-0.8552,-0.8372,-0.765,0.0,-0.8579,-0.8594,-0.9169,-0.9605,-0.9577,-1.0505,-1.1239,-1.1186,-1.1115,-1.0467,-0.8852,-0.8702,-0.9064,-0.9932,-0.9986,-1.0018,-1.0033,-1.0038,-1.0024,-0.999,-1.1799,0.0,0.0,0.0,0.0,0.0,0.0,0.0,0.0,0.0,0.0,0.0,0.0,0.0,0.0,0.0,0.0,0.0,0.0,0.0,0.0,0.0,0.0,0.0,0.0,0.0,0.0,0.0,0.0,-0.1984,-0.17,0.0,-0.1569,-0.1575,-0.169,-0.1905,-0.1849,-0.1896,-0.1926,-0.1957,-0.1625,-0.0901,-0.0644,0.143,0.5447,0.1857,0.0,0.0,0.0,0.0,0.0,0.0,-0.0128,-0.0512,-0.1623,-0.1971,-0.1959,-0.2058,-0.2109,-0.2017,-0.2217,-0.2326,-0.2561,-0.2925,-0.3017,-0.3088,-0.3458,-0.3533,-0.345,-0.3248,-0.3189,-0.3253,-0.3331,-0.3297,-0.3174,-0.3213,-0.3196,-0.317,-0.3194,-0.3173,-0.4239,-0.8587,-0.9645,-0.9571,-0.9571,-0.9581,-0.9564,-0.9332,-0.8905,-0.8673,-0.8794,-0.9105,-0.9284,-0.9226,-0.9457,-0.9615,-0.9583,-1.0515,-1.1168,-1.1206,-1.0716,-1.019,-0.9569,-0.9034,-0.8857,-0.9159,-0.9653,-0.9966,-1.0038,-1.0038,-1.0024,-0.999,-1.0651,-1.0992,0.0,0.0,0.0,0.0,0.0,0.0,0.0,0.0,0.0,0.0,0.0,0.0,0.0,0.0,0.0,0.0,0.0,0.0,0.0,0.0,0.0,0.0,0.0,0.0,0.0,-0.1891,-0.1972,-0.2088,-0.2029,-0.193,-0.1889,-0.1895,-0.1778,-0.1179,-0.1091,-0.0869,-0.0378,-0.1408,-0.1696,-0.1068,-0.0399,0.1871,0.5703,0.3781,0.1876,0.0,0.0,0.0,0.0,0.0,0.0,-0.0,-0.1001,-0.161,-0.1989,-0.1969,-0.2039,-0.2086,-0.2178,-0.229,-0.2534,-0.2909,-0.3122,-0.3194,-0.3556,-0.3598,-0.3484,-0.3298,-0.3263,-0.3247,-0.3352,-0.3324,-0.33,-0.3236,-0.3219,-0.3184,-0.3164,-0.3151,-0.3949,-0.6756,-0.8567,-0.9581,-0.9581,-0.847,-0.7394,-0.7394,-0.8259,-0.906,-0.9558,-0.9622,-0.9571,-0.961,-0.9647,-0.9587,-0.9592,-1.0216,-1.0797,-1.1127,-1.0674,-1.0258,-1.0062,-0.9222,-0.8791,-0.9096,-0.9691,-0.9971,-1.0038,-1.0028,-1.0014,-0.999,-0.9971,-1.0307,-1.0919,0.0,0.0,0.0,0.0,0.0,0.0,0.0,0.0,0.0,0.0,0.0,0.0,0.0,0.0,0.0,0.0,0.0,0.0,0.0,0.0,0.0,0.0,0.0,-0.2026,-0.1968,-0.2011,-0.2011,-0.1947,-0.196,-0.1901,-0.1801,-0.1218,0.0124,0.0508,0.1298,0.2632,-0.0267,-0.1624,-0.0961,-0.0407,0.0136,0.0275,0.5576,0.5672,0.0269,0.0133,0.0,0.0,0.0,0.0,0.0,0.0,-0.0747,-0.2014,-0.1957,-0.1952,-0.1977,-0.1976,-0.2201,-0.2412,-0.2774,-0.3105,-0.3407,-0.3584,-0.36,-0.3499,-0.3497,-0.3459,-0.3416,-0.3201,-0.3306,-0.3413,-0.3201,-0.32,-0.3186,-0.3235,-0.3209,-0.3185,-0.3234,-0.6348,-0.9406,-0.941,-0.6121,-0.3196,-0.3196,-0.6522,-0.9417,-0.9573,-0.9612,-0.9628,-0.9628,-0.9628,0.0,-0.9608,-0.9596,-1.0028,-1.1058,-1.1219,-1.0894,-1.0086,-0.9235,-0.9123,-0.9921,-1.0015,-1.0018,-1.0033,-1.0009,-0.9995,-1.0082,-1.0019,-1.0914,-1.2733,0.0,0.0,0.0,0.0,0.0,0.0,0.0,0.0,0.0,0.0,0.0,0.0,0.0,0.0,0.0,0.0,0.0,0.0,0.0,0.0,0.0,-0.1917,-0.1952,-0.1944,-0.1955,-0.2048,-0.2048,-0.2101,-0.1731,-0.0528,-0.0524,0.0263,0.2128,0.2281,0.2576,0.3297,0.3144,0.2468,0.1528,0.0549,0.206,0.6416,0.3716,0.3693,0.6161,0.2,0.0,0.0,0.0,0.0,0.0,0.0,-0.0503,-0.1388,-0.1751,-0.1999,-0.2003,-0.196,-0.1952,-0.2208,-0.282,-0.3255,-0.3643,-0.3699,-0.3627,-0.3555,-0.3511,-0.3486,-0.3473,-0.3473,-0.3444,-0.3421,-0.3462,-0.3444,-0.3515,-0.3498,-0.3352,-0.3215,-0.3234,-0.4097,-0.4945,-0.5006,-0.4053,-0.3211,-0.3211,-0.42,-0.5981,-0.9079,-0.9608,-0.9628,-0.9628,-0.9628,-0.9624,-0.962,-0.96,-0.9981,-1.1063,-1.1154,-1.0836,-1.0032,-0.9757,-0.9781,-1.0025,-0.9971,-0.9986,-1.0038,-1.0028,-1.0661,-1.1944,-1.0682,-1.093,0.0,0.0,0.0,0.0,0.0,0.0,0.0,0.0,0.0,0.0,0.0,0.0,0.0,0.0,0.0,0.0,0.0,0.0,0.0,0.0,0.0,0.0,-0.1988,-0.1924,-0.1949,-0.2044,-0.1857,-0.1215,-0.1235,-0.0692,0.0968,0.0412,0.1097,0.3452,0.3178,0.3604,0.5308,0.625,0.6262,0.5071,0.4317,0.4877,0.7068,0.3602,0.2883,0.4948,0.1612,0.0,0.0,0.0,0.0,-0.0,-0.0384,-0.0765,-0.1146,-0.176,-0.2008,-0.2014,0.0,0.0,0.0,0.0,-0.3128,-0.3526,-0.3467,-0.3524,-0.3582,-0.3546,-0.3534,-0.3534,-0.3534,-0.3512,-0.3492,-0.3525,-0.3621,-0.3588,-0.3563,-0.3529,-0.3289,-0.3186,-0.3243,-0.3308,-0.3235,-0.3218,-0.3196,-0.3196,-0.317,0.0,-0.6488,-0.8371,-0.9616,-0.9628,-0.9616,-0.9587,-0.9618,-0.9643,-0.9981,-1.1109,-1.1187,-1.0966,-1.0524,-1.022,0.0,0.0,0.0,-1.0033,-1.0019,-1.0005,0.0,0.0,0.0,-1.1649,-1.2679,-1.2723,0.0,0.0,-1.2723,-1.2717,0.0,0.0,0.0,0.0,0.0,0.0,0.0,0.0,0.0,0.0,0.0,0.0,0.0,0.0,0.0,0.0,-0.1955,-0.1924,-0.1854,-0.1863,-0.1349,-0.0,0.0281,0.0983,0.253,0.1402,0.1821,0.4775,0.3931,0.4632,0.7727,0.8588,0.0,0.0,0.0,0.7926,0.5292,0.5014,0.3572,0.0962,0.027,0.0,0.0,0.0,0.0,-0.0,-0.0777,-0.1165,-0.1161,-0.1884,-0.2122,-0.2011,-0.1986,-0.1977,-0.2096,-0.2308,-0.2752,-0.3298,-0.3244,0.0,0.0,-0.359,-0.3587,-0.3587,-0.3587,-0.3587,-0.3587,-0.3587,-0.3587,-0.3575,-0.3632,-0.3611,-0.3594,-0.3334,-0.3422,-0.3521,-0.3313,-0.3202,-0.3199,-0.3199,-0.3254,-0.3206,-0.3196,-0.6805,-0.9604,-0.9614,-0.9565,-0.9498,-0.9443,-0.9514,-0.988,-1.1086,-1.1196,0.0,-1.1184,-1.0433,-0.9966,-1.0031,-0.9998,-0.9965,-1.0,-0.9971,-1.0129,-1.0307,-1.1849,-1.2691,-1.2709,-1.2703,-1.2691,-1.2661,-1.2717,-1.2705,0.0,0.0,0.0,0.0,0.0,0.0,0.0,0.0,0.0,0.0,0.0,0.0,0.0,0.0,0.0,-0.2091,-0.2045,-0.173,-0.0559,-0.0422,-0.0282,-0.0,0.1138,0.257,0.404,0.3967,0.4657,0.6919,0.6785,0.7217,0.8519,0.8668,0.8965,0.9128,0.9174,0.8889,0.842,0.8213,0.7687,0.6842,0.2285,0.0,0.0,0.0,0.0,-0.0,-0.0788,-0.105,-0.118,-0.1804,-0.2022,-0.1984,-0.1979,-0.2223,-0.2466,-0.2459,-0.2919,-0.3353,-0.3299,-0.3478,-0.3653,-0.3604,-0.3587,-0.3587,-0.3587,-0.3587,0.0,-0.3587,-0.3587,-0.3585,-0.3572,-0.3644,-0.3616,-0.3545,-0.359,-0.3532,-0.3578,-0.3553,-0.3519,-0.3519,-0.3507,-0.349,-0.3258,-0.676,-0.9648,-0.9583,-0.9142,-0.8837,-0.881,-0.8792,-0.9397,-1.1071,-1.1208,-1.1208,-1.1184,-1.0496,-0.9988,-0.998,-1.0012,-1.0032,-1.0038,-1.0024,-1.0733,-1.2169,-1.2557,-1.2727,-1.2674,-1.2672,-1.2667,-1.2657,-1.2715,-1.2705,0.0,0.0,0.0,0.0,0.0,0.0,0.0,0.0,0.0,0.0,0.0,-0.1456,0.0,0.0,-0.2086,-0.2199,-0.146,-0.0819,-0.0142,0.1428,0.229,0.2305,0.3045,0.4221,0.5677,0.5209,0.5505,0.7194,0.6572,0.6712,0.8078,0.8324,0.8584,0.9016,0.9109,0.9256,0.9318,0.915,0.8895,0.8694,0.5722,0.2801,0.0,0.0,0.0,-0.0,-0.0795,-0.1066,-0.1197,-0.1822,-0.2037,-0.1996,-0.1982,-0.2099,-0.222,-0.2203,-0.2549,-0.3128,-0.3077,-0.3379,-0.3673,-0.3643,-0.3613,-0.3587,-0.3587,-0.3587,-0.3587,-0.3587,-0.3587,-0.3587,-0.3587,-0.3565,-0.3549,-0.358,-0.3653,-0.3618,-0.3646,-0.3605,-0.3563,-0.3563,-0.362,-0.3581,-0.3376,-0.7153,-0.9996,-0.9648,-0.9271,-0.8989,-0.8625,-0.859,-0.9124,-1.0471,-1.0631,-1.0796,-1.1174,-1.0865,-1.059,-1.0579,-1.0186,-0.999,-0.9979,-1.0037,-1.0389,-1.1305,-1.2254,-1.2968,-1.3517,-1.3459,-1.3543,-1.3511,-1.2943,-1.2739,0.0,0.0,0.0,0.0,0.0,0.0,0.0,0.0,-0.1898,-0.1594,-0.1734,-0.1773,-0.1354,-0.1512,-0.1552,-0.1343,-0.0548,0.0279,0.0857,0.2865,0.4459,0.5088,0.5142,0.5743,0.6851,0.5878,0.5766,0.6951,0.5871,0.5863,0.7534,0.7922,0.8171,0.8729,0.9016,0.916,0.9304,0.9166,0.8911,0.882,0.8694,0.5902,0.0776,0.0266,-0.0133,-0.039,-0.0932,-0.1209,-0.1338,-0.1831,-0.2054,-0.2024,-0.1996,-0.1984,-0.1981,-0.1951,-0.2303,-0.29,-0.2854,-0.3167,-0.3711,-0.37,-0.3662,-0.362,-0.3608,-0.3605,-0.3602,-0.3591,-0.3587,-0.3587,-0.3587,-0.3587,-0.3587,-0.3587,-0.3578,-0.3572,-0.3585,-0.365,-0.3606,-0.3496,-0.3528,-0.3571,-0.3484,-0.7538,-1.0463,-0.9758,-0.9575,-0.9452,-0.887,-0.8695,-0.8874,-0.967,-0.9881,-1.037,-1.1091,-1.1194,-1.1175,-1.1228,-1.0631,-1.0222,-1.0186,-1.0228,-1.0388,-1.0861,-1.2226,-1.3409,-1.4299,-1.4258,-1.4258,-1.4299,-1.3381,-1.2903,-0.0897,0.1344,0.392,0.1227,-0.0338,-0.0916,0.0,0.0,-0.1532,-0.0364,-0.1101,-0.1232,0.1378,0.0779,0.0403,0.1637,0.0839,0.1,0.3768,0.3195,0.3633,0.6404,0.6706,0.6855,0.699,0.6851,0.6857,0.7005,0.6923,0.7078,0.7586,0.7657,0.8099,0.8731,0.8726,0.8871,0.9304,0.9082,0.8965,0.8951,0.8747,0.6949,0.3671,0.1201,-0.0667,-0.1975,-0.1337,-0.147,-0.1982,-0.2107,-0.2086,-0.2056,-0.2025,-0.2014,-0.201,-0.1981,-0.2463,-0.2947,-0.2901,-0.3364,-0.3831,-0.3777,-0.3755,-0.3739,-0.3684,-0.3668,-0.3657,-0.3602,-0.3587,-0.3587,-0.3587,-0.3587,-0.3587,-0.3587,-0.3546,-0.3632,-0.3575,-0.365,-0.3496,-0.3278,-0.3268,-0.3242,-0.3293,-0.744,-1.0446,-0.9661,-0.9623,-0.9597,-0.9457,-0.8995,-0.8611,-0.8775,-0.9478,-1.0341,-1.1113,-1.1225,-1.1158,-1.1177,-1.1157,-1.1075,-1.1071,-1.1056,-1.1913,-1.375,-1.4068,-1.4147,-1.4279,-1.4306,-1.43,-1.4279,-1.4142,-1.3647,0.1349,0.202,0.3157,0.0,0.1855,0.1642,0.2043,0.1716,0.1374,0.1531,0.1032,0.0917,0.2159,0.1915,0.1663,0.0,0.258,0.3182,0.4509,0.4915,0.5438,0.6627,0.6758,0.6819,0.6974,0.7037,0.707,0.707,0.7054,0.7052,0.7359,0.7491,0.7754,0.8003,0.8437,0.8696,0.877,0.8965,0.8986,0.8845,0.8766,0.7132,0.4204,0.1323,-0.0795,-0.2243,-0.1873,-0.187,-0.2108,-0.209,-0.2065,-0.2035,-0.2005,-0.1994,-0.1992,-0.1981,-0.247,-0.2958,-0.2939,-0.3402,-0.3856,-0.3831,-0.3798,-0.3764,-0.3739,-0.3732,-0.3726,-0.37,-0.3694,-0.3685,-0.365,-0.364,-0.3631,-0.3595,-0.3651,-0.3514,-0.3351,-0.3486,-0.3619,-0.344,-0.3284,-0.3236,-0.3234,-0.4981,-0.7093,-0.9319,-0.9994,-1.0258,-1.0258,-1.0019,-0.9875,-1.0049,-1.0419,-1.0838,-1.1216,-1.1226,-1.124,-1.1172,-1.1172,-1.1231,-1.124,-1.122,-1.1597,-1.2463,-1.3677,-1.4315,-1.4337,-1.4345,-1.4345,-1.4337,-1.429,-1.4019,0.2602,0.0,0.0,0.341,0.3458,0.3628,0.374,0.3585,0.3407,0.3068,0.2682,0.2575,0.3352,0.3213,0.3081,0.3427,0.4179,0.4782,0.5238,0.5866,0.6312,0.6604,0.6523,0.6564,0.6782,0.6909,0.6998,0.7047,0.699,0.6992,0.7082,0.7317,0.7421,0.7566,0.8119,0.8499,0.8558,0.8815,0.8978,0.8769,0.8788,0.7564,0.536,0.1308,-0.105,-0.1847,-0.2133,-0.2129,-0.2106,-0.2067,-0.2038,-0.2016,-0.1988,-0.1977,-0.1977,-0.1977,-0.2346,-0.2838,-0.2961,-0.3308,-0.3763,-0.3886,-0.3856,-0.3816,-0.38,-0.3794,-0.379,-0.3774,-0.377,-0.3759,-0.3714,-0.3588,-0.3577,-0.3647,-0.3591,-0.3563,-0.3284,-0.3412,-0.354,-0.3477,-0.3308,-0.325,-0.325,-0.3244,-0.4211,-0.7416,-0.9511,-1.0654,-1.0433,-1.061,-1.0916,-1.1428,-1.1327,-1.1144,-1.088,-1.1077,-1.1221,-1.121,-1.1165,-1.1194,-1.1194,-1.1175,-1.1239,-1.1196,-1.3255,-1.4268,-1.4298,-1.4298,-1.4298,-1.4292,-1.4313,-1.4347,0.1714,0.3098,0.5209,0.4179,0.4059,0.4052,0.4174,0.3319,0.2972,0.4304,0.3281,0.2955,0.5789,0.5172,0.4671,0.6187,0.5339,0.502,0.6684,0.5494,0.4945,0.6453,0.6355,0.6231,0.6327,0.65,0.6678,0.6849,0.6858,0.6896,0.6988,0.699,0.7133,0.7566,0.7907,0.8137,0.8556,0.8734,0.8894,0.8769,0.8652,0.8617,0.8282,0.1161,-0.1823,-0.1186,-0.1846,-0.211,-0.2105,-0.2045,-0.2019,-0.2016,-0.1988,-0.1977,-0.1977,-0.1977,-0.2222,-0.259,-0.2838,-0.3207,-0.3576,-0.3824,-0.3947,-0.3933,-0.3876,-0.3857,-0.3845,-0.3786,-0.377,-0.3768,-0.3767,-0.3648,-0.3647,-0.3646,-0.3601,-0.3573,-0.328,-0.3364,-0.3552,-0.321,-0.3207,-0.3173,-0.318,-0.3149,-0.3228,-0.3388,-0.7599,-1.0485,-0.9689,-1.0246,-1.1164,-1.2274,-1.1628,-1.0884,-1.0066,-1.0769,-1.1206,-1.122,-1.1191,-1.1194,-1.1194,-1.1194,-1.1165,-1.1201,-1.3283,-1.4298,-1.4298,-1.4298,-1.4298,-1.4298,-1.4286,-1.4315,0.3951,0.4943,0.5769,0.5558,0.5536,0.5633,0.5851,0.5682,0.5568,0.5744,0.541,0.5195,0.609,0.5824,0.5619,0.6257,0.6149,0.6149,0.6659,0.636,0.6078,0.6145,0.6255,0.619,0.5982,0.6233,0.6484,0.6666,0.6735,0.6807,0.6894,0.6958,0.7106,0.7187,0.7442,0.7645,0.7507,0.8163,0.8227,0.798,0.684,0.5565,0.418,0.0261,-0.1567,-0.182,-0.1969,-0.2086,-0.2046,-0.2007,-0.1979,-0.1958,-0.1928,-0.1916,-0.1919,-0.2179,-0.2308,-0.2433,-0.2827,-0.3332,-0.3826,-0.3828,-0.3951,-0.3947,-0.3927,-0.392,-0.3916,-0.3895,-0.389,-0.388,-0.3839,-0.383,-0.3819,-0.3778,-0.3722,-0.381,-0.3638,-0.3689,-0.3744,-0.367,-0.3646,-0.3717,-0.3675,-0.3544,-0.4515,-0.7672,-0.9568,-1.0858,-1.1415,-1.17,-1.1986,-1.2314,-1.2206,-1.1682,-1.0811,-1.0574,-1.0595,-1.1211,-1.1187,-1.1194,-1.1194,-1.1175,-1.1239,-1.1196,-1.326,-1.4274,-1.4298,-1.4298,-1.4298,-1.4292,-1.4325,-1.4266,0.4918,0.5661,0.6216,0.6349,0.6462,0.6547,0.6692,0.6768,0.6731,0.6462,0.6329,0.6198,0.5994,0.5929,0.5965,0.6145,0.63,0.6464,0.6651,0.6615,0.6476,0.6227,0.6184,0.6096,0.5898,0.6088,0.631,0.6525,0.6656,0.6764,0.6849,0.6939,0.6962,0.6905,0.7302,0.7349,0.7188,0.7736,0.7956,0.7579,0.571,0.3813,0.1839,-0.0395,-0.17,-0.2065,-0.2084,-0.2065,-0.2014,-0.1964,-0.1932,-0.1913,-0.1894,-0.1886,-0.1891,-0.2291,-0.2552,-0.2677,-0.3074,-0.3455,-0.3826,-0.3828,-0.3951,-0.3951,-0.3951,-0.3951,-0.3951,-0.3951,-0.3951,-0.3942,-0.3902,-0.3892,-0.3883,-0.3843,-0.3923,-0.3906,-0.3945,-0.389,-0.3845,-0.3886,-0.3862,-0.3943,-0.392,-0.5374,-0.7615,-1.0683,-1.0879,-1.083,-1.1318,-1.1759,-1.2112,-1.2408,-1.2426,-1.2201,-1.1667,-1.0614,-1.0356,-1.1104,-1.1178,-1.1191,-1.1191,-1.1234,-1.1556,-1.2339,-1.3585,-1.4274,-1.4298,-1.4298,-1.4298,-1.4292,-1.4333,-1.4075,0.464,0.5481,0.6496,0.6588,0.6733,0.6829,0.6739,0.6713,0.6627,0.6347,0.608,0.5867,0.0,0.0,0.5686,0.588,0.5994,0.6186,0.6547,0.631,0.619,0.0,0.0,0.0,0.0,0.0,0.6186,0.6441,0.6621,0.6758,0.6847,0.6939,0.6988,0.6982,0.7185,0.7374,0.7274,0.7543,0.7767,0.7664,0.533,0.3288,0.1447,-0.1053,-0.2222,-0.2064,-0.2062,-0.2044,-0.2009,-0.1924,-0.1888,-0.1888,-0.1887,-0.1886,-0.201,-0.2437,-0.2711,-0.3081,-0.3454,-0.3579,-0.358,-0.3826,-0.3951,-0.3951,-0.3951,-0.3951,-0.3951,-0.3951,-0.3951,-0.3951,-0.395,-0.395,-0.395,-0.395,-0.395,-0.395,-0.395,-0.395,-0.395,-0.395,-0.3951,-0.3932,-0.3873,-0.8236,-1.1832,-1.1859,-1.1147,-1.0505,-0.9716,-1.0615,-1.1511,-1.2299,-1.2373,-1.2431,-1.243,-1.0924,-1.0334,-1.112,-1.1099,-1.1115,-1.1216,-1.1196,-1.2103,-1.414,-1.4243,-1.4298,-1.4298,-1.4298,-1.4292,-1.4274,-1.4315,-1.3743,0.6037,0.6409,0.6774,0.6864,0.687,0.6813,0.666,0.6519,0.6325,0.5986,0.5755,0.5563,0.0,0.0,0.0,0.5765,0.6002,0.0,0.6641,0.6725,0.0,0.6572,0.0,0.6449,0.6268,0.6374,0.0,0.6549,0.6598,0.6692,0.6845,0.6939,0.6958,0.689,0.6946,0.6856,0.6762,0.6828,0.6914,0.7154,0.4112,0.2513,0.1867,-0.0916,-0.2071,-0.2063,-0.2039,-0.2014,-0.1984,-0.1938,-0.2039,-0.2274,-0.2249,-0.2474,-0.2715,-0.301,-0.3275,-0.3402,-0.3688,-0.3826,-0.3826,-0.3828,-0.3951,-0.3951,-0.3951,-0.3951,-0.3951,-0.3951,-0.3951,-0.4073,-0.4561,-0.431,-0.394,-0.3936,-0.3935,-0.3935,-0.3935,-0.3937,-0.394,-0.394,-0.3946,-0.3943,-0.3917,-0.8306,-1.1811,-1.1753,-1.1587,-1.1207,-1.0493,-1.1447,-1.2126,-1.2426,-1.2433,-1.2423,-1.2437,-1.1476,-1.0737,-1.0343,-1.0268,-1.0599,-1.122,-1.1244,-1.1448,-1.2027,-1.3471,-1.4268,-1.4298,-1.4298,-1.4303,-1.4315,-1.4253,-1.3773,0.6226,0.631,0.6492,0.647,0.64,0.6419,0.6588,0.6359,0.6088,0.5688,0.5492,0.5349,0.521,0.5153,0.523,0.0,0.0,0.0,0.6431,0.6607,0.6696,0.0,0.6719,0.0,0.6511,0.659,0.6666,0.6702,0.6707,0.6749,0.6847,0.6939,0.6966,0.6915,0.6827,0.6721,0.659,0.65,0.6587,0.6719,0.3597,0.2132,0.2012,-0.0788,-0.2076,-0.2062,-0.2032,-0.2003,-0.1974,-0.1944,-0.205,-0.2409,-0.2407,-0.2634,-0.2982,-0.3295,-0.3432,-0.3538,-0.3816,-0.3951,-0.3951,-0.3951,-0.3951,-0.3951,-0.3951,-0.4071,-0.4316,-0.4316,-0.4562,-0.4807,-0.5047,-0.4923,-0.4921,-0.5536,-0.5659,-0.5659,-0.5663,-0.5667,-0.5298,-0.4189,-0.3947,-0.3946,-0.3929,-0.6381,-0.9169,-1.1462,-1.1752,-1.1431,-1.0329,-1.1195,-1.1997,-1.2406,-1.2364,-1.2426,-1.2431,-1.1983,-1.142,-1.0596,-1.0569,-1.0742,-1.1172,-1.123,-1.1151,-1.122,-1.3272,-1.4286,-1.4334,-1.4303,-1.4264,-1.431,-1.3822,-1.3266,0.6108,0.6162,0.629,0.6127,0.6007,0.5987,0.6347,0.6166,0.5835,0.5443,0.5279,0.5188,0.512,0.5043,0.5079,0.5355,0.0,0.5688,0.6151,0.6296,0.6482,0.6831,0.6807,0.6762,0.6762,0.6762,0.6792,0.6866,0.6872,0.6872,0.6872,0.6947,0.6978,0.6956,0.6878,0.6751,0.6574,0.6494,0.6453,0.6453,0.349,0.2146,0.2007,-0.0793,-0.2086,-0.2056,-0.2026,-0.1999,-0.1975,-0.1948,-0.2178,-0.2542,-0.2576,-0.2817,-0.3041,-0.3368,-0.35,-0.3589,-0.3829,-0.3951,-0.3951,-0.3951,-0.3951,-0.3951,-0.395,-0.4438,-0.4926,-0.5047,-0.5416,-0.5784,-0.5535,-0.5659,-0.6276,-0.7521,-0.7894,-0.7896,-0.7905,-0.7656,-0.6667,-0.4321,-0.3951,-0.3946,-0.3929,-0.4156,-0.6068,-1.1082,-1.1768,-1.1189,-0.9766,-1.0494,-1.1464,-1.2327,-1.2421,-1.2375,-1.2423,-1.2431,-1.2128,-1.1406,-1.125,-1.1249,-1.1245,-1.1206,-1.1179,-1.1239,-1.2986,-1.399,-1.4328,-1.4257,-1.4186,-1.4099,-1.3141,-1.2715,0.7037,0.7203,0.7133,0.689,0.6604,0.6429,0.6204,0.5741,0.0,0.0,0.5135,0.5037,0.5098,0.5096,0.5171,0.5443,0.5561,0.5804,0.6331,0.6486,0.6647,0.0,0.6954,0.6943,0.6943,0.6943,0.0,0.6964,0.6966,0.6966,0.6966,0.6982,0.6923,0.6776,0.6758,0.6662,0.648,0.6462,0.6453,0.6453,0.349,0.2136,0.2112,-0.0781,-0.2055,-0.2024,-0.1996,-0.1981,-0.1976,-0.1971,-0.2337,-0.295,-0.2958,-0.3227,-0.375,-0.3852,-0.3865,-0.3888,-0.3842,-0.3951,-0.3951,-0.3951,-0.3951,-0.395,-0.4561,-0.4803,-0.5047,-0.5538,-0.5784,-0.6029,-0.6519,-0.627,-0.6267,-0.7627,-0.7875,-0.7877,-0.7877,-0.6149,-0.4429,-0.3948,-0.3951,-0.395,-0.3947,-0.571,-0.8292,-1.1336,-1.1288,-1.059,-0.9735,-1.0581,-1.1476,-1.2338,-1.2447,-1.2427,-1.2394,-1.2428,-1.2312,-1.2167,-1.1553,-1.116,-1.1156,-1.1179,-1.1165,-1.1206,-1.1512,-1.2619,-1.4303,-1.4347,-1.3884,-1.2963,-1.278,-1.2709,0.6892,0.684,0.684,0.6595,0.6111,0.5889,0.5938,0.0,0.0,0.0,0.5032,0.4986,0.5028,0.4998,0.0,0.5263,0.5416,0.5647,0.6047,0.6343,0.0,0.6827,0.6933,0.699,0.699,0.699,0.699,0.699,0.699,0.699,0.699,0.699,0.6909,0.6731,0.6727,0.6639,0.6455,0.6453,0.6162,0.5318,0.3188,0.1847,0.1041,-0.1027,-0.2033,-0.2017,-0.1989,-0.1977,-0.1977,-0.2222,-0.2591,-0.2963,-0.3237,-0.3495,-0.3991,-0.3993,-0.3993,-0.3986,-0.3959,-0.3951,-0.3951,-0.3951,-0.4195,-0.4438,-0.4803,-0.5416,-0.6029,-0.6276,-0.6644,-0.7011,-0.738,-0.7131,-0.7128,-0.7747,-0.7875,-0.788,-0.7886,-0.5782,-0.3936,-0.3948,-0.3951,-0.395,-0.3944,-0.4965,-0.728,-1.1459,-1.1824,-1.1467,-1.1054,-1.1145,-1.1516,-1.2274,-1.2423,-1.2441,-1.2441,-1.2356,-1.2385,-1.2393,-1.162,-1.1208,-1.1208,-1.1194,-1.1175,-1.1225,-1.224,-1.3311,-1.4253,-1.3744,-1.3177,-1.2733,-1.2685,-1.2733,0.6656,0.6573,0.6525,0.6273,0.5773,0.554,0.5846,0.5524,0.0,0.5002,0.4955,0.4943,0.4943,0.4883,0.4888,0.0,0.52,0.5394,0.5682,0.6078,0.6421,0.0,0.6841,0.0,0.6988,0.699,0.699,0.699,0.699,0.699,0.699,0.699,0.6909,0.6731,0.6727,0.6639,0.6455,0.6433,0.573,0.4229,0.289,0.1433,0.0,-0.1397,-0.2015,-0.2133,-0.211,-0.2099,-0.2223,-0.2468,-0.2837,-0.3089,-0.3376,-0.3624,-0.3973,-0.4004,-0.3996,-0.3966,-0.3955,-0.3942,-0.4053,-0.4053,-0.4418,-0.4906,-0.5044,-0.5894,-0.6862,-0.7126,-0.7503,-0.7872,-0.7872,-0.7872,-0.7872,-0.7872,-0.7877,-0.7886,-0.7894,-0.5786,-0.3937,-0.3946,-0.3948,-0.3948,-0.3937,-0.3869,-0.571,-1.1261,-1.2217,-1.2384,-1.2447,-1.1714,-1.1458,-1.2068,-1.2321,-1.2394,-1.2436,-1.2441,-1.2378,-1.2398,-1.1601,-1.1198,-1.1212,-1.1194,-1.1175,-1.1234,-1.3222,-1.4169,-1.3975,-1.3129,-1.2668,-1.2738,-1.2709,-1.2705,0.7199,0.7307,0.7287,0.6941,0.6523,0.6106,0.5876,0.0,0.4992,0.4975,0.4906,0.4847,0.4847,0.4841,0.4867,0.4967,0.4998,0.513,0.5484,0.5782,0.6094,0.6437,0.0,0.0,0.6982,0.699,0.699,0.699,0.699,0.699,0.699,0.699,0.6909,0.6731,0.6727,0.6639,0.6455,0.637,0.5703,0.429,0.2874,0.1418,0.0,-0.1396,-0.2128,-0.2472,-0.2469,-0.259,-0.2961,-0.2961,-0.3208,-0.3457,-0.3461,-0.3738,-0.4022,-0.3976,-0.3988,-0.4021,-0.3969,-0.4279,-0.4711,-0.4711,-0.4711,-0.4964,-0.5639,-0.6218,-0.6895,-0.7596,-0.7869,-0.7872,-0.7872,-0.7872,-0.7872,-0.7872,-0.7872,-0.7875,-0.7883,-0.578,-0.3931,-0.3932,-0.3943,-0.3948,-0.3937,-0.3867,-0.5483,-1.0188,-1.1782,-1.2352,-1.2363,-1.174,-1.1207,-1.1263,-1.1916,-1.2359,-1.2427,-1.2441,-1.2378,-1.2398,-1.1601,-1.1198,-1.1212,-1.1194,-1.1165,-1.1201,-1.3266,-1.382,-1.2859,-1.2711,-1.2732,-1.2741,-1.2717,-1.2705,0.707,0.7256,0.728,0.6921,0.6492,0.6063,0.5698,0.0,0.489,0.489,0.4859,0.4834,0.4834,0.4834,0.4865,0.4957,0.4971,0.5059,0.5314,0.5535,0.5825,0.6241,0.6482,0.0,0.0,0.699,0.699,0.699,0.699,0.6966,0.6911,0.6909,0.6851,0.6731,0.6674,0.6582,0.6455,0.6364,0.5255,0.3012,0.2439,0.1012,-0.113,-0.1748,-0.2234,-0.2467,-0.2467,-0.2714,-0.2961,-0.3208,-0.3332,-0.3455,-0.3703,-0.3841,-0.3981,-0.3959,-0.4209,-0.4589,-0.4525,-0.4846,-0.5292,-0.5242,-0.558,-0.5952,-0.6286,-0.6815,-0.7446,-0.7858,-0.7872,-0.7872,-0.7872,-0.7872,-0.7872,-0.7872,-0.7872,-0.7875,-0.7883,-0.7016,-0.5778,-0.4176,-0.517,-0.5794,-0.418,-0.3869,-0.5614,-1.0569,-1.2445,-1.3236,-1.3206,-1.2925,-1.2474,-1.193,-1.2182,-1.2356,-1.2432,-1.2441,-1.2378,-1.2398,-1.1608,-1.1223,-1.1217,-1.1213,-1.1203,-1.123,-1.3216,-1.4136,-1.3659,-1.3004,-1.2724,-1.2705,-1.2705,-1.2705,0.6569,0.6799,0.7025,0.6688,0.6306,0.5919,0.0,0.0,0.4867,0.4841,0.4834,0.4834,0.4834,0.4834,0.4847,0.4888,0.4914,0.4975,0.5104,0.53,0.5567,0.0,0.0,0.6396,0.6756,0.6886,0.6949,0.6949,0.6974,0.6949,0.6858,0.6805,0.6747,0.6688,0.6598,0.6506,0.6415,0.6298,0.4792,0.2189,0.2147,0.0624,-0.1989,-0.2104,-0.2345,-0.2714,-0.2714,-0.2961,-0.3332,-0.3579,-0.358,-0.358,-0.3826,-0.3951,-0.3951,-0.4071,-0.4438,-0.4918,-0.5111,-0.5423,-0.5966,-0.59,-0.623,-0.6828,-0.6909,-0.7368,-0.7828,-0.7861,-0.7872,-0.7872,-0.7872,-0.7872,-0.7872,-0.7872,-0.7872,-0.7872,-0.788,-0.7883,-0.7385,-0.5406,-0.6648,-0.7273,-0.5408,-0.5106,-0.6386,-1.014,-1.2351,-1.3712,-1.3698,-1.3462,-1.2979,-1.216,-1.2293,-1.2393,-1.2446,-1.2389,-1.2452,-1.2377,-1.1613,-1.1331,-1.1529,-1.133,-1.1193,-1.1151,-1.2598,-1.3522,-1.3805,-1.3091,-1.2709,-1.2723,-1.2711,-1.2705,0.5626,0.6118,0.6666,0.639,0.6119,0.5825,0.0,0.5169,0.4945,0.4853,0.4834,0.4834,0.4834,0.4834,0.4808,0.4724,0.4781,0.4836,0.4839,0.5073,0.5314,0.0,0.0,0.5929,0.6288,0.6645,0.6854,0.6854,0.6937,0.6949,0.6858,0.6688,0.6592,0.659,0.6502,0.6413,0.6319,0.6143,0.4699,0.206,0.1999,0.0621,-0.2017,-0.2359,-0.2714,-0.2961,-0.3332,-0.3703,-0.3951,-0.3951,-0.3951,-0.3951,-0.3951,-0.3951,-0.395,-0.4682,-0.4925,-0.5047,-0.5661,-0.6152,-0.6464,-0.6462,-0.6932,-0.7519,-0.7519,-0.7606,-0.7728,-0.7839,-0.7872,-0.7872,-0.7872,-0.7872,-0.7872,-0.7872,-0.7872,-0.7872,-0.7872,-0.7877,-0.7883,-0.7872,-0.7886,-0.7896,-0.7886,-0.7875,-0.7856,-0.7942,-1.1273,-1.375,-1.3684,-1.2999,-1.2138,-1.1282,-1.1925,-1.2437,-1.2346,-1.2373,-1.237,-1.237,-1.1686,-1.1513,-1.239,-1.1625,-1.1193,-1.1151,-1.125,-1.1718,-1.274,-1.2742,-1.2663,-1.2673,-1.2723,-1.2705,0.46,0.476,0.4974,0.4802,0.4869,0.4914,0.4704,0.4675,0.4783,0.4755,0.4749,0.4749,0.4749,0.4796,0.4847,0.4881,0.4857,0.4857,0.0,0.0,0.0,0.5651,0.6127,0.6494,0.6668,0.6733,0.679,0.6849,0.6827,0.6743,0.6588,0.6527,0.6496,0.6496,0.6347,0.5862,0.4925,0.4706,0.3408,0.0762,0.0622,-0.0247,-0.199,-0.235,-0.2714,-0.2961,-0.3332,-0.3703,-0.3951,-0.3951,-0.3951,-0.3951,-0.3951,-0.3951,-0.395,-0.4682,-0.517,-0.5653,-0.6205,-0.6865,-0.7272,-0.7194,-0.734,-0.7644,-0.7644,-0.7725,-0.7823,-0.7861,-0.7872,-0.7872,-0.7872,-0.7872,-0.7872,-0.7872,-0.7872,-0.7872,-0.7872,-0.7875,-0.7875,-0.7872,-0.7875,-0.788,-0.7877,-0.7872,-0.7864,-0.7958,-1.1179,-1.3745,-1.367,-1.3436,-1.3169,-1.2924,-1.3123,-1.2837,-1.1696,-1.2119,-1.2402,-1.2375,-1.2143,-1.2173,-1.2395,-1.1625,-1.1202,-1.1184,-1.1213,-1.1076,-1.0891,-1.0853,-1.1516,-1.2723,-1.2711,-1.2705,0.0,0.3834,0.4024,0.3918,0.415,0.0,0.421,0.4472,0.4736,0.4671,0.471,0.4747,0.4714,0.4777,0.4843,0.4869,0.4824,0.4808,0.0,0.0,0.0,0.5629,0.0,0.0,0.6545,0.6627,0.6696,0.6749,0.6705,0.6611,0.6462,0.6388,0.6201,0.5642,0.5413,0.4979,0.4212,0.3647,0.2247,0.0,0.0,-0.074,-0.2222,-0.2591,-0.2838,-0.3208,-0.3455,-0.3703,0.0,-0.3951,-0.3951,-0.3951,-0.3951,-0.4073,-0.4316,-0.5049,-0.5661,-0.639,-0.6938,-0.7376,-0.769,-0.7614,-0.7641,-0.7709,-0.7752,-0.7815,-0.7872,-0.7872,-0.7872,-0.7872,-0.7872,-0.7872,-0.7872,-0.7872,-0.7872,-0.7872,-0.7872,-0.7872,-0.7872,-0.7872,-0.7872,-0.7872,-0.7872,-0.7875,-0.7867,-0.7953,-0.993,-1.1993,-1.3556,-1.3649,-1.3645,-1.3688,-1.3709,-1.2999,-1.1325,-1.1959,-1.2442,-1.2369,-1.2409,-1.2211,-1.1972,-1.1452,-1.1206,-1.1198,-1.1243,-1.0812,-1.003,-1.069,-1.1621,-1.2705,-1.2705,-1.2705,0.0,0.3153,0.366,0.3492,0.3866,0.0,0.4065,0.4429,0.0,0.4616,0.4706,0.4792,0.4714,0.4769,0.48,0.4722,0.4708,0.471,0.0,0.4892,0.0,0.0,0.5859,0.5954,0.5948,0.6241,0.6437,0.658,0.6431,0.6385,0.6295,0.6132,0.5361,0.4023,0.3896,0.377,0.377,0.2479,0.1231,-0.0123,-0.0123,-0.0986,-0.2467,-0.2837,-0.3208,-0.3455,-0.3826,-0.3951,-0.3951,-0.3951,-0.3951,-0.3951,-0.395,-0.4316,-0.5047,-0.5661,-0.6396,-0.7011,-0.7625,-0.7796,-0.7701,-0.7701,-0.7706,-0.7733,-0.7839,-0.7872,-0.7872,-0.7872,-0.7872,-0.7872,-0.7872,-0.7872,-0.7872,-0.7872,-0.7872,-0.7872,-0.7872,-0.7872,-0.7872,-0.7872,-0.7872,-0.7872,-0.7872,-0.7877,-0.7864,-0.7686,-0.8055,-0.9647,-1.32,-1.3679,-1.3722,-1.3659,-1.3658,-1.2951,-1.1367,-1.1982,-1.2365,-1.2417,-1.2354,-1.203,-1.1277,-1.118,-1.1193,-1.1198,-1.1187,-1.0843,-1.0186,-1.1904,-1.2661,-1.2705,-1.2705,-1.2705,0.1939,0.0,0.2174,0.2575,0.3076,0.357,0.0,0.4388,0.4726,0.4685,0.0,0.4628,0.4608,0.4677,0.4732,0.4712,0.4708,0.473,0.4796,0.0,0.0,0.5187,0.5882,0.6201,0.5611,0.5144,0.534,0.648,0.5428,0.4675,0.4608,0.4573,0.3895,0.2599,0.1486,0.0991,0.0991,0.0617,-0.0247,-0.1482,-0.1482,-0.1851,-0.2467,-0.2837,-0.3208,-0.3455,-0.3826,-0.3951,-0.3951,-0.3951,-0.3951,-0.395,-0.4438,-0.4803,-0.5049,-0.6276,-0.6766,-0.7011,-0.7625,-0.7796,-0.7701,-0.7701,-0.7761,-0.7837,-0.7861,-0.7872,-0.7872,-0.7872,-0.7872,-0.7872,-0.7872,-0.7872,-0.7872,-0.7872,-0.7872,-0.7872,-0.7872,-0.7872,-0.7872,-0.7872,-0.7872,-0.7872,-0.7872,-0.7872,-0.7243,-0.5124,-0.9057,-1.2669,-1.3625,-1.3703,-1.3692,-1.3644,-1.3144,-1.2519,-1.2163,-1.2246,-1.245,-1.2436,-1.2433,-1.2086,-1.1272,-1.1153,-1.1246,-1.1194,-1.1238,-1.1522,-1.2031,-1.2522,-1.2703,-1.2661,-1.2717,-1.2705,0.1718,0.1617,0.1717,0.222,0.2826,0.3323,0.3789,0.0,0.0,0.0,0.0,0.4622,0.4579,0.442,0.445,0.4645,0.4452,0.0,0.0,0.0,0.4915,0.4531,0.4846,0.4697,0.3776,0.3384,0.3395,0.4079,0.3224,0.2783,0.2992,0.299,0.2343,0.0965,0.0122,-0.0247,-0.0247,-0.0863,-0.1603,-0.2469,-0.2469,-0.2592,-0.2961,-0.3208,-0.3455,-0.3702,-0.3799,-0.3909,-0.3906,-0.3879,-0.3868,-0.3867,-0.4585,-0.4944,-0.5305,-0.6386,-0.6899,-0.7299,-0.7608,-0.7668,-0.7627,-0.7684,-0.7741,-0.7804,-0.7856,-0.7872,-0.7872,-0.7872,-0.7872,-0.7872,-0.7872,-0.7872,-0.7872,-0.7872,-0.7872,-0.7872,-0.7872,-0.7872,-0.7872,-0.7872,-0.7872,-0.7872,-0.7872,-0.7875,-0.7368,-0.5977,-1.0304,-1.369,-1.3736,-1.3737,-1.3579,-1.3138,-1.2692,-1.2349,-1.239,-1.2393,-1.2441,-1.2441,-1.2389,-1.2038,-1.1268,-1.1206,-1.1156,-1.1168,-1.0824,-1.096,-1.146,-1.1494,-1.1871,-1.2679,-1.2741,-1.2723,0.1617,0.1617,0.1717,0.222,0.2826,0.3314,0.3839,0.0,0.0,0.0,0.0,0.0,0.0,0.4182,0.0,0.0,0.0,0.0,0.4461,0.4197,0.3802,0.341,0.3121,0.2535,0.1531,0.1407,0.1281,0.1281,0.1009,0.0994,0.1228,0.1224,0.0604,-0.0706,-0.0845,-0.0857,-0.0979,-0.1969,-0.2711,-0.2951,-0.2958,-0.3204,-0.3445,-0.3452,-0.3698,-0.3933,-0.3883,-0.3854,-0.3842,-0.379,-0.3886,-0.4004,-0.4589,-0.5174,-0.576,-0.6462,-0.7123,-0.7687,-0.7581,-0.7546,-0.7565,-0.7668,-0.7712,-0.7744,-0.7842,-0.7872,-0.7872,-0.7872,-0.7872,-0.7872,-0.7872,-0.7872,-0.7872,-0.7872,-0.7872,-0.7872,-0.7872,-0.7872,-0.7872,-0.7872,-0.7872,-0.7872,-0.7872,-0.7877,-0.7864,-0.7931,-1.1175,-1.3676,-1.3665,-1.3737,-1.3443,-1.2694,-1.2507,-1.2352,-1.236,-1.2441,-1.2441,-1.2441,-1.2389,-1.201,-1.1187,-1.1174,-1.1201,-1.1206,-1.0454,-1.004,-1.0032,-0.9975,-1.0752,-1.2295,-1.2576,-1.2735,0.1617,0.1617,0.1717,0.222,0.2826,0.3314,0.3839,0.0,0.0,0.0,0.0,0.0,0.0,0.4238,0.4379,0.0,0.0,0.2921,0.0,0.0,0.1528,0.0722,0.1125,0.127,0.0372,-0.0125,-0.0,0.1009,0.0,-0.0605,-0.0483,-0.0477,-0.1064,-0.2354,-0.2483,-0.2608,-0.2846,-0.2922,-0.2942,-0.2904,-0.2943,-0.3186,-0.339,-0.3435,-0.3676,-0.3873,-0.3864,-0.3831,-0.3782,-0.3774,-0.4121,-0.4589,-0.5174,-0.5877,-0.6464,-0.7049,-0.7477,-0.7698,-0.7682,-0.7674,-0.7676,-0.7695,-0.7766,-0.7847,-0.7867,-0.7872,-0.7872,-0.7872,-0.7872,-0.7872,-0.7872,-0.7872,-0.7872,-0.7872,-0.7872,-0.7872,-0.7872,-0.7872,-0.7872,-0.7872,-0.7872,-0.7872,-0.7872,-0.7872,-0.7858,-0.7931,-1.1167,-1.374,-1.3716,-1.365,-1.3675,-1.3551,-1.288,-1.2393,-1.2446,-1.2441,-1.2441,-1.2441,-1.2389,-1.2089,-1.1203,-1.1227,-1.1201,-1.1206,-1.038,-0.9971,-1.0032,-0.9975,-1.011,-1.0439,-1.198,-1.2711,0.1617,0.1617,0.1617,0.1919,0.2322,0.2919,0.3393,0.0,0.0,0.0,0.0,0.0,0.0,0.0,0.3127,0.2442,0.0,0.1492,0.1,0.0685,0.0234,-0.048,-0.049,-0.0864,-0.1706,-0.2082,-0.2083,-0.1579,-0.2158,-0.237,-0.2115,-0.2116,-0.2451,-0.2982,-0.3033,-0.3165,-0.3487,-0.345,-0.3358,-0.3334,-0.3477,-0.3477,-0.3573,-0.36,-0.3717,-0.3809,-0.3777,-0.3747,-0.3718,-0.3684,-0.4014,-0.4698,-0.5268,-0.5838,-0.6536,-0.7238,-0.7513,-0.7524,-0.7655,-0.7657,-0.7614,-0.7682,-0.7736,-0.779,-0.7853,-0.7872,-0.7872,-0.7872,-0.7872,-0.7872,-0.7872,-0.7872,-0.7872,-0.7872,-0.7872,-0.7872,-0.7872,-0.7872,-0.7872,-0.7872,-0.7872,-0.7872,-0.7877,-0.7869,-0.785,-0.7936,-1.116,-1.3707,-1.3678,-1.3301,-1.2997,-1.3038,-1.2673,-1.2449,-1.245,-1.2441,-1.2229,-1.1783,-1.1708,-1.1628,-1.1212,-1.1194,-1.125,-1.1224,-1.0822,-1.0409,-0.9981,-1.0983,-1.1451,-1.1488,-1.2312,-1.2661,0.1608,0.1611,0.1613,0.1599,0.2006,0.2519,0.2911,0.0,0.0,0.0,0.0,0.0,0.0,0.2331,0.0,0.1006,0.042,-0.0,-0.0225,-0.0689,-0.1172,-0.1681,-0.2176,-0.2779,-0.348,-0.349,-0.3595,-0.3774,-0.3756,-0.361,-0.3335,-0.336,-0.3338,-0.3253,-0.3332,-0.3472,-0.3657,-0.3819,-0.385,-0.3748,-0.3762,-0.3762,-0.3748,-0.3763,-0.3762,-0.3745,-0.3699,-0.367,-0.3653,-0.3606,-0.4033,-0.4702,-0.526,-0.5817,-0.6621,-0.7167,-0.7415,-0.7372,-0.7616,-0.7641,-0.7581,-0.7701,-0.7741,-0.7758,-0.7845,-0.7872,-0.7872,-0.7872,-0.7872,-0.7872,-0.7872,-0.7872,-0.7872,-0.7872,-0.7872,-0.7872,-0.7872,-0.7872,-0.7872,-0.7872,-0.7872,-0.7872,-0.7877,-0.7368,-0.735,-0.8678,-1.1651,-1.3684,-1.3737,-1.2952,-1.2427,-1.2386,-1.2451,-1.239,-1.2455,-1.2441,-1.2037,-1.1295,-1.1182,-1.1208,-1.1208,-1.1194,-1.125,-1.1224,-1.0973,-1.0654,-0.999,-1.1356,-1.211,-1.2077,-1.2457,-1.2697,0.1582,0.1595,0.1603,0.1547,0.1967,0.0,0.2367,0.275,0.0,0.3067,0.0,0.0,0.0,0.162,0.089,0.0308,-0.0432,-0.1467,-0.2802,-0.3093,-0.3247,-0.3618,-0.3787,-0.3778,-0.3786,-0.3827,-0.3835,-0.3774,-0.3717,-0.3683,-0.3679,-0.3628,-0.3597,-0.3587,-0.3595,-0.3598,-0.3594,-0.4158,-0.4192,-0.3685,-0.3743,-0.374,-0.3687,-0.3744,-0.3739,-0.3684,-0.368,-0.3646,-0.3594,-0.359,-0.4257,-0.5371,-0.5371,-0.6151,-0.7171,-0.7301,-0.7342,-0.7372,-0.7616,-0.7695,-0.7706,-0.782,-0.7858,-0.7858,-0.7869,-0.7872,-0.7872,-0.7872,-0.7872,-0.7872,-0.7872,-0.7872,-0.7872,-0.7872,-0.7872,-0.7872,-0.7872,-0.7872,-0.7872,-0.7872,-0.7872,-0.7869,-0.7861,-0.5876,-0.5863,-1.0781,-1.279,-1.3651,-1.3683,-1.2993,-1.2352,-1.2416,-1.236,-1.2346,-1.2441,-1.2441,-1.2037,-1.1295,-1.1239,-1.1227,-1.1194,-1.1194,-1.1179,-1.1151,-1.0459,-1.005,-0.9994,-1.0102,-1.0176,-1.0216,-1.1888,-1.2709,0.1575,0.1566,0.1555,0.1532,0.164,0.0,0.0,0.198,0.2163,0.2173,0.1679,0.0,0.0,0.0,-0.102,-0.1241,-0.2078,-0.2858,-0.3473,-0.3647,-0.3684,-0.3804,-0.3824,-0.3805,-0.3721,-0.3733,-0.3722,-0.3661,-0.3974,-0.4184,-0.4184,-0.4496,-0.4704,-0.4704,-0.4704,-0.4704,-0.4704,-0.4925,-0.4942,-0.4748,-0.4438,-0.4438,-0.4748,-0.3986,-0.4098,-0.4748,-0.441,-0.4394,-0.4704,-0.4704,-0.526,-0.604,-0.6374,-0.6818,-0.7171,-0.729,-0.7336,-0.7372,-0.7616,-0.7701,-0.772,-0.7834,-0.7872,-0.7872,-0.7872,-0.7872,-0.7872,-0.7872,-0.7872,-0.7872,-0.7872,-0.7872,-0.7872,-0.7872,-0.7872,-0.7872,-0.7872,-0.7872,-0.7872,-0.7872,-0.7872,-0.7869,-0.7858,-0.8462,-0.9438,-1.1526,-1.2255,-1.2477,-1.256,-1.1884,-1.1616,-1.2297,-1.2356,-1.245,-1.2441,-1.244,-1.2245,-1.1949,-1.1457,-1.1153,-1.1203,-1.1194,-1.1234,-1.1216,-1.0901,-1.0784,-1.0754,-1.0248,-0.9984,-1.0029,-1.0677,-1.1016,0.1548,0.1534,0.1521,0.0,0.0,0.0,0.1603,0.16,0.1594,0.1625,0.111,0.0399,-0.0693,0.0,0.0,-0.2072,-0.2971,-0.3679,-0.3679,-0.373,-0.3762,-0.3743,-0.3758,-0.3854,-0.3999,-0.4009,-0.3994,-0.415,-0.459,-0.4814,-0.4814,-0.5148,-0.5371,-0.5371,-0.5371,-0.5371,-0.5371,-0.5594,-0.5706,-0.5706,-0.526,-0.5148,-0.5371,-0.4592,-0.4592,-0.5371,-0.4925,-0.5037,-0.5371,-0.5371,-0.5706,-0.6374,-0.6932,-0.7154,-0.7165,-0.7247,-0.7301,-0.7366,-0.7573,-0.7668,-0.772,-0.7834,-0.7872,-0.7872,-0.7872,-0.7872,-0.7872,-0.7872,-0.7872,-0.7872,-0.7872,-0.7872,-0.7872,-0.7872,-0.7872,-0.7872,-0.7872,-0.7872,-0.7872,-0.7872,-0.7872,-0.7867,-0.7847,-1.0447,-1.2418,-1.244,-1.2026,-1.1753,-1.1748,-1.1204,-1.0968,-1.1818,-1.2232,-1.245,-1.2441,-1.2431,-1.2452,-1.2388,-1.1601,-1.1198,-1.1212,-1.1194,-1.123,-1.1197,-1.1243,-1.1067,-1.0856,-1.0253,-0.9995,-0.9984,-1.0559,-1.0854,0.1497,0.1502,0.0,0.0,0.0,0.0,0.1603,0.1617,0.1626,0.1656,0.1615,0.1087,-0.0603,-0.1009,-0.132,-0.2069,-0.3081,-0.3677,-0.3677,-0.3729,-0.3745,-0.3684,-0.373,-0.3951,-0.4494,-0.4548,-0.4788,-0.5377,-0.5371,-0.5371,-0.5371,-0.5371,-0.5371,-0.5371,-0.5369,-0.5369,-0.5371,-0.6038,-0.6262,-0.6262,-0.6262,-0.604,-0.5371,-0.5371,-0.5371,-0.5371,-0.5371,-0.5371,-0.5371,-0.5371,-0.5817,-0.6374,-0.6932,-0.7154,-0.7154,-0.7157,-0.723,-0.735,-0.7475,-0.76,-0.7717,-0.7831,-0.7869,-0.7872,-0.7869,-0.7869,-0.7872,-0.7872,-0.7872,-0.7872,-0.7872,-0.7872,-0.7872,-0.7872,-0.7872,-0.7872,-0.7872,-0.7869,-0.7869,-0.7869,-0.7869,-0.7861,-0.7823,-1.1061,-1.3639,-1.3731,-1.2569,-1.1815,-1.1798,-1.1148,-1.0711,-1.074,-1.1751,-1.2441,-1.2441,-1.2441,-1.2378,-1.2398,-1.1601,-1.1198,-1.1212,-1.1194,-1.1194,-1.1194,-1.1194,-1.0789,-0.9988,-0.9983,-0.9985,-1.0074,-1.1844,-1.2638,0.1485,0.1472,0.0,0.1466,0.0,0.0,0.0,0.1111,0.0,0.0,-0.0634,-0.1355,-0.2515,-0.2754,-0.2876,-0.2964,-0.3404,-0.3615,-0.3615,-0.3969,-0.4312,-0.4291,-0.4646,-0.4979,-0.5152,-0.5172,-0.5176,-0.5373,-0.5817,-0.604,-0.604,-0.6485,-0.6707,-0.6707,-0.6526,-0.6523,-0.6707,-0.6746,-0.6816,-0.6816,-0.6816,-0.6746,-0.6596,-0.5817,-0.5817,-0.6596,-0.6262,-0.6262,-0.6707,-0.6707,-0.6821,-0.6932,-0.7154,-0.7154,-0.7165,-0.7249,-0.7201,-0.7143,-0.7519,-0.7557,-0.7478,-0.7684,-0.7807,-0.7856,-0.7777,-0.7807,-0.7872,-0.7872,-0.7872,-0.7872,-0.7872,-0.7872,-0.7872,-0.7872,-0.7872,-0.7872,-0.7872,-0.6385,-0.503,-0.503,-0.6641,-0.7633,-0.6618,-1.0461,-1.3667,-1.3675,-1.2854,-1.2194,-1.2271,-1.1975,-1.1849,-1.1878,-1.2219,-1.245,-1.2441,-1.2441,-1.2378,-1.2398,-1.1601,-1.1198,-1.1212,-1.1194,-1.1194,-1.1194,-1.1163,-1.1058,-1.0796,-1.0833,-1.051,-1.0041,-1.0572,-1.0814,0.1099,0.0996,0.0,0.0644,0.0187,-0.0192,-0.0204,0.0,0.0,0.0,-0.1624,-0.2028,-0.3225,-0.3238,-0.3134,-0.3447,-0.3744,-0.3921,-0.3921,-0.4479,-0.4814,-0.4814,-0.5148,-0.5483,-0.5706,-0.5706,-0.5817,-0.6151,-0.6485,-0.6689,-0.6754,-0.713,-0.7334,-0.7233,-0.7211,-0.7211,-0.7231,-0.7161,-0.7124,-0.7234,-0.7124,-0.7161,-0.7122,-0.6404,-0.6445,-0.7152,-0.6774,-0.6756,-0.7084,-0.7035,-0.7016,-0.7016,-0.7016,-0.7016,-0.7024,-0.7097,-0.7035,-0.6961,-0.7301,-0.735,-0.7296,-0.7491,-0.7635,-0.772,-0.7649,-0.7676,-0.7731,-0.7731,-0.7853,-0.7853,-0.7853,-0.7889,-0.7936,-0.7861,-0.7872,-0.7872,-0.7872,-0.5768,-0.3922,-0.3922,-0.5653,-0.6644,-0.5384,-0.8663,-1.1778,-1.2786,-1.2227,-1.1903,-1.2367,-1.2449,-1.237,-1.2351,-1.236,-1.2356,-1.245,-1.245,-1.2383,-1.2398,-1.1601,-1.1198,-1.1212,-1.1194,-1.1194,-1.1194,-1.1177,-1.1221,-1.1216,-1.1189,-1.0768,-0.9972,-0.9962,-0.9995,0.0631,0.0,0.0,-0.0646,-0.0958,0.0,-0.1159,-0.1189,-0.143,-0.2117,0.0,-0.172,-0.3275,-0.2921,-0.269,-0.3496,-0.4103,-0.448,-0.459,-0.5142,-0.547,-0.547,-0.547,-0.5804,-0.6362,-0.6359,-0.6584,-0.7138,-0.7241,-0.7295,-0.7402,-0.7509,-0.7466,-0.7226,-0.7321,-0.7327,-0.722,-0.7206,-0.7308,-0.7629,-0.7308,-0.72,-0.7206,-0.7017,-0.7024,-0.7116,-0.7013,-0.697,-0.6959,-0.685,-0.6801,-0.6801,-0.6801,-0.6801,-0.6804,-0.6815,-0.6804,-0.6806,-0.695,-0.7054,-0.7143,-0.7263,-0.7394,-0.75,-0.7489,-0.75,-0.7519,-0.7521,-0.7758,-0.7877,-0.7877,-0.7842,-0.7834,-0.7815,-0.7847,-0.7853,-0.7734,-0.5752,-0.4032,-0.3916,-0.4899,-0.5384,-0.4137,-0.6375,-0.902,-1.1323,-1.1106,-1.1105,-1.2142,-1.226,-1.226,-1.226,-1.226,-1.2256,-1.2237,-1.2337,-1.2378,-1.2398,-1.169,-1.118,-1.1212,-1.1194,-1.1194,-1.1194,-1.1194,-1.1194,-1.1194,-1.1199,-1.0788,-0.9974,-0.9976,-1.0043,0.0898,0.0635,0.0,0.0,-0.1396,-0.2101,-0.2764,-0.3273,-0.3445,-0.2533,-0.2651,-0.3108,-0.3565,-0.3446,-0.3552,-0.4231,-0.4359,-0.4702,-0.5148,-0.5645,-0.5927,-0.5927,-0.6364,-0.6694,-0.6803,-0.7018,-0.7233,-0.7342,-0.7469,-0.7508,-0.7587,-0.7615,-0.7602,-0.7542,-0.7467,-0.7464,-0.7542,-0.7434,-0.7382,-0.7489,-0.7382,-0.7382,-0.7386,-0.6995,-0.6855,-0.6877,-0.6853,-0.6842,-0.6839,-0.6815,-0.6801,-0.6801,-0.6801,-0.6801,-0.6815,-0.691,-0.6823,-0.6703,-0.701,-0.7013,-0.6899,-0.7021,-0.7203,-0.7355,-0.7263,-0.7366,-0.7519,-0.7519,-0.7519,-0.7638,-0.7638,-0.7538,-0.7562,-0.7589,-0.7546,-0.713,-0.6288,-0.5387,-0.4522,-0.3979,-0.4073,-0.4173,-0.3966,-0.7867,-1.0949,-1.0936,-1.0814,-1.0781,-1.1013,-1.1109,-1.1105,-1.1105,-1.1105,-1.1101,-1.1101,-1.1873,-1.2351,-1.2408,-1.1676,-1.1153,-1.1203,-1.1194,-1.1194,-1.1194,-1.1194,-1.1194,-1.1194,-1.1154,-1.0834,-0.9978,-1.003,-1.0014,0.0359,0.0,0.0,-0.1148,0.0,-0.2848,-0.3298,-0.3675,-0.382,-0.3354,-0.3611,-0.4096,-0.4319,-0.4069,-0.4058,-0.4753,-0.5054,-0.5245,-0.5571,-0.6072,-0.6468,-0.6468,-0.6682,-0.7003,-0.7107,-0.7214,-0.7321,-0.7538,-0.7581,-0.7617,-0.7654,-0.7716,-0.7691,-0.7564,-0.7651,-0.7651,-0.7558,-0.7486,-0.755,-0.7652,-0.755,-0.7449,-0.7351,-0.7243,-0.7118,-0.7006,-0.695,-0.6821,-0.6711,-0.6651,-0.6627,-0.6627,-0.6627,-0.6627,-0.6635,-0.67,-0.6641,-0.6559,-0.6747,-0.6768,-0.6725,-0.679,-0.6972,-0.7157,-0.7092,-0.7201,-0.7345,-0.7345,-0.7345,-0.7345,-0.7345,-0.7385,-0.7198,-0.6731,-0.6577,-0.6416,-0.6542,-0.5674,-0.4947,-0.4988,-0.4378,-0.389,-0.3903,-0.7959,-1.1094,-1.0755,-1.0745,-1.068,-1.068,-1.0676,-1.0672,-1.0672,-1.0672,-1.0668,-1.066,-1.1285,-1.1645,-1.1865,-1.1434,-1.122,-1.1212,-1.1198,-1.1194,-1.1194,-1.1194,-1.1194,-1.1194,-1.1191,-1.0978,-1.0565,-1.0171,-0.9967,0.0,0.0,-0.1005,-0.2022,-0.2813,0.0,-0.3369,-0.3504,-0.3728,-0.4244,-0.4298,-0.4566,-0.5112,-0.4731,-0.4601,-0.5208,-0.5692,-0.5955,-0.6059,-0.6469,-0.6771,-0.6771,-0.6771,-0.6876,-0.7188,-0.729,-0.7398,-0.7611,-0.7697,-0.7733,-0.7817,-0.7927,-0.7885,-0.7653,-0.7857,-0.7847,-0.7611,-0.7608,-0.7694,-0.7963,-0.7671,-0.747,-0.7276,-0.7508,-0.7416,-0.7116,-0.6992,-0.6847,-0.6653,-0.6548,-0.6418,-0.6437,-0.6437,-0.6448,-0.6467,-0.6445,-0.645,-0.6464,-0.6442,-0.6502,-0.6589,-0.6589,-0.6752,-0.6953,-0.6953,-0.7048,-0.7154,-0.7154,-0.7154,-0.7154,-0.7154,-0.7116,-0.6845,-0.6046,-0.5758,-0.5936,-0.6897,-0.619,-0.5366,-0.5731,-0.48,-0.3854,-0.3819,-0.7661,-1.0751,-1.0712,-1.0692,-1.0692,-1.0692,-1.0692,-1.0692,-1.0692,-1.0668,-1.0752,-1.074,-1.0667,-1.0805,-1.0953,-1.0968,-1.0988,-1.1231,-1.1208,-1.1203,-1.1203,-1.1198,-1.1194,-1.1194,-1.1153,-1.1155,-1.1013,-1.0323,-1.0112,0.0,0.0,-0.2412,0.0,-0.3054,-0.3244,0.0,0.0,-0.4348,0.0,-0.4537,-0.4381,-0.4912,-0.4904,-0.511,-0.5654,-0.5857,-0.6061,-0.659,-0.6607,-0.6643,-0.6643,-0.6852,-0.6961,-0.7061,-0.747,-0.7773,-0.7776,-0.7867,-0.7992,-0.7969,-0.7985,-0.7979,-0.7942,-0.7959,-0.7898,-0.7748,-0.7744,-0.778,-0.7658,-0.7658,-0.7563,-0.7563,-0.7604,-0.7401,-0.7021,-0.6885,-0.6894,-0.6902,-0.6683,-0.6642,-0.6742,-0.6537,-0.6502,-0.6581,-0.6475,-0.6505,-0.6581,-0.6472,-0.6448,-0.6461,-0.6461,-0.6627,-0.6825,-0.6825,-0.698,-0.7154,-0.7154,-0.7154,-0.7154,-0.7154,-0.6831,-0.6507,-0.6842,-0.6408,-0.5883,-0.5862,-0.6386,-0.6348,-0.4368,-0.3904,-0.387,-0.3698,-0.7587,-1.0716,-1.0696,-1.0692,-1.0692,-1.0692,-1.0692,-1.0692,-1.0692,-1.0675,-1.0696,-1.0692,-1.0698,-1.0476,-0.9811,-0.9834,-1.0229,-1.1138,-1.1236,-1.1236,-1.1236,-1.1208,-1.1194,-1.1194,-1.1239,-1.0821,-1.0147,-1.0041,-1.0327,-0.0795,-0.133,-0.1976,0.0,-0.2732,-0.3087,-0.3121,-0.3396,-0.3758,-0.4227,-0.4485,-0.4763,-0.5749,-0.5608,-0.559,-0.6167,-0.6228,-0.6269,-0.6513,-0.6456,-0.6399,-0.6328,-0.658,-0.6921,-0.7018,-0.7488,-0.7733,-0.7932,-0.7895,-0.7913,-0.7913,-0.7834,-0.7794,-0.7794,-0.7887,-0.7948,-0.7879,-0.797,-0.8033,-0.7969,-0.7691,-0.7691,-0.7782,-0.7602,-0.7363,-0.7114,-0.7054,-0.6871,-0.6646,-0.662,-0.6588,-0.655,-0.6412,-0.6469,-0.651,-0.6456,-0.6469,-0.651,-0.6453,-0.6437,-0.6337,-0.6034,-0.6045,-0.6177,-0.5865,-0.5972,-0.6103,-0.6381,-0.6284,-0.6284,-0.7065,-0.6623,-0.6291,-0.7067,-0.6359,-0.536,-0.4448,-0.5258,-0.5732,-0.3962,-0.3726,-0.4604,-0.7152,-0.9268,-1.0716,-1.0696,-1.0724,-1.0662,-1.0662,-1.0683,-1.0728,-1.0728,-1.0661,-1.0505,-1.0168,-1.0038,-0.9989,-0.9669,-0.9598,-0.9805,-1.0319,-1.0306,-1.0297,-1.0297,-1.0904,-1.1208,-1.1208,-1.1191,-1.0986,-1.0691,-1.0698,-1.0641,0.0,0.0,-0.1557,-0.1847,-0.2422,-0.2929,0.0,0.0,-0.329,-0.3985,-0.4428,-0.5085,-0.6266,-0.6134,-0.5924,-0.6414,-0.6426,-0.6317,-0.6233,-0.6222,-0.6187,-0.6189,-0.6545,-0.6795,-0.7081,-0.7375,-0.7635,-0.7929,-0.7821,-0.7756,-0.7756,-0.7658,-0.76,-0.76,-0.7782,-0.7854,-0.7812,-0.8051,-0.8214,-0.8217,-0.7759,-0.7667,-0.7752,-0.7454,-0.7279,-0.7197,-0.7197,-0.6938,-0.6514,-0.6646,-0.6526,-0.6377,-0.6393,-0.6456,-0.6478,-0.6448,-0.6456,-0.6478,-0.6448,-0.6337,-0.6134,-0.5734,-0.5606,-0.5487,-0.5074,-0.5141,-0.5229,-0.5513,-0.5422,-0.553,-0.6408,-0.6098,-0.578,-0.6413,-0.5607,-0.4514,-0.348,-0.4189,-0.4684,-0.3808,-0.3576,-0.4903,-0.8916,-0.9904,-1.0089,-1.057,-1.0671,-1.0592,-1.0478,-1.0464,-1.0381,-1.0381,-1.0443,-1.0199,-0.9657,-0.9607,-0.9609,-0.9609,-0.9585,-0.9612,-0.9612,-0.9592,-0.9686,-0.9993,-1.0815,-1.1227,-1.1212,-1.1158,-1.1178,-1.1178,-1.1225,-1.0905,0.0,-0.1684,0.0,-0.2278,-0.249,0.0,0.0,0.0,-0.3263,-0.4371,-0.4583,-0.4966,-0.5921,-0.6203,-0.6279,-0.6285,-0.6184,-0.6102,-0.6094,-0.6094,-0.6186,-0.6364,-0.6655,-0.6944,-0.713,-0.7426,-0.7621,-0.7621,-0.7614,-0.7611,-0.7611,-0.7604,-0.76,-0.76,-0.7782,-0.7802,-0.7741,-0.7864,-0.7878,-0.7878,-0.7616,-0.7531,-0.7531,-0.7248,-0.7156,-0.7074,-0.7074,-0.7068,-0.6942,-0.6798,-0.6736,-0.6663,-0.649,-0.6507,-0.6594,-0.6478,-0.651,-0.6592,-0.6478,-0.6034,-0.5636,-0.5636,-0.5302,-0.5074,-0.4971,-0.5141,-0.5216,-0.522,-0.5222,-0.5222,-0.5329,-0.4855,-0.4458,-0.4598,-0.4097,-0.3599,-0.3598,-0.3605,-0.3629,-0.3576,-0.3579,-0.4332,-0.6451,-0.751,-0.8645,-1.0003,-1.0506,-1.0502,-0.9739,-0.9623,-0.9619,-0.9619,-0.9682,-0.9685,-0.9583,-0.9634,-0.964,-0.964,-0.9632,-0.9624,-0.9624,-0.9624,-1.004,-1.1081,-1.1171,-1.1241,-1.1198,-1.1184,-1.1179,-1.1175,-1.1192,-1.1196,0.0,0.0,0.0,-0.205,-0.2235,-0.243,-0.2571,-0.2715,-0.2942,-0.3323,-0.404,-0.4652,-0.4863,-0.5642,-0.6151,-0.6151,-0.6113,-0.6056,-0.5977,-0.6157,-0.6221,-0.6227,-0.6661,-0.6993,-0.7082,-0.7356,-0.76,-0.76,-0.7509,-0.7543,-0.7632,-0.7447,-0.7396,-0.7761,-0.7851,-0.8001,-0.8298,-0.8147,-0.8204,-0.83,-0.7771,-0.7595,-0.7768,-0.7319,-0.7139,-0.7139,-0.7139,-0.6907,-0.6616,-0.6749,-0.6584,-0.6359,-0.6361,-0.6464,-0.6497,-0.6453,-0.6464,-0.6497,-0.645,-0.6237,-0.6037,-0.5336,-0.4958,-0.4782,-0.4073,-0.389,-0.392,-0.3966,-0.3979,-0.3979,-0.3979,-0.3788,-0.3683,-0.3721,-0.3443,-0.3277,-0.3382,-0.3414,-0.3448,-0.3362,-0.4008,-0.4962,-0.6429,-0.7663,-0.8852,-0.9975,-1.0272,-1.0227,-0.9998,-0.9778,-0.9609,-0.9609,-0.9554,-0.9614,-0.9614,-0.9561,-0.9628,-0.9628,-0.9628,-0.9628,-0.9628,-0.962,-0.9821,-1.0134,-1.022,-1.0516,-1.1227,-1.1217,-1.1203,-1.1194,-1.122,-1.1191,-0.1458,0.0,0.0,0.0,0.0,-0.2103,-0.2317,-0.2524,-0.2728,-0.2918,-0.3603,-0.4192,-0.4395,-0.5112,-0.5676,-0.5899,-0.5871,-0.5817,-0.5827,-0.6031,-0.6189,-0.6147,-0.6602,-0.6847,-0.689,-0.7148,-0.7319,-0.737,-0.7282,-0.7331,-0.7469,-0.7375,-0.7499,-0.794,-0.8028,-0.8208,-0.8568,-0.8384,-0.838,-0.8472,-0.7944,-0.7768,-0.7856,-0.7411,-0.7231,-0.7231,-0.7143,-0.6874,-0.6539,-0.6679,-0.6494,-0.6139,-0.6241,-0.6317,-0.6325,-0.6366,-0.638,-0.638,-0.638,-0.6305,-0.6029,-0.5298,-0.491,-0.4634,-0.3732,-0.3432,-0.3441,-0.3279,-0.3188,-0.329,-0.3188,-0.3188,-0.3286,-0.3266,-0.3174,-0.329,-0.3699,-0.3855,-0.3805,-0.3828,-0.4782,-0.5929,-0.7046,-0.7992,-0.8892,-0.9991,-1.0067,-1.0022,-1.0006,-0.9738,-0.9628,-0.9628,-0.9628,-0.9628,-0.9628,-0.9628,-0.9628,-0.9628,-0.9628,-0.9628,-0.9628,-0.962,-0.9612,-0.9612,-0.9604,-0.9912,-1.0627,-1.103,-1.1222,-1.1212,-1.1203,-1.1198,0.0,0.0,0.0,0.0,0.0,0.0,-0.2181,-0.2273,-0.2532,-0.3255,-0.3355,-0.369,-0.4527,-0.4696,-0.4898,-0.5344,-0.5442,-0.5455,-0.5624,-0.5808,-0.6011,-0.6222,-0.6489,-0.6603,-0.6722,-0.6709,-0.677,-0.6922,-0.6936,-0.6997,-0.7132,-0.7415,-0.7768,-0.8197,-0.8201,-0.838,-0.8568,-0.8568,-0.8472,-0.8201,-0.8201,-0.8113,-0.7856,-0.7591,-0.7507,-0.7507,-0.7231,-0.6966,-0.6805,-0.6672,-0.6456,-0.6291,-0.6134,-0.6086,-0.61,-0.6219,-0.6263,-0.6263,-0.6263,-0.594,-0.561,-0.5515,-0.5154,-0.4626,-0.413,-0.3929,-0.3827,-0.333,-0.3228,-0.3225,-0.3225,-0.3228,-0.3245,-0.3303,-0.3273,-0.3531,-0.4533,-0.4898,-0.4983,-0.5071,-0.5932,-0.6948,-0.7965,-0.827,-0.8737,-0.9705,-0.9778,-0.9669,-0.9564,-0.9626,-0.9628,-0.9628,-0.9628,-0.9628,-0.9628,-0.9628,-0.9628,-0.9628,-0.9628,-0.9628,-0.9628,-0.9628,-0.9628,-0.9628,-0.9628,-0.962,-0.9608,-1.0632,-1.1142,-1.1142,-1.1227,-1.1212,-0.1266,0.0,0.0,0.0,0.0,0.0,-0.1743,-0.1981,-0.2301,-0.2476,-0.2916,-0.3345,-0.3531,-0.4133,-0.4654,-0.4683,-0.5112,-0.5452,-0.5455,-0.5653,-0.5829,-0.604,-0.6315,-0.6531,-0.6858,-0.6865,-0.6926,-0.7071,-0.7082,-0.7102,-0.7411,-0.7764,-0.8025,-0.8201,-0.8384,-0.8564,-0.8568,-0.8384,-0.8288,-0.8201,-0.8028,-0.7856,-0.7591,-0.7507,-0.7415,-0.7231,-0.7143,-0.7051,-0.6976,-0.6947,-0.6642,-0.6291,-0.6318,-0.6272,-0.6089,-0.6124,-0.6135,-0.6135,-0.6135,-0.587,-0.541,-0.5001,-0.4528,-0.4073,-0.3543,-0.3329,-0.3312,-0.3206,-0.3168,-0.31,-0.31,-0.3164,-0.3224,-0.3196,-0.3211,-0.3331,-0.3531,-0.4849,-0.5979,-0.6009,-0.6729,-0.7462,-0.7833,-0.8497,-0.9028,-0.9286,-0.9916,-1.0184,-0.963,-0.9569,-0.964,-0.964,-0.964,-0.9636,-0.9628,-0.9628,-0.9628,-0.9628,-0.9628,-0.9628,-0.9628,-0.9628,-0.9628,-0.9628,-0.9628,-0.9624,-0.962,-0.992,-1.001,-1.01,-1.0824,-1.1231,0.0,0.0,0.0,0.0,0.0,0.0,-0.165,-0.1885,-0.2119,-0.2275,-0.2695,-0.3029,-0.3069,-0.357,-0.4062,-0.4316,-0.4726,-0.5057,-0.53,-0.551,-0.5688,-0.5953,-0.6159,-0.6371,-0.6647,-0.6705,-0.68,-0.6946,-0.7014,-0.7169,-0.7503,-0.7768,-0.794,-0.8113,-0.8208,-0.83,-0.83,-0.8116,-0.8028,-0.794,-0.794,-0.7768,-0.7507,-0.7507,-0.7415,-0.7234,-0.7143,-0.7054,-0.6972,-0.6975,-0.6647,-0.6292,-0.6182,-0.6029,-0.5945,-0.5991,-0.5917,-0.573,-0.573,-0.5479,-0.5041,-0.4716,-0.4444,-0.4102,-0.3572,-0.346,-0.3349,-0.3233,-0.3104,-0.3144,-0.3144,-0.312,-0.3184,-0.3149,-0.3187,-0.343,-0.4331,-0.5527,-0.6423,-0.6423,-0.7524,-0.846,-0.8456,-0.8932,-0.918,-0.9078,-0.9713,-0.9994,-0.957,-0.918,-0.8928,-0.8928,-0.9339,-0.9644,-0.9636,-0.9636,-0.9636,-0.9636,-0.9636,-0.9636,-0.9636,-0.9636,-0.9636,-0.9636,-0.9636,-0.9636,-0.9636,-0.962,-0.9608,-0.9596,-1.0216,-1.0524,0.0,0.0,0.0,0.0,-0.1335,0.0,-0.1729,-0.1887,-0.1964,-0.2354,-0.2433,-0.2511,-0.2904,-0.3062,-0.3295,-0.4151,-0.4307,-0.454,-0.5165,-0.5342,-0.553,-0.5799,-0.5978,-0.6172,-0.6217,-0.6413,-0.6559,-0.6712,-0.6865,-0.7097,-0.7499,-0.7507,-0.7595,-0.7856,-0.7944,-0.7944,-0.7944,-0.7856,-0.7768,-0.7507,-0.7768,-0.768,-0.7415,-0.7507,-0.7507,-0.7415,-0.7143,-0.6966,-0.6795,-0.6707,-0.6612,-0.6343,-0.5908,-0.5733,-0.5746,-0.5847,-0.5608,-0.5153,-0.5153,-0.4937,-0.453,-0.4449,-0.4477,-0.445,-0.3982,-0.3788,-0.3688,-0.3219,-0.3134,-0.3141,-0.3127,-0.3079,-0.3129,-0.3129,-0.3275,-0.3922,-0.5824,-0.6423,-0.6523,-0.6523,-0.8124,-0.9537,-0.926,-0.9369,-0.9357,-0.9075,-0.9169,-0.9263,-0.9263,-0.8507,-0.8007,-0.8007,-0.8829,-0.9446,-0.9549,-0.9446,-0.9442,-0.9442,-0.9442,-0.9442,-0.9442,-0.9442,-0.9442,-0.9442,-0.9442,-0.9446,-0.9648,-0.9632,-0.962,-0.9608,-0.9608,-0.9604,0.0,0.0,0.0,-0.1335,-0.1335,0.0,-0.1415,-0.1572,-0.165,-0.1728,-0.1886,-0.212,-0.2353,-0.2668,-0.2982,-0.3295,-0.3686,-0.4153,-0.4937,-0.5115,-0.5199,-0.5401,-0.5422,-0.5623,-0.5943,-0.6238,-0.6463,-0.661,-0.6927,-0.72,-0.7503,-0.7507,-0.7595,-0.7856,-0.7944,-0.7944,-0.7944,-0.768,-0.7595,-0.7507,-0.7595,-0.7415,-0.7143,-0.7415,-0.7415,-0.7143,-0.6969,-0.6792,-0.6792,-0.6349,-0.6171,-0.6169,-0.6083,-0.5908,-0.5735,-0.576,-0.5405,-0.5041,-0.5041,-0.4516,-0.381,-0.3794,-0.353,-0.3281,-0.3147,-0.3126,-0.3089,-0.2998,-0.2977,-0.3122,-0.2933,-0.2988,-0.3067,-0.3067,-0.3791,-0.4548,-0.5016,-0.6429,-0.7624,-0.7428,-0.8428,-0.9275,-0.9412,-0.9141,-0.8918,-0.8754,-0.8456,-0.8272,-0.8282,-0.8155,-0.8028,-0.8021,-0.8223,-0.863,-0.9545,-0.8825,-0.8312,-0.8312,-0.8312,-0.8312,-0.8312,-0.8312,-0.8312,-0.8312,-0.8312,-0.8722,-0.9648,-0.9632,-0.9624,-0.9624,-0.9624,-0.962,-0.1269,-0.1335,-0.1335,-0.1335,-0.1335,0.0,0.0,-0.1507,-0.1595,-0.1734,-0.1824,-0.1911,-0.2046,-0.2276,-0.2589,-0.2904,-0.345,-0.3921,-0.4311,-0.4545,-0.4857,-0.5243,-0.5321,-0.5425,-0.5726,-0.6015,-0.6261,-0.656,-0.6883,-0.7143,-0.7323,-0.7323,-0.7323,-0.7496,-0.7496,-0.7496,-0.7496,-0.7411,-0.7323,-0.7323,-0.7323,-0.7231,-0.7139,-0.7231,-0.7146,-0.6966,-0.6884,-0.6707,-0.6438,-0.6171,-0.5997,-0.5908,-0.5908,-0.5822,-0.5733,-0.5733,-0.5282,-0.4654,-0.4654,-0.4032,-0.323,-0.323,-0.3053,-0.288,-0.2907,-0.2897,-0.2875,-0.2875,-0.2917,-0.2948,-0.289,-0.2939,-0.3199,-0.3703,-0.4153,-0.4822,-0.5909,-0.693,-0.773,-0.8127,-0.863,-0.8958,-0.8937,-0.8781,-0.8556,-0.8341,-0.8182,-0.8031,-0.8038,-0.8038,-0.8038,-0.8031,-0.8031,-0.8233,-0.8741,-0.8329,-0.8021,-0.8021,-0.8021,-0.8021,-0.8021,-0.8021,-0.8021,-0.8021,-0.8018,-0.8219,-0.8832,-0.8821,-0.9122,-0.9636,-0.9636,-0.9636,-0.1273,-0.1335,-0.1335,-0.1335,-0.1335,-0.1335,0.0,0.0,0.0,-0.1736,-0.1761,-0.1779,-0.1827,-0.1984,-0.222,-0.2594,-0.3149,-0.354,-0.3587,-0.3906,-0.4384,-0.5085,-0.5207,-0.5375,-0.5488,-0.5701,-0.6055,-0.6474,-0.6883,-0.7054,-0.7054,-0.7054,-0.7139,-0.7139,-0.7139,-0.7139,-0.7139,-0.7139,-0.7139,-0.7139,-0.7139,-0.7054,-0.7054,-0.7054,-0.6966,-0.6704,-0.6704,-0.6438,-0.6083,-0.6083,-0.5997,-0.5908,-0.5733,-0.5733,-0.5733,-0.5644,-0.5015,-0.43,-0.421,-0.3587,-0.2875,-0.2875,-0.2875,-0.2875,-0.2875,-0.2875,-0.2875,-0.2873,-0.2784,-0.2784,-0.2784,-0.2817,-0.305,-0.3973,-0.4334,-0.4997,-0.6799,-0.7332,-0.7733,-0.8528,-0.8726,-0.8627,-0.8528,-0.8432,-0.8432,-0.8137,-0.8137,-0.8041,-0.8038,-0.8038,-0.8038,-0.8038,-0.8038,-0.8038,-0.8038,-0.8038,-0.8038,-0.8038,-0.8038,-0.8038,-0.8038,-0.8038,-0.8038,-0.8038,-0.8031,-0.8024,-0.8024,-0.8014,-0.8421,-0.9339,-0.9339,-0.9339,-0.1273,-0.1335,-0.1335,-0.1335,-0.1335,-0.1335,-0.1335,0.0,-0.1341,-0.1337,0.0,-0.1383,-0.1623,0.0,0.0,-0.1978,-0.2237,-0.2472,-0.2827,-0.3096,-0.353,-0.4384,-0.5036,-0.5328,-0.5115,-0.5465,-0.5913,-0.6316,-0.6627,-0.6792,-0.6792,-0.6966,-0.7139,-0.7139,-0.7139,-0.7139,-0.7139,-0.7139,-0.7139,-0.7139,-0.7139,-0.6966,-0.6792,-0.6792,-0.67,-0.6432,-0.6257,-0.6171,-0.6083,-0.5819,-0.6083,-0.6605,-0.5997,-0.5733,-0.5644,-0.5191,-0.4743,-0.421,-0.3855,-0.332,-0.2875,-0.2875,-0.2875,-0.2875,-0.2875,-0.2875,-0.2873,-0.2604,-0.2513,-0.2513,-0.2334,-0.2248,-0.2365,-0.2553,-0.4003,-0.5485,-0.578,-0.7322,-0.8627,-0.8432,-0.8432,-0.8528,-0.8726,-0.8726,-0.8627,-0.8432,-0.8435,-0.8439,-0.8038,-0.8038,-0.8038,-0.8038,-0.8038,-0.8038,-0.8038,-0.8038,-0.8038,-0.8038,-0.8038,-0.8038,-0.8038,-0.8038,-0.8038,-0.8038,-0.8038,-0.8038,-0.8038,-0.8035,-0.8028,-0.8209,-0.8209,-0.8209,-0.1269,-0.1335,-0.1335,-0.1335,-0.1335,-0.1335,-0.1335,-0.1271,-0.1279,-0.1261,0.0,0.0,0.0,0.0,0.0,0.0,-0.2058,-0.2372,-0.225,-0.292,-0.3584,-0.4001,-0.4359,-0.4601,-0.4819,-0.5397,-0.5843,-0.6055,-0.6378,-0.6533,-0.6609,-0.6609,-0.6697,-0.6697,-0.6697,-0.6697,-0.6697,-0.6697,-0.6697,-0.6697,-0.6697,-0.6609,-0.6612,-0.6612,-0.6435,-0.6257,-0.6523,-0.6609,-0.6517,-0.6697,-0.6962,-0.7132,-0.67,-0.6257,-0.5899,-0.5544,-0.4743,-0.3853,-0.3676,-0.332,-0.2873,-0.2694,-0.2694,-0.2604,-0.2513,-0.2513,-0.2513,-0.2334,-0.2334,-0.2334,-0.2243,-0.2243,-0.2539,-0.3865,-0.475,-0.5658,-0.697,-0.7829,-0.8333,-0.8237,-0.8137,-0.8237,-0.8333,-0.8333,-0.8336,-0.8137,-0.8237,-0.824,-0.8041,-0.8038,-0.8038,-0.8038,-0.8038,-0.8038,-0.8038,-0.8038,-0.8038,-0.8038,-0.8038,-0.8038,-0.8038,-0.8038,-0.8038,-0.8038,-0.8038,-0.8038,-0.8038,-0.8031,-0.8028,-0.8024,-0.8024,-0.8018,-0.1266,-0.1335,-0.1335,-0.1335,-0.1335,-0.1335,-0.1335,-0.1274,-0.1284,-0.1262,-0.1281,0.0,0.0,0.0,-0.1516,-0.1497,0.0,-0.2131,-0.1871,-0.254,-0.3199,-0.3458,-0.3742,-0.4059,-0.4401,-0.4909,-0.5274,-0.5526,-0.5855,-0.6106,-0.6283,-0.6322,-0.6428,-0.6428,-0.6428,-0.6428,-0.6428,-0.6428,-0.6428,-0.6428,-0.6605,-0.6694,-0.6605,-0.6782,-0.6786,-0.6523,-0.6962,-0.7048,-0.6871,-0.7224,-0.7489,-0.7665,-0.7404,-0.6959,-0.6425,-0.6074,-0.5099,-0.4032,-0.4121,-0.3764,-0.3141,-0.2871,-0.2602,-0.2424,-0.2243,-0.2243,-0.2154,-0.2154,-0.2064,-0.2064,-0.1974,-0.1974,-0.2356,-0.4049,-0.475,-0.5468,-0.7069,-0.7733,-0.8038,-0.8038,-0.8038,-0.8038,-0.8038,-0.8038,-0.8038,-0.8038,-0.8038,-0.8038,-0.8038,-0.8038,-0.7939,-0.7839,-0.7942,-0.7942,-0.7839,-0.7637,-0.7753,-0.8102,-0.8065,-0.7962,-0.7999,-0.7859,-0.7842,-0.8045,-0.8045,-0.8041,-0.8038,-0.8031,-0.8031,-0.8038,-0.8035,-0.8024,-0.1266,-0.1335,-0.1335,-0.1335,-0.1335,-0.1335,-0.1335,-0.1336,-0.1337,-0.1336,-0.1281,-0.1302,-0.1301,-0.1325,-0.1326,-0.1346,-0.1522,0.0,0.0,-0.1782,-0.2202,-0.2747,-0.3374,-0.3803,-0.3895,-0.3984,-0.4146,-0.4634,-0.5078,-0.5462,-0.5895,-0.6186,-0.6428,-0.6428,-0.6428,-0.6428,-0.6428,-0.6428,-0.6428,-0.6428,-0.7136,-0.7312,-0.7139,-0.7845,-0.7933,-0.7489,-0.7489,-0.7312,-0.7051,-0.7139,-0.7492,-0.8113,-0.7848,-0.7669,-0.7401,-0.6605,-0.5808,-0.501,-0.5453,-0.483,-0.3849,-0.3669,-0.2956,-0.2243,-0.2243,-0.2243,-0.2154,-0.1885,-0.1794,-0.1794,-0.1525,-0.1436,-0.1451,-0.1606,-0.3235,-0.4706,-0.4887,-0.6531,-0.8038,-0.8038,-0.8038,-0.8038,-0.8038,-0.8038,-0.8038,-0.8038,-0.8038,-0.8038,-0.8038,-0.8038,-0.7839,-0.7238,-0.765,-0.7753,-0.7238,-0.6728,-0.6983,-0.8361,-0.8136,-0.8016,-0.8044,-0.751,-0.7444,-0.7955,-0.7955,-0.8048,-0.8038,-0.8038,-0.8038,-0.8038,-0.8028,-0.8021,-0.087,-0.11,-0.1335,-0.1335,-0.11,-0.0943,-0.1257,-0.1335,-0.1335,-0.1335,-0.1265,-0.1273,-0.1273,-0.1281,-0.1281,-0.1261,-0.1345,-0.1423,0.0,-0.1407,-0.165,-0.2121,-0.2707,-0.316,-0.3314,-0.3605,-0.3838,-0.4227,-0.4318,-0.4459,-0.476,-0.4887,-0.5112,-0.5453,-0.5188,-0.528,-0.5905,-0.5633,-0.5897,-0.6691,-0.6956,-0.7221,-0.7573,-0.7665,-0.7665,-0.7489,-0.7841,-0.7933,-0.7845,-0.8201,-0.8468,-0.8644,-0.8384,-0.8296,-0.8116,-0.7228,-0.6251,-0.5453,-0.545,-0.4828,-0.3849,-0.3492,-0.2689,-0.1885,-0.1705,-0.1705,-0.1615,-0.1525,-0.1525,-0.1525,-0.1436,-0.1436,-0.1716,-0.3151,-0.3542,-0.4237,-0.6354,-0.6706,-0.6929,-0.7624,-0.764,-0.7437,-0.7437,-0.7437,-0.754,-0.7743,-0.7746,-0.7643,-0.754,-0.7437,-0.7437,-0.7441,-0.7444,-0.7441,-0.7238,-0.6933,-0.7051,-0.761,-0.7775,-0.7769,-0.7507,-0.726,-0.7033,-0.6933,-0.7646,-0.7955,-0.7952,-0.7335,-0.7132,-0.7437,-0.7332,-0.7528,-0.0395,-0.0628,-0.0943,-0.1257,-0.11,-0.0864,-0.0864,-0.0943,-0.1021,-0.1021,-0.1178,-0.1335,-0.1335,-0.1335,-0.1335,-0.1335,-0.1335,-0.1257,0.0,-0.1178,-0.1335,-0.1415,-0.199,-0.2423,-0.2783,-0.2913,-0.3229,-0.3685,-0.3666,-0.3714,-0.4106,-0.4144,-0.4378,-0.4741,-0.4476,-0.4567,-0.5196,-0.5191,-0.563,-0.6425,-0.7044,-0.7485,-0.7925,-0.8105,-0.8109,-0.8021,-0.8288,-0.838,-0.838,-0.8648,-0.8736,-0.8644,-0.8472,-0.8384,-0.83,-0.7852,-0.7228,-0.6517,-0.5897,-0.5184,-0.4559,-0.3848,-0.3223,-0.2509,-0.1704,-0.1614,-0.1886,-0.1539,-0.1444,-0.1438,-0.1448,-0.1443,-0.1713,-0.3124,-0.3598,-0.4196,-0.5807,-0.6246,-0.6583,-0.7316,-0.7341,-0.7238,-0.7238,-0.7238,-0.7238,-0.7444,-0.7444,-0.7441,-0.7238,-0.7238,-0.7238,-0.7244,-0.7244,-0.7141,-0.6939,-0.6836,-0.6853,-0.6903,-0.7169,-0.7366,-0.7418,-0.6962,-0.6753,-0.6595,-0.7166,-0.7572,-0.7724,-0.6851,-0.6625,-0.693,-0.6933,-0.7232]}]]